.

MPMG - Transparência

Contracheque - Remuneração de todos os servidores ativos - Pós Resolução CNMP 200/2019

Período: 2023 - Dezembro

Ordem Matrícula Nome Cargo Efetivo Lotação Rendimentos Descontos Rendimento Líquido Total *14 Data de Referência
Remuneração básica Remuneração eventual ou Temporária Outras Remunerações Temporárias *7 Verbas Indenizatórias *8 Total de Rendimentos Brutos *9 Obrigatórios Legais Outros Descontos Eventuais Total de descontos *13
Remuneração do Cargo Efetivo *1 Outras Verbas Remuneratórias *2 Função de Confiança ou Cargo em Comissão *3 Gratificação Natalina *4 Férias 1/3 Constitucional *5 Abono de Permanência *6 Contribuição Previdenciária *10 Imposto de Renda *11 Retenção por Teto Constitucional *12
1 498900 ABDON MARCIO BARBOSA DA SILVA OFICIAL DO MP ABRE CAMPO - COMARCA; ABRE CAMPO-PJ-01PJ 7.506,70 1.501,34 0,00 2.077,79 3.002,68 0,00 0,00 2.105,00 16.193,51 1.222,23 2.029,74 0,00 0,00 3.251,97 12.941,54 31/12/2023
2 177800 ADALBERTO MENEZES FARIA SAMORA OFICIAL DO MP BELO HORIZONTE - COMARCA; DIRET DE PLANOS PROJETOS E PROGRAMAS INST 22.191,68 8.876,67 0,00 5.126,11 10.356,12 0,00 0,00 2.105,00 48.655,58 4.751,88 9.095,73 0,00 0,00 13.847,61 34.807,97 31/12/2023
3 306400 ADALBERTO MOREIRA GONCALVES ANALISTA DO MP BELO HORIZONTE - COMARCA; BH-24PJ JUIZO REG BARREIRO-SECRETARIA 23.070,31 6.921,09 0,00 4.883,95 9.997,13 0,00 0,00 2.105,00 46.977,48 4.579,57 8.852,50 0,00 0,00 13.432,07 33.545,41 31/12/2023
4 179300 ADENISE AUXILIADORA SOUZA SAD OFICIAL DO MP BARBACENA - COMARCA; BARBACENA-PJ-06PJ 21.346,53 8.538,61 0,00 10.020,58 9.961,71 0,00 0,00 2.105,00 51.972,43 4.562,57 8.713,94 0,00 0,00 13.276,51 38.695,92 31/12/2023
5 272200 ADILSON BATISTA ORNELAS OFICIAL DO MP LAVRAS - COMARCA; LAVRAS-PJ-SECRETARIA 7.506,70 2.252,01 0,00 2.159,61 3.252,90 0,00 0,00 2.105,00 17.276,22 1.342,34 2.271,95 0,00 0,00 3.614,29 13.661,93 31/12/2023
6 380100 ADILSON GONCALVES DE MELO JUNIOR ANALISTA DO MP ARAXÁ - COMARCA; ARAXA-PJ-05PJ 17.005,40 5.101,62 0,00 3.906,26 7.369,01 0,00 0,00 2.105,00 35.487,29 3.318,07 6.204,20 0,00 0,00 9.522,27 25.965,02 31/12/2023
7 148800 ADILSON JANUARIO OFICIAL DO MP BELO HORIZONTE - COMARCA; BH-22PJ PES COM DEF E IDOSOS-SECRETARIA 23.070,31 18.456,25 0,00 9.394,84 14.461,77 5.795,34 0,00 2.105,00 73.283,51 5.795,34 13.737,98 3.936,60 0,00 23.469,92 49.813,59 31/12/2023
8 322601 ADMILSON SILVEIRA ANALISTA DO MP SAO JOAO DO PARAISO COMARCA; SAO JOAO DO PARAISO-PJ-UNPJ 12.343,61 2.468,72 0,00 3.275,49 4.937,44 0,00 888,74 3.055,00 26.969,00 2.293,12 3.954,72 0,00 0,00 6.247,84 20.721,16 31/12/2023
9 333700 ADRIANA ABRITTA TEIXEIRA OFICIAL DO MP BELO HORIZONTE - COMARCA; DIRET DE PESSOAL DO MINISTERIO PUBLICO - DPMP 12.343,61 3.703,08 0,00 2.792,86 5.348,90 0,00 0,00 2.105,00 26.293,45 2.348,42 4.353,01 0,00 0,00 6.701,43 19.592,02 31/12/2023
10 468500 ADRIANA APARECIDA FIRMINO ANALISTA DO MP CARATINGA - COMARCA; CARATINGA-PJ-04PJ 12.343,61 2.468,72 0,00 2.710,45 4.937,44 0,00 0,00 2.105,00 24.565,22 2.150,92 3.902,59 0,00 0,00 6.053,51 18.511,71 31/12/2023
11 326100 ADRIANA AUGUSTA AMARAL BELO OFICIAL DO MP BARBACENA - COMARCA; BARBACENA-PJ-05PJ 12.343,61 3.703,08 0,00 2.897,13 5.348,90 0,00 0,00 2.105,00 26.397,72 2.348,42 4.248,74 0,00 0,00 6.597,16 19.800,56 31/12/2023
12 605700 ADRIANA COSTA LIRA OFICIAL DO MP BELO HORIZONTE - COMARCA; CAO-EDUCACAO 7.506,70 1.501,34 4.020,58 3.599,12 4.342,87 0,00 750,67 2.105,00 23.826,28 1.462,45 3.556,09 0,00 0,00 5.018,54 18.807,74 31/12/2023
13 541100 ADRIANA CRISTINA DE OLIVEIRA OFICIAL DO MP EXTREMA - COMARCA; EXTREMA-PJ-01PJ 7.506,70 1.501,34 0,00 6.581,81 3.002,68 0,00 0,00 2.105,00 20.697,53 1.222,23 2.029,74 0,00 0,00 3.251,97 17.445,56 31/12/2023
14 254800 ADRIANA DAS GRACAS FERNANDES ANALISTA DO MP UBERABA - COMARCA; UBERABA-PJ-07PJ 23.070,31 18.456,25 0,00 5.193,22 12.529,99 0,00 0,00 2.105,00 61.354,77 5.795,34 11.613,03 3.936,60 0,00 21.344,97 40.009,80 31/12/2023
15 217400 ADRIANA DE CARVALHO CATAO BRAGA ASSESSOR ADMINISTRATIVO III BELO HORIZONTE - COMARCA; DIV FISCAL ADM CONT TERCEIRIZACAO 0,00 4.343,56 10.858,90 4.546,67 5.067,49 0,00 0,00 2.105,00 26.921,62 1.753,90 4.860,62 0,00 0,00 6.614,52 20.307,10 31/12/2023
16 434600 ADRIANA FERREIRA DA SILVA ANALISTA DO MP BELO HORIZONTE - COMARCA; BH-14PJ DEFESA CONSUMIDOR-GAB 112PJ 18.130,77 3.626,15 0,00 3.758,32 7.252,31 0,00 0,00 2.105,00 34.872,55 3.262,06 6.195,51 0,00 0,00 9.457,57 25.414,98 31/12/2023
17 499800 ADRIANA FERREIRA TIAGO OFICIAL DO MP SALINAS - COMARCA; SALINAS-PJ-02PJ 10.516,49 2.103,30 0,00 3.013,64 4.206,60 0,00 0,00 3.055,00 22.895,03 1.800,11 3.142,99 0,00 0,00 4.943,10 17.951,93 31/12/2023
18 543400 ADRIANA GUIMARAES NUNES DE PAULA ANALISTA DO MP PATROCÍNIO - COMARCA; PATROCINIO-PJ-01PJ 12.343,61 2.468,72 0,00 3.708,46 4.937,44 0,00 0,00 4.955,00 28.413,23 982,16 4.073,33 0,00 0,00 5.055,49 23.357,74 31/12/2023
19 471500 ADRIANA HORTA DE CARVALHO RODRIGUES DE SOUSA ANALISTA DO MP BELO HORIZONTE - COMARCA; CAO-FUNDACOES-ASSESSORIA JURIDICA 12.343,61 2.468,72 0,00 10.116,62 4.937,44 0,00 0,00 2.105,00 31.971,39 2.150,92 3.902,59 0,00 0,00 6.053,51 25.917,88 31/12/2023
20 480700 ADRIANA MOREIRA DE AVELLAR CEZILIO OFICIAL DO MP BELO HORIZONTE - COMARCA; BH-12PJ JUIZO CRIMINAL-SECRETARIA 7.506,70 1.501,34 4.020,58 4.774,44 4.342,87 0,00 0,00 2.105,00 24.250,93 1.222,23 3.451,81 0,00 0,00 4.674,04 19.576,89 31/12/2023
21 326000 ADRIANA PEREIRA CARNEIRO RESENDE OFICIAL DO MP BELO HORIZONTE - COMARCA; BH-25PJ DEFESA DA EDUCACAO-SECRETARIA 12.343,61 3.703,08 0,00 2.792,86 5.348,90 0,00 0,00 2.105,00 26.293,45 2.348,42 4.353,01 0,00 0,00 6.701,43 19.592,02 31/12/2023
22 502200 ADRIANA PETRUCCI DAVINA OFICIAL DO MP PATROCÍNIO - COMARCA; PATROCINIO-PJ-01PJ 10.858,90 2.171,78 0,00 2.669,55 4.343,56 0,00 0,00 3.055,00 23.098,79 1.865,86 3.379,84 0,00 0,00 5.245,70 17.853,09 31/12/2023
23 201900 ADRIANA REIS PIMENTA OFICIAL DO MP TEÓFILO OTONI - COMARCA; TEOFILO OTONI-PJ-03PJ 21.346,53 10.673,27 0,00 6.170,26 10.673,27 0,00 0,00 2.105,00 50.968,33 4.904,12 9.507,00 0,00 0,00 14.411,12 36.557,21 31/12/2023
24 278700 ADRIANA RODRIGUES PINTO COELHO AMARAL ANALISTA DO MP BELO HORIZONTE - COMARCA; CGMP-DIR ESTAGIO PROBATORIO E ORIENT 23.070,31 9.228,12 0,00 5.717,81 10.766,14 0,00 513,34 2.105,00 51.400,72 4.948,70 9.596,90 0,00 0,00 14.545,60 36.855,12 31/12/2023
25 468000 ADRIANA SANTOS DE SANTANA MOREIRA ANALISTA DO MP GOVERNADOR VALADARES - COMARCA; GAECO REGIONAL DE GOVERNADOR VALADARES 12.343,61 4.937,44 0,00 3.031,67 5.760,35 0,00 0,00 2.105,00 28.178,07 2.545,92 4.647,02 0,00 0,00 7.192,94 20.985,13 31/12/2023
26 194700 ADRIANA TSUKIDE OFICIAL DO MP UBERABA - COMARCA; COORD REG BACIAS PARANAIBA BAIXO RIO GRANDE 21.346,53 8.538,61 0,00 19.295,96 9.961,71 0,00 0,00 2.105,00 61.247,81 4.562,57 8.766,08 0,00 0,00 13.328,65 47.919,16 31/12/2023
27 465500 ADRIANO CASSIANO MATOS ANALISTA DO MP ARAXÁ - COMARCA; ARAXA-PJ-02PJ 12.343,61 2.468,72 0,00 2.658,31 4.937,44 0,00 0,00 2.105,00 24.513,08 2.150,92 3.954,72 0,00 0,00 6.105,64 18.407,44 31/12/2023
28 500500 ADRIANO DE ALMEIDA SILVA OFICIAL DO MP UBERABA - COMARCA; UBERABA-PJ-12PJ 10.858,90 2.171,78 0,00 9.523,95 4.343,56 0,00 0,00 3.055,00 29.953,19 1.865,86 2.835,34 0,00 0,00 4.701,20 25.251,99 31/12/2023
29 187200 ADRIANO DE FREITAS MARON OFICIAL DO MP PONTE NOVA - COMARCA; PONTE NOVA-PJ-03PJ 18.130,77 16.317,70 0,00 9.179,04 13.247,06 5.623,41 2.066,91 2.105,00 66.669,89 5.623,41 12.243,53 0,00 0,00 17.866,94 48.802,95 31/12/2023
30 477900 ADRIANO FERREIRA DE ALMEIDA OFICIAL DO MP TAIOBEIRAS - COMARCA; TAIOBEIRAS-PJ-UNPJ 10.858,90 3.257,67 0,00 3.435,14 4.705,52 0,00 846,99 2.846,24 25.950,46 2.175,12 3.625,95 0,00 0,00 5.801,07 20.149,39 31/12/2023
31 269101 ADRIANO PEREIRA SILVA ANALISTA DO MP BELO HORIZONTE - COMARCA; GABINETE DE PROCURADOR DE JUSTIÇA - SALA 913 12.343,61 3.703,08 0,00 3.566,45 5.348,90 0,00 0,00 2.105,00 27.067,04 2.348,42 4.196,60 0,00 0,00 6.545,02 20.522,02 31/12/2023
32 414200 ADRIANO RODRIGUES FERNANDES ANALISTA DO MP CARANDAÍ - COMARCA; CARANDAI-PJ-UNPJ 12.343,61 3.703,08 0,00 3.566,45 5.348,90 0,00 0,00 2.105,00 27.067,04 2.348,42 4.196,60 0,00 0,00 6.545,02 20.522,02 31/12/2023
33 536700 ADRIELLE COSTA MARIA MOURAO FIGUEIREDO OFICIAL DO MP SERRO - COMARCA; SERRO-PJ-SECRETARIA 7.506,70 1.501,34 0,00 3.264,84 3.002,68 0,00 0,00 3.055,00 18.330,56 1.222,23 2.081,87 0,00 0,00 3.304,10 15.026,46 31/12/2023
34 514300 ADRIENE DAMASCENO BRAGA ANALISTA DO MP ALFENAS - COMARCA; ALFENAS-PJ-03PJ 12.343,61 2.468,72 0,00 2.658,31 4.937,44 0,00 0,00 2.105,00 24.513,08 2.150,92 3.954,72 0,00 0,00 6.105,64 18.407,44 31/12/2023
35 254600 ADRIENE DOMINGUES COSTA ANALISTA DO MP BELO HORIZONTE - COMARCA; SUPER DE GESTAO DE PESSOAS-LOTACAO TEMPORARIA 23.070,31 9.228,12 0,00 4.564,29 10.766,14 0,00 0,00 0,00 47.628,86 4.948,70 9.596,90 0,00 0,00 14.545,60 33.083,26 31/12/2023
36 252001 ADRIENE GOMES BARRETO ANALISTA DO MP BELO HORIZONTE - COMARCA; BH-19PJ SAUDE-SECRETARIA 047PJ 20.533,67 10.266,84 0,00 5.760,65 10.266,84 0,00 0,00 2.105,00 48.933,00 4.709,03 9.113,58 0,00 0,00 13.822,61 35.110,39 31/12/2023
37 714800 ADSON GUSTAVO DE OLIVEIRA ASSESSOR PROCURADOR JUSTICA BELO HORIZONTE - COMARCA; GABINETE DE PROCURADOR DE JUSTIÇA - SALA 803 0,00 0,00 8.810,89 7.514,02 2.936,96 0,00 0,00 2.105,00 21.366,87 1.753,90 2.517,04 0,00 0,00 4.270,94 17.095,93 31/12/2023
38 724600 AECIO BRAS SILVA JUNIOR ASSESSOR PROMOTOR JUSTICA BAMBUÍ - COMARCA; BAMBUI-PJ-UNPJ 0,00 0,00 8.810,89 3.108,57 2.936,96 0,00 528,65 2.105,00 17.490,07 1.753,90 2.517,04 0,00 0,00 4.270,94 13.219,13 31/12/2023
39 302500 AGENOR JOSE DA SILVA JUNIOR ANALISTA DO MP JUIZ DE FORA - COMARCA; JUIZ DE FORA-PJ-07PJ 23.070,31 6.921,09 0,00 5.040,36 9.997,13 0,00 0,00 3.055,00 48.083,89 4.579,57 8.696,09 0,00 0,00 13.275,66 34.808,23 31/12/2023
40 357500 AILSON WAGNER DE ALENCAR SILVA OFICIAL DO MP BELO HORIZONTE - COMARCA; BH-12PJ JUIZO CRIMINAL-SECRETARIA 15.447,01 7.723,51 0,00 4.839,03 7.723,51 0,00 0,00 2.105,00 37.838,06 3.488,23 6.495,22 0,00 0,00 9.983,45 27.854,61 31/12/2023
41 366400 AILTON ALEXSSANDRO ALVES OFICIAL DO MP PARÁ DE MINAS - COMARCA; PARA DE MINAS-PJ-05PJ 12.343,61 4.937,44 0,00 11.567,93 5.760,35 0,00 0,00 2.105,00 36.714,33 2.545,92 4.751,30 0,00 0,00 7.297,22 29.417,11 31/12/2023
42 318900 AILTON DE CASTRO RIBEIRO JUNIOR OFICIAL DO MP CANDEIAS - COMARCA; CANDEIAS-PJ-UNPJ 12.343,61 3.703,08 0,00 5.486,31 5.348,90 0,00 0,00 2.105,00 28.986,90 2.348,42 4.196,60 0,00 0,00 6.545,02 22.441,88 31/12/2023
43 464400 ALAN MONTEIRO GASPAR ANALISTA DO MP SETE LAGOAS - COMARCA; SETE LAGOAS-PJ-08PJ 12.343,61 2.468,72 0,00 5.032,24 4.937,44 0,00 0,00 2.105,00 26.887,01 2.150,92 3.954,72 0,00 0,00 6.105,64 20.781,37 31/12/2023
44 492000 ALANA DE CASTRO FREITAS OFICIAL DO MP BELO HORIZONTE - COMARCA; SECRETARIA DO PROCON-MG 8.264,07 1.652,81 0,00 2.281,02 3.305,63 0,00 0,00 2.105,00 17.608,53 1.367,65 2.375,13 0,00 0,00 3.742,78 13.865,75 31/12/2023
45 306700 ALANA MARCIA DE OLIVEIRA OFICIAL DO MP BELO HORIZONTE - COMARCA; DIRETORIA DE ADMINISTRACAO FINANCEIRA 12.343,61 3.703,08 0,00 2.792,86 5.348,90 0,00 0,00 2.105,00 26.293,45 2.348,42 4.353,01 0,00 0,00 6.701,43 19.592,02 31/12/2023
46 324500 ALANMAR COUTINHO COSTA OFICIAL DO MP LEOPOLDINA - COMARCA; LEOPOLDINA-PJ-02PJ 12.343,61 3.703,08 0,00 2.897,13 5.348,90 0,00 962,80 2.105,00 27.360,52 2.502,47 4.248,74 0,00 0,00 6.751,21 20.609,31 31/12/2023
47 407300 ALBERTO LUIZ SOARES DE OLIVEIRA ANALISTA DO MP BELO HORIZONTE - COMARCA; DIRETORIA DE PROJETOS DE EDIFICACOES 18.130,77 5.439,23 0,00 4.862,49 7.856,67 0,00 0,00 2.105,00 38.394,16 3.552,15 6.780,53 0,00 0,00 10.332,68 28.061,48 31/12/2023
48 118200 ALBERTO PEREIRA DA COSTA OFICIAL DO MP DORES DO INDAIÁ - COMARCA; DORES DO INDAIA-PJ-UNPJ 23.070,31 20.763,28 0,00 9.394,84 14.461,77 6.156,20 2.255,40 2.105,00 78.206,80 6.156,20 13.975,82 6.243,63 0,00 26.375,65 51.831,15 31/12/2023
49 282400 ALCILENE MARISE DE ARAUJO ANALISTA DO MP BELO HORIZONTE - COMARCA; BH-23PJ INF-FISC MED SOC FEC 23.070,31 9.228,12 0,00 5.769,95 10.766,14 0,00 0,00 2.105,00 50.939,52 4.948,70 9.544,77 0,00 0,00 14.493,47 36.446,05 31/12/2023
50 396400 ALCIONE DE FREITAS E SILVA ANALISTA DO MP BELO HORIZONTE - COMARCA; ASSESS JUR DO CONS SUPERIOR DO MINISTERIO PUB 20.533,67 10.266,84 0,00 11.298,70 10.266,84 0,00 0,00 2.105,00 54.471,05 4.709,03 9.113,58 0,00 0,00 13.822,61 40.648,44 31/12/2023
51 657400 ALCIONE MARIA FERREIRA ASSESSOR PROCURADOR JUSTICA BELO HORIZONTE - COMARCA; GABINETE DE PROCURADOR DE JUSTICA - SALA 313 0,00 0,00 8.810,89 3.108,57 2.936,96 0,00 0,00 3.055,00 17.911,42 1.753,90 2.517,04 0,00 0,00 4.270,94 13.640,48 31/12/2023
52 161600 ALCIONE NERY SOUZA ASSESSOR ADMINISTRATIVO III BELO HORIZONTE - COMARCA; BH-18PJ DIREITOS HUMANOS-SECRETARIA 0,00 5.429,45 10.858,90 4.790,99 5.429,45 0,00 0,00 2.105,00 28.613,79 1.753,90 5.258,77 0,00 0,00 7.012,67 21.601,12 31/12/2023
53 376000 ALDA GOMES LANA OFICIAL DO MP BELO HORIZONTE - COMARCA; BH-18PJ VIOLENCIA DOMESTICA-SECRETARIA 12.343,61 3.703,08 0,00 2.844,99 5.348,90 0,00 0,00 2.105,00 26.345,58 2.348,42 4.300,87 0,00 0,00 6.649,29 19.696,29 31/12/2023
54 148000 ALDA MARTINS SIMOES OFICIAL DO MP BELO HORIZONTE - COMARCA; BH-23PJ CIVEL- FISC ENT AB POL 23.070,31 16.149,22 0,00 6.633,32 12.529,99 0,00 0,00 2.105,00 60.487,84 5.795,34 11.453,69 1.629,57 0,00 18.878,60 41.609,24 31/12/2023
55 318400 ALDO CREPALDI JUNIOR OFICIAL DO MP BELO HORIZONTE - COMARCA; DIVISAO DE MATERIAIS 12.343,61 3.703,08 0,00 5.434,17 5.348,90 0,00 0,00 2.105,00 28.934,76 2.348,42 4.300,87 0,00 0,00 6.649,29 22.285,47 31/12/2023
56 604500 ALENIZE APARECIDA RODRIGUES HENRIQUE OFICIAL DO MP RIO NOVO - COMARCA; RIO NOVO-PJ-SECRETARIA 7.506,70 1.501,34 0,00 3.493,42 3.002,68 0,00 0,00 2.105,00 17.609,14 1.222,23 2.081,87 0,00 0,00 3.304,10 14.305,04 31/12/2023
57 197900 ALESSA DE SOUSA E SILVA OFICIAL DO MP OLIVEIRA - COMARCA; OLIVEIRA-PJ-02PJ 22.191,68 8.876,67 0,00 5.126,11 10.356,12 0,00 2.433,69 8.505,84 57.490,11 5.050,14 9.095,73 0,00 0,00 14.145,87 43.344,24 31/12/2023
58 428500 ALESSANDRA ALVES DINIZ OFICIAL DO MP BELO HORIZONTE - COMARCA; CENTRAL DE APOIO TECNICO-SECRETARIA 10.858,90 5.429,45 0,00 10.963,38 5.429,45 0,00 0,00 2.105,00 34.786,18 2.387,08 4.430,99 0,00 0,00 6.818,07 27.968,11 31/12/2023
59 286801 ALESSANDRA BOTELHO JUNQUEIRA DE MENEZES ANALISTA DO MP PASSOS - COMARCA; PASSOS-PJ-05PJ 18.720,84 7.488,34 0,00 4.522,17 8.736,39 0,00 0,00 3.055,00 42.522,74 3.974,42 7.423,56 0,00 0,00 11.397,98 31.124,76 31/12/2023
60 307000 ALESSANDRA CRISTINA SANTOS MENDES ANALISTA DO MP BELO HORIZONTE - COMARCA; BH-18PJ VIOLENCIA DOMESTICA-SECRETARIA 21.346,53 6.403,96 0,00 9.319,75 9.250,16 0,00 0,00 2.105,00 48.425,40 4.221,03 8.077,30 0,00 0,00 12.298,33 36.127,07 31/12/2023
61 264400 ALESSANDRA DE SOUZA SANTOS ANALISTA DO MP BELO HORIZONTE - COMARCA; SECRETARIA DE ASSUNTOS INTERNACIONAIS 23.070,31 11.535,16 0,00 4.815,77 11.535,16 0,00 0,00 2.105,00 53.061,40 5.317,82 10.341,31 0,00 0,00 15.659,13 37.402,27 31/12/2023
62 441500 ALESSANDRA DRUMMOND DE FIGUEIREDO ROSSI ANALISTA DO MP BELO HORIZONTE - COMARCA; DIRETORIA DE PROJETOS DE EDIFICACOES 12.343,61 2.468,72 0,00 2.658,31 4.937,44 0,00 0,00 2.105,00 24.513,08 2.150,92 3.954,72 0,00 0,00 6.105,64 18.407,44 31/12/2023
63 524000 ALESSANDRA LUCIOLI DE BARROS ANALISTA DO MP BELO HORIZONTE - COMARCA; BH-19PJ SAUDE--SECRETARIA 12.343,61 2.468,72 0,00 2.710,45 4.937,44 0,00 0,00 2.105,00 24.565,22 2.150,92 3.902,59 0,00 0,00 6.053,51 18.511,71 31/12/2023
64 479900 ALESSANDRA MARA ANDRADE DE FARIA OFICIAL DO MP UBERABA - COMARCA; UBERABA-PJ-09PJ 10.858,90 2.171,78 0,00 4.614,84 4.343,56 0,00 0,00 2.105,00 24.094,08 1.865,86 3.379,84 0,00 0,00 5.245,70 18.848,38 31/12/2023
65 226700 ALESSANDRA MARA VASCONCELOS REZENDE OFICIAL DO MP CONSELHEIRO LAFAIETE - COMARCA; CONSELHEIRO LAFAIETE-PJ-07PJ 18.130,77 7.252,31 0,00 4.210,76 8.461,03 0,00 0,00 2.105,00 40.159,87 3.842,24 7.365,55 0,00 0,00 11.207,79 28.952,08 31/12/2023
66 196500 ALESSANDRA MARIA RIBEIRO LUCIANO OFICIAL DO MP RIO PARANAÍBA - COMARCA; RIO PARANAIBA-PJ-UNPJ 22.191,68 11.095,84 0,00 5.410,25 11.095,84 0,00 1.997,25 2.105,00 53.895,86 5.426,51 9.811,78 0,00 0,00 15.238,29 38.657,57 31/12/2023
67 651700 ALESSANDRA PROFIRIO SOUZA OFICIAL DO MP NOVA ERA - COMARCA; NOVA ERA-PJ-UNPJ 6.603,76 660,38 0,00 2.165,10 2.421,38 0,00 0,00 2.105,00 13.955,62 944,43 1.466,70 0,00 0,00 2.411,13 11.544,49 31/12/2023
68 384900 ALESSANDRA RODRIGUES ANALISTA DO MP VISCONDE DO RIO BRANCO - COMARCA; VISCONDE DO RIO BRANCO-PJ-03PJ 20.533,67 6.160,10 0,00 5.236,00 8.897,92 0,00 0,00 3.055,00 43.882,69 4.051,95 7.684,19 0,00 0,00 11.736,14 32.146,55 31/12/2023
69 390000 ALESSANDRA SPADANO MASSARA VASCONCELOS OFICIAL DO MP BETIM - COMARCA; BETIM-PJ-10PJ 12.343,61 3.703,08 0,00 2.792,86 5.348,90 0,00 0,00 2.105,00 26.293,45 2.348,42 4.353,01 0,00 0,00 6.701,43 19.592,02 31/12/2023
70 426500 ALESSANDRO CAMPOS DE PAIVA ANALISTA DO MP BELO HORIZONTE - COMARCA; DIR CRIACAO E MIDIAS 18.720,84 3.744,17 0,00 3.846,50 7.488,34 0,00 0,00 2.105,00 35.904,85 3.375,35 6.423,99 0,00 0,00 9.799,34 26.105,51 31/12/2023
71 623400 ALESSANDRO DE OLIVEIRA REZENDE ANALISTA DO MP BELO HORIZONTE - COMARCA; DIRET DE INFORMACAO E CONHECIMENTO-DINC/CEAF 12.343,61 1.234,36 0,00 9.312,76 4.525,99 0,00 0,00 2.105,00 29.521,72 1.953,42 3.556,44 0,00 0,00 5.509,86 24.011,86 31/12/2023
72 420600 ALESSANDRO SILVA OFICIAL DO MP VISCONDE DO RIO BRANCO - COMARCA; VISCONDE DO RIO BRANCO-PJ-02PJ 11.954,43 4.781,77 0,00 3.595,32 5.578,73 0,00 0,00 2.105,00 28.015,25 2.458,74 3.945,16 0,00 0,00 6.403,90 21.611,35 31/12/2023
73 375301 ALETHEIA PATRICIA ASSIS MORAIS MOREIRA ANALISTA DO MP ITABIRA - COMARCA; ITABIRA-PJ-02PJ 12.343,61 3.703,08 0,00 10.868,34 5.348,90 0,00 0,00 3.055,00 35.318,93 2.348,42 4.300,87 0,00 0,00 6.649,29 28.669,64 31/12/2023
74 382300 ALEX CARVALHO LIMA ANALISTA DO MP UBERLÂNDIA - COMARCA; UBERLANDIA-PJ-14PJ 20.533,67 6.160,10 0,00 17.300,28 8.897,92 0,00 0,00 3.055,00 55.946,97 4.051,95 7.788,47 0,00 0,00 11.840,42 44.106,55 31/12/2023
75 195201 ALEX DE CASTRO PEREIRA ANALISTA DO MP UBERABA - COMARCA; UBERABA-PJ-09PJ 23.070,31 9.228,12 0,00 4.564,29 10.766,14 0,00 0,00 2.105,00 49.733,86 4.948,70 9.596,90 0,00 0,00 14.545,60 35.188,26 31/12/2023
76 358900 ALEX DE PAULA LANZA ASSESSOR ADMINISTRATIVO IV BELO HORIZONTE - COMARCA; DIR CONTEUDO JORNALISTICO 0,00 0,00 14.488,22 4.385,97 4.829,41 0,00 0,00 3.055,00 26.758,60 1.753,90 4.598,73 0,00 0,00 6.352,63 20.405,97 31/12/2023
77 178400 ALEX RODRIGO SALDANHA GUIMARAES OFICIAL DO MP BELO HORIZONTE - COMARCA; DIRETORIA DE SISTEMAS DE INFORMACAO 7.506,70 3.002,68 0,00 2.189,29 3.503,13 0,00 0,00 2.105,00 18.306,80 1.462,45 2.566,31 0,00 0,00 4.028,76 14.278,04 31/12/2023
78 413500 ALEX VILELA OLIVEIRA ANALISTA DO MP GOVERNADOR VALADARES - COMARCA; COORD REG PJ DEF EDU DIR CRIANCA ADOL RIODOCE 18.720,84 5.616,25 0,00 8.718,20 8.112,36 0,00 0,00 2.105,00 43.272,65 3.674,88 7.028,05 0,00 0,00 10.702,93 32.569,72 31/12/2023
79 264300 ALEXANDRA FATIMA SARAIVA SOARES ANALISTA DO MP BELO HORIZONTE - COMARCA; CENTRAL DE APOIO TECN-SETOR DE MEIO AMBIENTE 23.070,31 9.228,12 0,00 4.564,29 10.766,14 0,00 4.910,85 2.105,00 54.644,71 4.948,70 10.947,39 0,00 0,00 15.896,09 38.748,62 31/12/2023
80 488000 ALEXANDRA LARA PAIS DE CARVALHO ANALISTA DO MP SABARÁ - COMARCA; SABARA-PJ-04PJ 12.343,61 2.468,72 0,00 5.110,44 4.937,44 0,00 888,74 2.105,00 27.853,95 2.293,12 3.798,31 0,00 0,00 6.091,43 21.762,52 31/12/2023
81 256300 ALEXANDRA SANTOS GOMES OFICIAL DO MP BELO HORIZONTE - COMARCA; DIRETORIA GESTAO COMPRAS LICITACOES 12.343,61 4.937,44 0,00 2.927,40 5.760,35 0,00 0,00 2.105,00 28.073,80 2.545,92 4.751,30 0,00 0,00 7.297,22 20.776,58 31/12/2023
82 403300 ALEXANDRE AUGUSTO RODRIGUES ANALISTA DO MP ÁGUAS FORMOSAS - COMARCA; AGUAS FORMOSAS-PJ-UNPJ 12.343,61 3.703,08 0,00 3.410,04 5.348,90 0,00 0,00 4.005,00 28.810,63 2.348,42 4.353,01 0,00 0,00 6.701,43 22.109,20 31/12/2023
83 640900 ALEXANDRE BARBOSA MASCARENHAS ANALISTA DO MP BETIM - COMARCA; BETIM-PJ-02PJ 9.699,77 969,98 0,00 2.741,78 3.556,58 0,00 0,00 2.105,00 19.073,11 982,16 2.430,96 0,00 0,00 3.413,12 15.659,99 31/12/2023
84 311700 ALEXANDRE BARCELOS RESENDE OFICIAL DO MP BELO HORIZONTE - COMARCA; BH-17PJ PATRIMONIO PUBLICO-SECRETARIA 11.212,54 3.363,76 0,00 2.862,45 4.858,77 0,00 0,00 3.055,00 25.352,52 2.113,16 3.878,57 0,00 0,00 5.991,73 19.360,79 31/12/2023
85 285600 ALEXANDRE CAMPOS DE OLIVEIRA OFICIAL DO MP UBERABA - COMARCA; COORD REG BACIAS PARANAIBA BAIXO RIO GRANDE 12.343,61 4.937,44 0,00 4.183,63 5.760,35 0,00 1.234,36 2.105,00 30.564,39 2.940,92 4.594,89 0,00 0,00 7.535,81 23.028,58 31/12/2023
86 509200 ALEXANDRE CAPUANO DE REZENDE ANALISTA DO MP BELO HORIZONTE - COMARCA; BH-07PJ 03 TRIBUNAL DO JURI-GAB 061PJ 12.343,61 2.468,72 0,00 2.710,45 4.937,44 0,00 0,00 2.105,00 24.565,22 2.150,92 3.902,59 0,00 0,00 6.053,51 18.511,71 31/12/2023
87 229400 ALEXANDRE CARLOS BOTREL SUPERINTENDENTE BELO HORIZONTE - COMARCA; SUPERINTENDENCIA DOS ORGAOS COLEGIADOS 28.013,39 11.205,36 0,00 6.461,25 12.529,99 0,00 0,00 2.105,00 60.314,99 3.974,42 11.954,37 1.628,79 0,00 17.557,58 42.757,41 31/12/2023
88 411900 ALEXANDRE CARVALHO SANTOS RIBEIRO ANALISTA DO MP OLIVEIRA - COMARCA; OLIVEIRA-PJ-02PJ 18.720,84 5.616,25 0,00 4.986,60 8.112,36 0,00 1.460,23 3.055,00 41.951,28 3.908,52 7.028,05 0,00 0,00 10.936,57 31.014,71 31/12/2023
89 641600 ALEXANDRE DA SILVA ASSUNCAO OFICIAL DO MP BELO HORIZONTE - COMARCA; SERVICO MEDICO-DEPTO PERIC MEDICA SAUDE OCUP 6.818,83 681,88 0,00 1.979,61 2.500,24 0,00 0,00 3.055,00 15.035,56 981,10 1.595,50 0,00 0,00 2.576,60 12.458,96 31/12/2023
90 201200 ALEXANDRE DE ALENCAR CORDEIRO OFICIAL DO MP ÁGUAS FORMOSAS - COMARCA; AGUAS FORMOSAS-PJ-UNPJ 7.506,70 5.254,69 0,00 2.434,76 4.253,80 0,00 765,68 2.105,00 22.320,63 1.945,28 3.292,96 0,00 0,00 5.238,24 17.082,39 31/12/2023
91 288200 ALEXANDRE DE VASCONCELOS COSTA KER ANALISTA DO MP BELO HORIZONTE - COMARCA; BH-03PJ EMPRESARIAL-SECRETARIA 23.070,31 9.228,12 0,00 7.243,11 10.766,14 0,00 2.307,03 2.105,00 54.719,71 5.686,94 9.549,85 0,00 0,00 15.236,79 39.482,92 31/12/2023
92 445000 ALEXANDRE DIOGENES OLIVEIRA ANALISTA DO MP SALINAS - COMARCA; SALINAS-PJ-02PJ 14.960,00 2.992,00 0,00 3.823,16 5.984,00 0,00 0,00 3.055,00 30.814,16 2.653,27 4.967,79 0,00 0,00 7.621,06 23.193,10 31/12/2023
93 463400 ALEXANDRE LEAL WINKELSTROTER ANALISTA DO MP TEÓFILO OTONI - COMARCA; TEOFILO OTONI-PJ-04PJ 12.343,61 3.209,34 0,00 3.109,35 5.184,32 0,00 0,00 2.105,00 25.951,62 2.269,42 4.193,70 0,00 0,00 6.463,12 19.488,50 31/12/2023
94 615700 ALEXANDRE LUIZ DE CASTRO MACIEL ANALISTA DO MP BELO HORIZONTE - COMARCA; BH-08PJ JUIZADO ESPECIAL-GAB 163PJ 12.343,61 1.974,98 0,00 3.448,27 4.772,86 0,00 0,00 3.055,00 25.594,72 2.071,92 3.743,27 0,00 0,00 5.815,19 19.779,53 31/12/2023
95 356900 ALEXANDRE MOISES MENDONCA E ARAUJO OFICIAL DO MP UBERABA - COMARCA; UBERABA-PJ-13PJ 10.516,49 3.154,95 0,00 3.064,83 4.557,15 0,00 0,00 3.055,00 24.348,42 1.968,38 3.586,60 0,00 0,00 5.554,98 18.793,44 31/12/2023
96 633300 ALEXANDRE NONATO MARTINS OFICIAL DO MP CAMPESTRE - COMARCA; CAMPESTRE-PJ-UNPJ 6.818,83 681,88 0,00 2.031,74 2.500,24 0,00 0,00 2.105,00 14.137,69 981,10 1.543,36 0,00 0,00 2.524,46 11.613,23 31/12/2023
97 469900 ALEXANDRE PEREIRA GUEDES ANALISTA DO MP CATAGUASES - COMARCA; CATAGUASES-PJ-03PJ 12.343,61 2.468,72 0,00 2.658,31 4.937,44 0,00 0,00 2.105,00 24.513,08 2.150,92 3.954,72 0,00 0,00 6.105,64 18.407,44 31/12/2023
98 208700 ALEXANDRE RESENDE FRAGA ANALISTA DO MP BELO HORIZONTE - COMARCA; BH-19PJ SAUDE-SECRETARIA 130PJ 23.070,31 9.228,12 0,00 4.720,71 10.766,14 0,00 473,71 7.272,75 55.531,74 4.948,70 9.440,49 0,00 0,00 14.389,19 41.142,55 31/12/2023
99 216401 ALEXANDRE RIBEIRO DE LIMA MAIORINO ANALISTA DO MP UBERABA - COMARCA; UBERABA-PJ-03PJ 23.070,31 9.228,12 0,00 5.231,47 10.766,14 0,00 0,00 2.105,00 50.401,04 4.948,70 9.544,77 0,00 0,00 14.493,47 35.907,57 31/12/2023
100 475100 ALEXANDRE TEOTONIO COSTA ANALISTA DO MP ARAGUARI - COMARCA; ARAGUARI-PJ-01PJ 12.343,61 2.468,72 0,00 2.762,59 4.937,44 0,00 0,00 2.105,00 24.617,36 2.150,92 3.850,45 0,00 0,00 6.001,37 18.615,99 31/12/2023
101 339000 ALEXANDRE VITOR CARDOSO OFICIAL DO MP BELO HORIZONTE - COMARCA; BH-23PJ INFRACIONAL-SEC EXP 7.506,70 2.252,01 0,00 2.263,88 3.252,90 0,00 0,00 2.105,00 17.380,49 1.342,34 2.167,68 0,00 0,00 3.510,02 13.870,47 31/12/2023
102 623100 ALEXSANDER BATISTA AGUIAR COORDENADOR II BELO HORIZONTE - COMARCA; DIRETORIA DE SUPORTE E MANUTENCAO 20.533,67 2.053,37 0,00 4.707,23 7.529,01 0,00 0,00 3.055,00 37.878,28 1.953,42 6.703,35 0,00 0,00 8.656,77 29.221,51 31/12/2023
103 513300 ALFSON MIRANDA BRAGA ANALISTA DO MP BELO HORIZONTE - COMARCA; BH-12PJ JUIZO CRIMINAL-GAB 087PJ 12.343,61 2.468,72 0,00 2.658,31 4.937,44 0,00 0,00 2.105,00 24.513,08 2.150,92 3.954,72 0,00 0,00 6.105,64 18.407,44 31/12/2023
104 618400 ALICE MAGALHAES MACEDO DE CARVALHO ANALISTA DO MP IPATINGA - COMARCA; IPATINGA-PJ-10PJ 12.343,61 1.234,36 0,00 2.945,10 4.525,99 0,00 0,00 3.055,00 24.104,06 1.953,42 3.556,44 0,00 0,00 5.509,86 18.594,20 31/12/2023
105 707000 ALICE MARIA RIBEIRO DINIZ ASSESSOR PROMOTOR JUSTICA BELO HORIZONTE - COMARCA; PROC JUST ATUACAO TRIBUNAIS SUPERIORES-GAB003 0,00 0,00 8.810,89 7.514,02 2.936,96 0,00 0,00 2.105,00 21.366,87 1.753,90 2.517,04 0,00 0,00 4.270,94 17.095,93 31/12/2023
106 471000 ALICE TITONELI MOREIRA ANALISTA DO MP MIRADOURO - COMARCA; MIRADOURO-PJ-UNPJ 12.343,61 2.468,72 0,00 2.762,59 4.937,44 0,00 0,00 3.055,00 25.567,36 2.150,92 3.850,45 0,00 0,00 6.001,37 19.565,99 31/12/2023
107 731600 ALICIA PAULA RODRIGUES DE LIMA ASSESSOR PROMOTOR JUSTICA TIROS - COMARCA; TIROS-PJ-UNPJ 0,00 0,00 8.810,89 4.195,49 0,00 0,00 528,65 2.105,00 15.640,03 1.753,90 1.709,37 0,00 0,00 3.463,27 12.176,76 31/12/2023
108 725800 ALINE ALBIERI FRANCISCO ASSESSOR PROMOTOR JUSTICA BELO HORIZONTE - COMARCA; CAO-ORDEM ECONOMICA E TRIBUTARIA-ASSESS TECN 0,00 0,00 8.810,89 7.514,02 2.936,96 0,00 0,00 2.105,00 21.366,87 1.753,90 2.517,04 0,00 0,00 4.270,94 17.095,93 31/12/2023
109 733200 ALINE APARECIDA DO PRADO TERRITO ASSESSOR ADMINISTRATIVO II BELO HORIZONTE - COMARCA; ESCRITORIO DE PROTECAO DE DADOS PESSOAIS 0,00 0,00 7.506,70 3.110,99 0,00 0,00 0,00 2.105,00 12.722,69 1.578,63 1.350,72 0,00 0,00 2.929,35 9.793,34 31/12/2023
110 622400 ALINE BALBINO PORTUGAL LOPES ANALISTA DO MP TRÊS PONTAS - COMARCA; TRES PONTAS-PJ-03PJ 12.343,61 1.234,36 0,00 2.945,10 4.525,99 0,00 0,00 3.055,00 24.104,06 1.953,42 3.556,44 0,00 0,00 5.509,86 18.594,20 31/12/2023
111 373000 ALINE BOTELHO RESENDE OFICIAL DO MP JUIZ DE FORA - COMARCA; JUIZ DE FORA-PJ-22PJ 12.343,61 3.703,08 0,00 3.045,83 5.348,90 0,00 0,00 2.105,00 26.546,42 2.348,42 4.353,01 0,00 0,00 6.701,43 19.844,99 31/12/2023
112 699800 ALINE CRISTINA DE OLIVEIRA AMARAL BARBOSA ASSESSOR PROCURADOR JUSTICA BELO HORIZONTE - COMARCA; GABINETE DE PROCURADOR DE JUSTIÇA - SALA 904 0,00 0,00 8.810,89 4.247,62 2.936,96 0,00 0,00 2.105,00 18.100,47 1.753,90 2.412,76 0,00 0,00 4.166,66 13.933,81 31/12/2023
113 407700 ALINE CRISTINA RODRIGUES PEREIRA COORDENADOR II BELO HORIZONTE - COMARCA; DIRETORIA DE PROJETOS DE EDIFICACOES 20.533,67 6.160,10 0,00 6.215,14 8.897,92 0,00 0,00 2.105,00 43.911,83 2.348,42 8.256,94 0,00 0,00 10.605,36 33.306,47 31/12/2023
114 193100 ALINE CRISTINA SENA OLIVEIRA OFICIAL DO MP UBERLÂNDIA - COMARCA; UBERLANDIA-PJ-03PJ 21.346,53 8.538,61 0,00 4.922,39 9.961,71 0,00 0,00 3.055,00 47.824,24 4.562,57 8.766,08 0,00 0,00 13.328,65 34.495,59 31/12/2023
115 554200 ALINE CRISTINA SILVA SOUZA OFICIAL DO MP TIROS - COMARCA; TIROS-PJ-UNPJ 7.506,70 1.501,34 0,00 3.264,84 3.002,68 0,00 540,48 2.105,00 17.921,04 1.308,71 2.081,87 0,00 0,00 3.390,58 14.530,46 31/12/2023
116 505500 ALINE DA CUNHA MARREIROS OLIVEIRA ANALISTA DO MP EUGENÓPOLIS - COMARCA; EUGENOPOLIS-PJ-UNPJ 12.343,61 2.468,72 0,00 2.710,45 4.937,44 0,00 0,00 4.005,00 26.465,22 2.150,92 3.902,59 0,00 0,00 6.053,51 20.411,71 31/12/2023
117 433500 ALINE DE MELO QUEIROZ OFICIAL DO MP BELO HORIZONTE - COMARCA; ASSESSORIA JURIDICA DO PROCON-MG 12.343,61 2.468,72 4.020,58 4.241,58 6.277,64 0,00 0,00 3.055,00 32.407,13 2.150,92 5.428,94 0,00 0,00 7.579,86 24.827,27 31/12/2023
118 691100 ALINE DE MELO SOUZA ASSESSOR PROCURADOR JUSTICA BELO HORIZONTE - COMARCA; GABINETE DE PROCURADOR DE JUSTIÇA - SALA 401 0,00 0,00 8.810,89 7.514,02 2.936,96 0,00 0,00 2.105,00 21.366,87 1.753,90 2.517,04 0,00 0,00 4.270,94 17.095,93 31/12/2023
119 542700 ALINE DE SOUSA ALBINO ANALISTA DO MP CONTAGEM - COMARCA; CONTAGEM-PJ-09PJ 12.343,61 2.468,72 0,00 2.658,31 4.937,44 0,00 0,00 2.105,00 24.513,08 2.150,92 3.954,72 0,00 0,00 6.105,64 18.407,44 31/12/2023
120 330000 ALINE DIORIO MAYRINK OFICIAL DO MP BELO HORIZONTE - COMARCA; SUPER DE GESTAO DE PESSOAS-LOTACAO TEMPORARIA 10.015,59 2.003,12 0,00 2.353,81 4.006,24 0,00 0,00 2.105,00 20.483,76 1.703,94 3.053,32 0,00 0,00 4.757,26 15.726,50 31/12/2023
121 499000 ALINE FERREIRA LOPES ANALISTA DO MP TEÓFILO OTONI - COMARCA; TEOFILO OTONI-PJ-09PJ 12.343,61 2.468,72 0,00 2.710,45 4.937,44 0,00 0,00 2.105,00 24.565,22 2.150,92 3.902,59 0,00 0,00 6.053,51 18.511,71 31/12/2023
122 405300 ALINE LAIA CARDOZO SUPERINTENDENTE BELO HORIZONTE - COMARCA; SUPERINTENDENCIA LOGISTICA SERVICOS 28.013,39 8.404,02 0,00 7.541,88 12.139,14 0,00 0,00 2.105,00 58.203,43 4.051,95 11.353,81 0,00 0,00 15.405,76 42.797,67 31/12/2023
123 278200 ALINE MARCIA FARIA BARBOSA FERNANDES OFICIAL DO MP BARBACENA - COMARCA; BARBACENA-PJ-SECRETARIA 10.516,49 4.206,60 0,00 5.700,74 4.907,70 0,00 0,00 2.105,00 27.436,53 2.136,64 3.821,66 0,00 0,00 5.958,30 21.478,23 31/12/2023
124 389000 ALINE NERI NOBRE ANALISTA DO MP MONTES CLAROS - COMARCA; COORD REG PJ DEF EDUC DIR CRIANCA ADOL NORTE 20.533,67 8.213,47 0,00 5.446,19 9.582,38 0,00 1.724,83 2.105,00 47.605,54 4.656,46 8.451,02 0,00 0,00 13.107,48 34.498,06 31/12/2023
125 294600 ALINE PATRICIA SILVA VIEIRA OFICIAL DO MP UBERLÂNDIA - COMARCA; UBERLANDIA-PJ-03PJ 15.447,01 4.634,10 0,00 4.156,34 7.284,26 0,00 1.771,66 2.105,00 35.398,37 2.993,93 6.095,84 0,00 0,00 9.089,77 26.308,60 31/12/2023
126 420000 ALINE RODRIGUES CAMOROPIN ANALISTA DO MP SABARÁ - COMARCA; SABARA-PJ-02PJ 18.720,84 5.616,25 0,00 5.718,58 8.112,36 0,00 1.872,08 2.105,00 42.145,11 4.273,94 7.028,05 0,00 0,00 11.301,99 30.843,12 31/12/2023
127 715800 ALINE SANTOS PEDROSA MAIA BARBOSA ASSESSOR PROCURADOR JUSTICA BELO HORIZONTE - COMARCA; GABINETE DE PROCURADOR DE JUSTIÇA - SALA 1010 0,00 0,00 8.810,89 4.195,49 2.936,96 0,00 0,00 2.105,00 18.048,34 1.753,90 2.517,04 0,00 0,00 4.270,94 13.777,40 31/12/2023
128 699600 ALINE SEPULVEDA ROSA PIRES ASSESSOR PROCURADOR JUSTICA BELO HORIZONTE - COMARCA; GABINETE DE PROCURADOR DE JUSTIÇA - SALA 905 0,00 0,00 8.810,89 3.108,57 2.936,96 0,00 484,60 7.391,53 22.732,55 1.753,90 2.517,04 0,00 0,00 4.270,94 18.461,61 31/12/2023
129 408300 ALINE SILVA ARAUJO DE PAULA ANALISTA DO MP SÃO SEBASTIÃO DO PARAÍSO - COMARCA; SAO SEBASTIAO DO PARAISO-PJ-02PJ 18.720,84 5.616,25 0,00 7.100,81 8.112,36 0,00 0,00 2.105,00 41.655,26 982,16 7.606,56 0,00 0,00 8.588,72 33.066,54 31/12/2023
130 734300 ALINE TAVARES GURGEL ASSESSOR ADMINISTRATIVO III BELO HORIZONTE - COMARCA; SECRETARIA-GERAL 0,00 0,00 10.858,90 4.315,92 0,00 0,00 0,00 2.105,00 17.279,82 1.753,90 2.272,58 0,00 0,00 4.026,48 13.253,34 31/12/2023
131 425400 ALINE TRINDADE DE FREITAS CAMPOS OFICIAL DO MP BELO HORIZONTE - COMARCA; PROMOT ESTADUAL DE DEF PATRI CULT E TUR DE MG 12.343,61 2.468,72 0,00 10.064,48 4.937,44 0,00 0,00 2.105,00 31.919,25 2.150,92 3.954,72 0,00 0,00 6.105,64 25.813,61 31/12/2023
132 753900 ALINI PEREIRA DE ALMEIDA ASSESSOR PROMOTOR JUSTICA CAMPOS GERAIS - COMARCA; CAMPOS GERAIS-PJ-01PJ 0,00 0,00 8.810,89 2.914,69 0,00 0,00 0,00 2.105,00 13.830,58 1.132,44 1.709,37 0,00 0,00 2.841,81 10.988,77 31/12/2023
133 517200 ALISSOM PEREIRA DA SILVA ANALISTA DO MP BORDA DA MATA - COMARCA; BORDA DA MATA-PJ-UNPJ 12.343,61 3.703,08 0,00 3.410,04 5.348,90 0,00 0,00 3.055,00 27.860,63 2.348,42 4.353,01 0,00 0,00 6.701,43 21.159,20 31/12/2023
134 442400 ALISSON LABRE ANALISTA DO MP VARGINHA - COMARCA; VARGINHA-PJ-03PJ 13.588,97 2.717,79 0,00 4.098,95 5.435,59 0,00 0,00 2.105,00 27.946,30 982,16 4.824,09 0,00 0,00 5.806,25 22.140,05 31/12/2023
135 643800 ALLAN PAUL FONSECA DE CASTRO OFICIAL DO MP CONTAGEM - COMARCA; CONTAGEM-PJ-SECRETARIA 7.270,07 727,01 2.918,39 2.995,34 3.638,49 0,00 654,93 3.055,00 21.259,23 1.073,85 2.847,29 0,00 0,00 3.921,14 17.338,09 31/12/2023
136 612900 ALLAN VINICIUS VIEIRA ARAUJO COORDENADOR II BELO HORIZONTE - COMARCA; DIRETORIA DE GESTAO DOCUMENTAL 20.533,67 2.053,37 0,00 5.168,00 7.529,01 0,00 0,00 2.105,00 37.389,05 1.102,13 7.093,87 0,00 0,00 8.196,00 29.193,05 31/12/2023
137 349000 ALLEC RODRIGUES VIEIRA OFICIAL DO MP CAPINÓPOLIS - COMARCA; CAO-CIVEL 12.343,61 3.703,08 0,00 2.792,86 5.348,90 0,00 0,00 2.105,00 26.293,45 2.348,42 4.353,01 0,00 0,00 6.701,43 19.592,02 31/12/2023
138 297300 ALLYSON SALIBA MONTEIRO LAIZO ANALISTA DO MP CONSELHEIRO LAFAIETE - COMARCA; CONSELHEIRO LAFAIETE-PJ-03PJ 23.070,31 6.921,09 0,00 4.312,84 9.997,13 0,00 0,00 3.055,00 47.356,37 4.579,57 8.852,50 0,00 0,00 13.432,07 33.924,30 31/12/2023
139 303700 ALMIR LOPES LOURES ANALISTA DO MP BELO HORIZONTE - COMARCA; CENTRAL DE APOIO TECN-SETOR DE MEIO AMBIENTE 23.070,31 6.921,09 0,00 4.312,84 9.997,13 0,00 0,00 2.105,00 46.406,37 4.579,57 8.852,50 0,00 0,00 13.432,07 32.974,30 31/12/2023
140 743900 ALMIR MOREIRA DOS SANTOS ANALISTA DO MP BELO HORIZONTE - COMARCA; DIRETORIA DE ADMINISTRACAO FINANCEIRA 7.040,78 0,00 0,00 3.065,41 0,00 0,00 0,00 2.105,00 12.211,19 909,81 696,78 0,00 0,00 1.606,59 10.604,60 31/12/2023
141 696600 ALOIZIO MARTINS JALES JUNIOR ASSESSOR PROMOTOR JUSTICA CAMPESTRE - COMARCA; CAMPESTRE-PJ-SECRETARIA 0,00 0,00 8.810,89 4.195,49 2.936,96 0,00 528,65 2.105,00 18.576,99 1.753,90 2.517,04 0,00 0,00 4.270,94 14.306,05 31/12/2023
142 515900 ALTAIR NEVES JUNIOR OFICIAL DO MP BELO HORIZONTE - COMARCA; BH-01PJ FAZENDA PUBLICA-SECRETARIA 10.516,49 2.103,30 0,00 8.729,23 4.206,60 0,00 0,00 2.105,00 27.660,62 1.800,11 3.247,27 0,00 0,00 5.047,38 22.613,24 31/12/2023
143 233300 ALVARINDO BATISTA ANALISTA DO MP BELO HORIZONTE - COMARCA; DIR CRIACAO E MIDIAS 23.070,31 9.228,12 0,00 4.616,43 10.766,14 0,00 0,00 3.055,00 50.736,00 4.948,70 9.544,77 0,00 0,00 14.493,47 36.242,53 31/12/2023
144 750400 ALVARO HENRIQUE FERREIRA DA SILVA OFICIAL DO MP COMARCA - JUATUBA; JUATUBA-PJ-UNPJ 4.570,25 0,00 0,00 1.016,88 0,00 0,00 0,00 2.105,00 7.692,13 572,34 247,80 0,00 0,00 820,14 6.871,99 31/12/2023
145 274100 ALYSSON CARVALHO VIDAL DE LACERDA OFICIAL DO MP MANHUAÇU - COMARCA; MANHUACU-PJ-01PJ 12.343,61 4.937,44 0,00 11.567,93 5.760,35 0,00 0,00 2.105,00 36.714,33 2.545,92 4.751,30 0,00 0,00 7.297,22 29.417,11 31/12/2023
146 621000 AMANDA BASTOS ALVES ANALISTA DO MP BELO HORIZONTE - COMARCA; BH-07PJ 02 TRIBUNAL DO JURI-GAB 066PJ 12.343,61 1.234,36 0,00 3.774,47 4.525,99 0,00 0,00 2.105,00 23.983,43 982,16 3.698,33 0,00 0,00 4.680,49 19.302,94 31/12/2023
147 521700 AMANDA CRISTINA AGUIAR MACHADO OFICIAL DO MP CONGONHAS - COMARCA; CONGONHAS-PJ-01PJ 7.506,70 1.501,34 0,00 2.077,79 3.002,68 0,00 0,00 2.105,00 16.193,51 1.222,23 2.029,74 0,00 0,00 3.251,97 12.941,54 31/12/2023
148 733500 AMANDA CRISTINA GONCALVES ASSESSOR ADMINISTRATIVO I PARACATU - COMARCA; COORD REG AP COM INCL MOB SOCIAIS NOROESTE MG 0,00 0,00 4.872,71 3.901,10 0,00 0,00 0,00 2.105,00 10.878,81 1.112,47 670,06 0,00 0,00 1.782,53 9.096,28 31/12/2023
149 713900 AMANDA DE ARAUJO CARVALHO ASSESSOR PROMOTOR JUSTICA ARAÇUAÍ - COMARCA; ARACUAI-PJ-01PJ 0,00 0,00 8.810,89 3.108,57 2.936,96 0,00 0,00 2.105,00 16.961,42 1.753,90 2.517,04 0,00 0,00 4.270,94 12.690,48 31/12/2023
150 613400 AMANDA DE ASSIS IUNES SANTOS ANALISTA DO MP CONGONHAS - COMARCA; CONGONHAS-PJ-01PJ 12.343,61 1.234,36 0,00 2.945,10 4.525,99 0,00 0,00 2.105,00 23.154,06 1.953,42 3.556,44 0,00 0,00 5.509,86 17.644,20 31/12/2023
151 695900 AMANDA DE OLIVEIRA ASSESSOR PROCURADOR JUSTICA BELO HORIZONTE - COMARCA; PROC JUST ATUACAO TRIBUNAIS SUPERIORES-GAB004 0,00 0,00 8.810,89 7.514,02 2.936,96 0,00 0,00 2.105,00 21.366,87 1.753,90 2.517,04 0,00 0,00 4.270,94 17.095,93 31/12/2023
152 520800 AMANDA DE SOUZA MACHADO ANALISTA DO MP BAEPENDI - COMARCA; BAEPENDI-PJ-UNPJ 12.343,61 2.468,72 0,00 2.762,59 4.937,44 0,00 0,00 2.105,00 24.617,36 2.150,92 3.850,45 0,00 0,00 6.001,37 18.615,99 31/12/2023
153 663900 AMANDA DENISE GONCALVES DA SILVA ASSESSOR ADMINISTRATIVO I BELO HORIZONTE - COMARCA; SECRETARIA DO PROCON-MG 0,00 0,00 4.872,71 2.110,52 1.624,24 0,00 0,00 2.105,00 10.712,47 1.226,16 1.116,73 0,00 0,00 2.342,89 8.369,58 31/12/2023
154 754800 AMANDA MAGALHAES DE CARVALHO E SILVA ASSESSOR PROCURADOR JUSTICA BELO HORIZONTE - COMARCA; GABINETE DE PROCURADOR DE JUSTIÇA - SALA 1008 0,00 0,00 8.810,89 2.202,72 0,00 0,00 0,00 2.105,00 13.118,61 1.055,39 1.709,37 0,00 0,00 2.764,76 10.353,85 31/12/2023
155 543100 AMANDA VIEIRA FREITAS ANALISTA DO MP VARGINHA - COMARCA; COORD REG DEF ORDEM ECON TRIB VARGINHA 12.343,61 2.468,72 0,00 5.084,38 4.937,44 0,00 0,00 2.105,00 26.939,15 2.150,92 3.902,59 0,00 0,00 6.053,51 20.885,64 31/12/2023
156 434400 AMARILIS ASSIS SIMAO CURCIO ANALISTA DO MP BELO HORIZONTE - COMARCA; DIRETORIA GESTAO COMPRAS LICITACOES 12.343,61 3.703,08 0,00 3.410,04 5.348,90 0,00 0,00 2.105,00 26.910,63 2.348,42 4.353,01 0,00 0,00 6.701,43 20.209,20 31/12/2023
157 652000 AMAURI SILVA ALVES ASSESSOR ADMINISTRATIVO III BELO HORIZONTE - COMARCA; DIRETORIA GESTAO COMPRAS LICITACOES 10.858,90 1.085,89 0,00 8.860,22 3.981,60 0,00 332,69 2.105,00 27.224,30 944,43 3.235,08 0,00 0,00 4.179,51 23.044,79 31/12/2023
158 58000 AMELIA GUARIZE DE CASTRO OFICIAL DO MP JUIZ DE FORA - COMARCA; JUIZ DE FORA-PJ-SECRETARIA 8.264,07 9.090,49 0,00 4.789,74 6.637,41 2.557,68 0,00 2.105,00 33.444,39 2.557,68 5.712,83 0,00 0,00 8.270,51 25.173,88 31/12/2023
159 324301 AMERICA SUELI FERREIRA DA SILVA ANALISTA DO MP UBERLÂNDIA - COMARCA; UBERLANDIA-PJ-02PJ 12.343,61 3.703,08 0,00 3.462,17 5.348,90 0,00 0,00 2.105,00 26.962,76 2.348,42 4.300,87 0,00 0,00 6.649,29 20.313,47 31/12/2023
160 273300 AMUJACY DE BRITO ASSIZ OFICIAL DO MP BELO HORIZONTE - COMARCA; BH-12PJ JUIZO CRIMINAL-SECRETARIA 12.343,61 4.937,44 0,00 3.753,13 5.760,35 0,00 0,00 2.105,00 28.899,53 2.545,92 4.542,75 0,00 0,00 7.088,67 21.810,86 31/12/2023
161 482200 ANA ALICE LOPES ACHTSCHIN ANALISTA DO MP BELO HORIZONTE - COMARCA; PROC JUST ATUACAO TRIBUNAIS SUPERIORES-GAB005 15.447,01 3.089,40 0,00 3.356,45 6.178,80 0,00 0,00 2.105,00 30.176,66 2.746,77 5.156,36 0,00 0,00 7.903,13 22.273,53 31/12/2023
162 490400 ANA AMELIA PAULINO GARCIA OFICIAL DO MP CONTAGEM - COMARCA; CONTAGEM-PJ-SECRETARIA 10.858,90 2.171,78 0,00 4.640,91 4.343,56 0,00 0,00 3.055,00 25.070,15 1.865,86 3.327,71 0,00 0,00 5.193,57 19.876,58 31/12/2023
163 714900 ANA BEATRIZ LOBATO ALVES DE CARVALHO ASSESSOR PROCURADOR JUSTICA BELO HORIZONTE - COMARCA; GABINETE DE PROCURADOR DE JUSTIÇA - SALA 414 0,00 3.524,36 8.810,89 3.901,55 4.111,75 0,00 0,00 2.105,00 22.453,55 1.753,90 3.809,30 0,00 0,00 5.563,20 16.890,35 31/12/2023
164 279100 ANA CAROLINA ARAUJO PEREIRA ANALISTA DO MP BELO HORIZONTE - COMARCA; DIRETORIA DE PROJETOS DE EDIFICACOES 23.070,31 9.228,12 0,00 11.085,32 10.766,14 0,00 0,00 2.105,00 56.254,89 4.948,70 9.544,77 0,00 0,00 14.493,47 41.761,42 31/12/2023
165 653300 ANA CAROLINA CYRNE DINIZ ASSESSOR ADMINISTRATIVO III BELO HORIZONTE - COMARCA; CENTRAL DE APOIO TECNICO-SETOR CONTABIL 0,00 0,00 10.858,90 3.569,37 3.619,63 0,00 0,00 2.105,00 20.152,90 1.753,90 3.267,97 0,00 0,00 5.021,87 15.131,03 31/12/2023
166 359400 ANA CAROLINA DE ABREU FARIA ASSESSOR ADMINISTRATIVO IV BELO HORIZONTE - COMARCA; SUPERINTENDÊNCIA DE ENGENHARIA E ARQUITETURA 0,00 0,00 14.488,22 4.438,11 4.829,41 0,00 0,00 3.055,00 26.810,74 1.753,90 4.546,59 0,00 0,00 6.300,49 20.510,25 31/12/2023
167 408500 ANA CAROLINA DE CASTRO CARVALHO ANALISTA DO MP BARBACENA - COMARCA; BARBACENA - SECRETARIA DAS PJS CRIMINAIS 18.720,84 5.616,25 0,00 4.986,60 8.112,36 0,00 0,00 3.055,00 40.491,05 3.674,88 7.028,05 0,00 0,00 10.702,93 29.788,12 31/12/2023
168 688000 ANA CAROLINA DE OLIVEIRA PINTO ASSESSOR PROCURADOR JUSTICA BELO HORIZONTE - COMARCA; GABINETE DE PROCURADOR DE JUSTIÇA - SALA 1011 0,00 0,00 8.810,89 3.108,57 2.936,96 0,00 0,00 2.105,00 16.961,42 1.753,90 2.517,04 0,00 0,00 4.270,94 12.690,48 31/12/2023
169 420200 ANA CAROLINA FERNANDES SILVA ANALISTA DO MP BELO HORIZONTE - COMARCA; GABINETE DE PROCURADOR DE JUSTIÇA - SALA 704 18.130,77 5.439,23 0,00 5.571,40 8.461,03 0,00 1.899,50 4.063,12 43.565,05 4.132,33 6.780,53 0,00 0,00 10.912,86 32.652,19 31/12/2023
170 522100 ANA CAROLINA FERNANDINO VIDAL PEREIRA SANTOS OFICIAL DO MP BELO HORIZONTE - COMARCA; CAO-CRIANCAS E ADOLESCENTES-SECRETARIA 10.516,49 2.103,30 0,00 9.427,68 4.206,60 0,00 0,00 2.105,00 28.359,07 982,16 3.366,76 0,00 0,00 4.348,92 24.010,15 31/12/2023
171 716001 ANA CAROLINA FIGUEIREDO SILVA ASSESSOR ADMINISTRATIVO II BELO HORIZONTE - COMARCA; PROC JUST ATUACAO TRIBUNAIS SUPERIORES-GAB003 0,00 0,00 7.506,70 3.639,95 2.502,23 0,00 0,00 2.105,00 15.753,88 1.230,40 2.038,83 0,00 0,00 3.269,23 12.484,65 31/12/2023
172 502400 ANA CAROLINA GONCALVES FERNANDES ANALISTA DO MP IPATINGA - COMARCA; IPATINGA-PJ-01PJ 12.343,61 2.468,72 0,00 5.115,49 4.937,44 0,00 0,00 4.005,00 28.870,26 491,08 4.125,47 0,00 0,00 4.616,55 24.253,71 31/12/2023
173 529900 ANA CAROLINA GONCALVES PECANHA CHEQUER ANALISTA DO MP MANHUAÇU - COMARCA; MANHUACU-PJ-04PJ 12.343,61 2.468,72 0,00 5.032,24 4.937,44 0,00 0,00 4.005,00 28.787,01 2.150,92 3.954,72 0,00 0,00 6.105,64 22.681,37 31/12/2023
174 431900 ANA CAROLINA MOTTA GUATIMOSIM ANALISTA DO MP BELO HORIZONTE - COMARCA; ASSESSORIA JURIDICO-ADMINISTRATIVA 18.130,77 3.626,15 0,00 3.758,32 7.252,31 0,00 0,00 3.055,00 35.822,55 3.262,06 6.195,51 0,00 0,00 9.457,57 26.364,98 31/12/2023
175 490600 ANA CAROLINA XAVIER GODOY ANALISTA DO MP BELO HORIZONTE - COMARCA; BH-18PJ VIOLENCIA DOMESTICA-GAB 007PJ 12.343,61 2.468,72 0,00 5.084,38 4.937,44 0,00 0,00 4.005,00 28.839,15 2.150,92 3.850,45 0,00 0,00 6.001,37 22.837,78 31/12/2023
176 600300 ANA CAROLINE PEREIRA DINIZ ANALISTA DO MP BELO HORIZONTE - COMARCA; PROC JUST ESP ACOES COMP ORIG CRIMINAL-SEC 12.343,61 2.468,72 0,00 3.275,49 4.937,44 0,00 0,00 3.055,00 26.080,26 2.150,92 3.954,72 0,00 0,00 6.105,64 19.974,62 31/12/2023
177 615800 ANA CAROLINE PEREIRA OLIVEIRA OFICIAL DO MP ALFENAS - COMARCA; ALFENAS-PJ-06PJ 7.506,70 750,67 0,00 1.943,82 2.752,46 0,00 0,00 2.105,00 15.058,65 1.102,13 1.839,66 0,00 0,00 2.941,79 12.116,86 31/12/2023
178 324800 ANA CECILIA MENDES DA SILVA OFICIAL DO MP OURO FINO - COMARCA; OURO FINO-PJ-01PJ 12.343,61 4.937,44 0,00 2.979,54 5.760,35 0,00 0,00 2.105,00 28.125,94 2.545,92 4.699,16 0,00 0,00 7.245,08 20.880,86 31/12/2023
179 736000 ANA CLARA FERREIRA AMARAL ASSESSOR ADMINISTRATIVO I BELO HORIZONTE - COMARCA; PROCURADOR-GERAL DE JUSTICA- GABINETE 0,00 0,00 4.872,71 2.390,71 0,00 0,00 0,00 2.105,00 9.368,42 1.010,95 670,06 0,00 0,00 1.681,01 7.687,41 31/12/2023
180 704100 ANA CLARA MARTINS ALBUQUERQUE ASSESSOR DE CAO BELO HORIZONTE - COMARCA; CAO-CRIANCAS E ADOLESCENTES-ASS TECNICA 0,00 0,00 7.506,70 4.132,09 2.502,23 0,00 0,00 2.105,00 16.246,02 1.753,79 2.038,83 0,00 0,00 3.792,62 12.453,40 31/12/2023
181 698700 ANA CLARA SANTOS ALMEIDA ASSESSOR PROMOTOR JUSTICA SABINÓPOLIS - COMARCA; SABINOPOLIS-PJ-UNPJ 0,00 0,00 8.810,89 3.108,57 2.936,96 0,00 0,00 2.105,00 16.961,42 1.753,90 2.517,04 0,00 0,00 4.270,94 12.690,48 31/12/2023
182 756400 ANA CLARA SOARES PEREIRA BARBOSA ASSESSOR PROMOTOR JUSTICA CARMO DO PARANAÍBA - COMARCA; CARMO DO PARANAIBA-PJ-01PJ 0,00 0,00 8.810,89 2.202,72 0,00 0,00 0,00 2.105,00 13.118,61 1.055,39 1.709,37 0,00 0,00 2.764,76 10.353,85 31/12/2023
183 441300 ANA CLAUDIA ALKIMIM MIRANDA BOMTEMPO ANALISTA DO MP MONTES CLAROS - COMARCA; MONTES CLAROS-PJ-11PJ 18.130,77 3.626,15 0,00 3.862,60 7.252,31 0,00 0,00 2.105,00 34.976,83 3.262,06 6.091,24 0,00 0,00 9.353,30 25.623,53 31/12/2023
184 642500 ANA CLAUDIA DA COSTA NAVES OFICIAL DO MP MONTE CARMELO - COMARCA; MONTE CARMELO-PJ-02PJ 6.603,76 660,38 0,00 2.112,96 2.421,38 0,00 0,00 3.146,98 14.945,46 944,43 1.518,84 0,00 0,00 2.463,27 12.482,19 31/12/2023
185 604900 ANA CLAUDIA OLIVEIRA DE MIRANDA OFICIAL DO MP PONTE NOVA - COMARCA; PONTE NOVA-PJ-04PJ 7.506,70 750,67 0,00 1.995,96 2.752,46 0,00 0,00 2.105,00 15.110,79 1.102,13 1.787,52 0,00 0,00 2.889,65 12.221,14 31/12/2023
186 379300 ANA CRISTINA ALVES FLAVIO ANALISTA DO MP SÃO GOTARDO - COMARCA; SAO GOTARDO-PJ-01PJ 20.533,67 6.160,10 0,00 5.183,87 8.897,92 0,00 293,63 6.258,25 47.327,44 4.051,95 7.736,33 0,00 0,00 11.788,28 35.539,16 31/12/2023
187 461200 ANA CRISTINA ALVES PASCHOAL ANALISTA DO MP BELO HORIZONTE - COMARCA; BH-07PJ 03 TRIBUNAL DO JURI-GAB 064PJ 12.343,61 2.468,72 0,00 2.710,45 4.937,44 0,00 0,00 2.105,00 24.565,22 2.150,92 3.902,59 0,00 0,00 6.053,51 18.511,71 31/12/2023
188 514100 ANA CRISTINA ARAUJO ASSUNCAO ANALISTA DO MP BELO HORIZONTE - COMARCA; ASSESS JUR DO CONS SUPERIOR DO MINISTERIO PUB 12.343,61 3.184,65 0,00 10.552,62 5.176,09 0,00 0,00 3.055,00 34.311,97 2.265,47 4.133,59 0,00 0,00 6.399,06 27.912,91 31/12/2023
189 113401 ANA CRISTINA BRAGA ALBUQUERQUE ASSESSOR ADM. ESPECIAL BELO HORIZONTE - COMARCA; DIRETORIA-GERAL 0,00 0,00 28.013,39 7.429,13 9.337,80 0,00 0,00 1.500,00 46.280,32 1.753,90 9.557,96 0,00 0,00 11.311,86 34.968,46 31/12/2023
190 233800 ANA CRISTINA BRAGA SOARES OFICIAL DO MP BELO HORIZONTE - COMARCA; DIRETORIA DE CONTABILIDADE 15.447,01 6.178,80 0,00 3.846,16 7.208,60 0,00 0,00 2.105,00 34.785,57 3.241,08 6.048,93 0,00 0,00 9.290,01 25.495,56 31/12/2023
191 186400 ANA CRISTINA DE AZEVEDO LOPES OFICIAL DO MP UBÁ - COMARCA; UBA-PJ-01PJ 21.346,53 8.538,61 0,00 9.968,44 9.961,71 0,00 0,00 2.105,00 51.920,29 4.562,57 8.818,22 0,00 0,00 13.380,79 38.539,50 31/12/2023
192 465100 ANA CRISTINA DE OLIVEIRA GUIMARAES ANALISTA DO MP ITAJUBA - COMARCA; ITAJUBA-PJ-05PJ 12.343,61 2.468,72 0,00 2.762,59 4.937,44 0,00 0,00 3.055,00 25.567,36 2.150,92 3.850,45 0,00 0,00 6.001,37 19.565,99 31/12/2023
193 500600 ANA CRISTINA LATADO SUDARIO ANALISTA DO MP UBERLÂNDIA - COMARCA; UBERLANDIA-PJ-09PJ 12.343,61 2.468,72 0,00 2.658,31 4.937,44 0,00 0,00 2.105,00 24.513,08 2.150,92 3.954,72 0,00 0,00 6.105,64 18.407,44 31/12/2023
194 331400 ANA CRISTINA RIBEIRO ALVES OFICIAL DO MP BAMBUÍ - COMARCA; BAMBUI-PJ-UNPJ 12.343,61 3.703,08 0,00 2.844,99 5.348,90 0,00 0,00 2.105,00 26.345,58 2.348,42 4.300,87 0,00 0,00 6.649,29 19.696,29 31/12/2023
195 249300 ANA ELOINA MARTINS OFICIAL DO MP BETIM - COMARCA; BETIM-PJ-02PJ 18.130,77 9.065,39 0,00 9.064,28 9.065,39 0,00 0,00 2.105,00 47.430,83 4.132,33 7.950,58 0,00 0,00 12.082,91 35.347,92 31/12/2023
196 257400 ANA FLAVIA CAMBRAIA ANALISTA DO MP BELO HORIZONTE - COMARCA; BH-19PJ SAUDE-SECRETARIA 150PJ 23.070,31 9.228,12 0,00 8.204,24 12.415,71 4.948,70 136,58 3.594,89 61.598,55 4.948,70 11.359,29 0,00 0,00 16.307,99 45.290,56 31/12/2023
197 248201 ANA FLAVIA DE MORAIS SOUZA ANALISTA DO MP DIVINÓPOLIS - COMARCA; DIVINOPOLIS-PJ-01PJ 15.447,01 6.178,80 0,00 3.846,16 7.208,60 0,00 0,00 3.055,00 35.735,57 3.241,08 6.048,93 0,00 0,00 9.290,01 26.445,56 31/12/2023
198 621100 ANA FLAVIA DINIZ TEODORO OFICIAL DO MP SANTA LUZIA - COMARCA; SANTA LUZIA-PJ-06PJ 7.506,70 750,67 0,00 6.072,51 2.752,46 0,00 0,00 2.105,00 19.187,34 1.102,13 1.839,66 0,00 0,00 2.941,79 16.245,55 31/12/2023
199 238600 ANA FLAVIA FRANCO OFICIAL DO MP BELO HORIZONTE - COMARCA; DIRETORIA DE PESSOAL ADMINISTRATIVO - DPAD 18.720,84 7.488,34 0,00 8.754,13 8.736,39 0,00 0,00 2.105,00 45.804,70 3.974,42 7.632,11 0,00 0,00 11.606,53 34.198,17 31/12/2023
200 402900 ANA FLAVIA PORTES DE CARVALHO ANALISTA DO MP BELO HORIZONTE - COMARCA; DIRET DE PLANOS PROJETOS E PROGRAMAS INST 20.533,67 6.160,10 0,00 6.119,91 8.897,92 0,00 0,00 2.105,00 43.816,60 4.051,95 7.736,33 0,00 0,00 11.788,28 32.028,32 31/12/2023
201 752300 ANA JUSSARA DA SILVA BIANCHETTI OFICIAL DO MP ALTO RIO DOCE - COMARCA; ALTO RIO DOCE-PJ-UNPJ 4.570,25 0,00 0,00 1.016,88 0,00 0,00 0,00 2.105,00 7.692,13 572,34 247,80 0,00 0,00 820,14 6.871,99 31/12/2023
202 382700 ANA KARENINA SALDANHA GONTIJO ANALISTA DO MP BELO HORIZONTE - COMARCA; ASSESS TECNICO-JUR JUNTO AS PROC. DE JUST 19.751,60 5.925,48 0,00 4.331,49 8.559,03 0,00 0,00 2.105,00 40.672,60 3.889,28 7.460,42 0,00 0,00 11.349,70 29.322,90 31/12/2023
203 620500 ANA KARINE DE ANDRADE OLIVEIRA ANALISTA DO MP RIBEIRÃO DAS NEVES - COMARCA; RIBEIRAO NEVES-SEC PJ EXECUCAO PENAL 11.577,56 1.157,76 0,00 3.015,51 4.245,11 0,00 0,00 2.105,00 22.100,94 1.818,60 3.284,54 0,00 0,00 5.103,14 16.997,80 31/12/2023
204 462200 ANA LUCIA ANDRADE TOMICH OTTONI ANALISTA DO MP TEÓFILO OTONI - COMARCA; TEOFILO OTONI-PJ-07PJ 12.343,61 2.468,72 0,00 2.762,59 4.937,44 0,00 0,00 3.055,00 25.567,36 2.150,92 3.850,45 0,00 0,00 6.001,37 19.565,99 31/12/2023
205 504100 ANA LUCIA CATAO DE CARVALHO OFICIAL DO MP BELO HORIZONTE - COMARCA; DIR RELACOES INSTITUCIONAIS 10.858,90 2.171,78 4.020,58 3.626,32 5.683,75 0,00 0,00 2.105,00 28.466,33 1.865,86 4.801,92 0,00 0,00 6.667,78 21.798,55 31/12/2023
206 274700 ANA LUCIA DE ALENCAR BRAGATO OFICIAL DO MP UBERABA - COMARCA; UBERABA-PJ-07PJ 12.343,61 4.937,44 0,00 6.159,82 5.760,35 0,00 0,00 2.105,00 31.306,22 2.545,92 4.751,30 0,00 0,00 7.297,22 24.009,00 31/12/2023
207 509400 ANA LUCIA DORNELAS MALLOSTO ANALISTA DO MP JUIZ DE FORA - COMARCA; JUIZ DE FORA-PJ-25PJ 12.343,61 2.468,72 0,00 2.710,45 4.937,44 0,00 0,00 2.105,00 24.565,22 2.150,92 3.902,59 0,00 0,00 6.053,51 18.511,71 31/12/2023
208 302600 ANA LUCIA LOPES SANTOS OFICIAL DO MP BELO HORIZONTE - COMARCA; DIVISÃO DE FISCALIZAÇÃO DAS RELAÇÕES DE CONSU 12.343,61 3.703,08 0,00 3.243,62 5.939,45 0,00 1.771,66 2.105,00 29.106,42 2.348,42 4.950,48 0,00 0,00 7.298,90 21.807,52 31/12/2023
209 716700 ANA LUISA DE LANA COELHO ASSESSOR PROCURADOR JUSTICA BELO HORIZONTE - COMARCA; GABINETE DE PROCURADOR DE JUSTIÇA - SALA 612 0,00 0,00 8.810,89 3.108,57 2.936,96 0,00 0,00 2.105,00 16.961,42 1.753,90 2.517,04 0,00 0,00 4.270,94 12.690,48 31/12/2023
210 702000 ANA LUISA DE OLIVEIRA RIBEIRO ASSESSOR PROCURADOR JUSTICA BELO HORIZONTE - COMARCA; ASSESS TECNICO-JUR JUNTO AS PROC. DE JUST 0,00 0,00 8.810,89 3.108,57 2.936,96 0,00 0,00 2.105,00 16.961,42 1.753,90 2.517,04 0,00 0,00 4.270,94 12.690,48 31/12/2023
211 493400 ANA LUISA NOGUEIRA MOREIRA ANALISTA DO MP BELO HORIZONTE - COMARCA; BH-19PJ SAUDE-SECRETARIA 130PJ 12.343,61 2.468,72 0,00 2.658,31 4.937,44 0,00 0,00 2.105,00 24.513,08 2.150,92 3.954,72 0,00 0,00 6.105,64 18.407,44 31/12/2023
212 389300 ANA LUISA REUTER LIMA ANALISTA DO MP BELO HORIZONTE - COMARCA; DIRETORIA DE SISTEMAS DE INFORMACAO 20.533,67 6.160,10 5.538,92 21.316,00 10.744,23 0,00 0,00 2.105,00 66.397,92 4.051,95 9.819,41 0,00 0,00 13.871,36 52.526,56 31/12/2023
213 480600 ANA LUIZA FERNANDES FRAGA E GRECO COORDENADOR I BELO HORIZONTE - COMARCA; OUVIDORIA DO MPMG 16.469,17 3.293,83 0,00 4.026,56 6.587,67 0,00 0,00 2.105,00 32.482,23 1.800,11 5.866,44 0,00 0,00 7.666,55 24.815,68 31/12/2023
214 726800 ANA LUIZA GOMES PEREIRA ASSESSOR ADMINISTRATIVO I BELO HORIZONTE - COMARCA; OUVIDORIA DO MPMG 0,00 0,00 4.872,71 2.110,52 1.624,24 0,00 0,00 2.105,00 10.712,47 1.226,16 1.116,73 0,00 0,00 2.342,89 8.369,58 31/12/2023
215 733600 ANA LUIZA MACHADO RODRIGUES ASSESSOR PROMOTOR JUSTICA CARMO DA MATA - COMARCA; CARMO DA MATA-PJ-UNPJ 0,00 0,00 8.810,89 3.506,06 0,00 0,00 528,65 2.105,00 14.950,60 1.730,79 1.709,37 0,00 0,00 3.440,16 11.510,44 31/12/2023
216 517800 ANA LUIZA MAGALHAES CIRINO PIOTO DE MELO OFICIAL DO MP BELO HORIZONTE - COMARCA; DIVISAO DE MATERIAIS 7.506,70 750,67 0,00 3.266,67 2.752,46 0,00 0,00 4.005,00 18.281,50 1.102,13 1.839,66 0,00 0,00 2.941,79 15.339,71 31/12/2023
217 481400 ANA MARCIA CANDIDA FERREIRA OFICIAL DO MP BRUMADINHO - COMARCA; BRUMADINHO-PJ-02PJ 7.506,70 1.501,34 0,00 2.025,65 3.002,68 0,00 0,00 2.105,00 16.141,37 1.222,23 2.081,87 0,00 0,00 3.304,10 12.837,27 31/12/2023
218 754400 ANA MARIA ANDRADE LARA OFICIAL DO MP BOM SUCESSO - COMARCA; BOM SUCESSO-PJ-UNPJ 4.570,25 0,00 0,00 1.016,88 0,00 0,00 0,00 2.105,00 7.692,13 572,34 247,80 0,00 0,00 820,14 6.871,99 31/12/2023
219 643100 ANA MARIA LOPES MIRANDA ANALISTA DO MP BELO HORIZONTE - COMARCA; CAO-FUNDACOES 11.212,54 1.121,25 0,00 3.626,03 4.111,26 0,00 0,00 3.055,00 23.126,08 982,16 3.168,25 0,00 0,00 4.150,41 18.975,67 31/12/2023
220 556400 ANA MARIA OLIVEIRA SOUZA OFICIAL DO MP ITAPECERICA - COMARCA; ITAPECERICA-PJ-UNPJ 8.264,07 1.652,81 0,00 2.681,20 3.305,63 0,00 0,00 2.105,00 18.008,71 1.367,65 2.375,13 0,00 0,00 3.742,78 14.265,93 31/12/2023
221 409600 ANA OLIVIA FARIA ROSENBURG ANALISTA DO MP BELO HORIZONTE - COMARCA; DIRETORIA DO COLEGIO E DA CAMARA DE PJ 18.720,84 7.488,34 0,00 4.313,62 8.736,39 0,00 0,00 2.105,00 41.364,19 3.974,42 7.632,11 0,00 0,00 11.606,53 29.757,66 31/12/2023
222 461500 ANA PAULA ALVES CARVALHO ANALISTA DO MP UBERLÂNDIA - COMARCA; UBERLANDIA-PJ-25PJ 13.588,97 2.717,79 0,00 5.695,97 5.435,59 0,00 0,00 3.055,00 30.493,32 2.390,03 4.332,65 0,00 0,00 6.722,68 23.770,64 31/12/2023
223 523200 ANA PAULA ALVES DA SILVA OFICIAL DO MP GOVERNADOR VALADARES - COMARCA; GOVERNADOR VALADARES-PJ-10PJ 10.516,49 2.103,30 0,00 3.712,10 4.206,60 0,00 0,00 5.905,00 26.443,49 982,16 3.262,49 0,00 0,00 4.244,65 22.198,84 31/12/2023
224 381200 ANA PAULA BARROS PEREIRA RIGHI ANALISTA DO MP BELO HORIZONTE - COMARCA; DIRETORIA DO COLEGIO E DA CAMARA DE PJ 20.533,67 6.160,10 0,00 7.805,18 8.897,92 0,00 0,00 3.055,00 46.451,87 982,16 8.184,81 0,00 0,00 9.166,97 37.284,90 31/12/2023
225 696400 ANA PAULA CARVALHO SILVA ASSESSOR PROMOTOR JUSTICA PERDÕES - COMARCA; PERDOES-PJ-UNPJ 0,00 0,00 8.810,89 3.160,70 2.936,96 0,00 0,00 3.055,00 17.963,55 1.753,90 2.464,90 0,00 0,00 4.218,80 13.744,75 31/12/2023
226 700900 ANA PAULA CRAVO SALOME ASSESSOR ADMINISTRATIVO I BELO HORIZONTE - COMARCA; PROCURADOR-GERAL DE JUSTIÇA 0,00 0,00 4.872,71 2.110,52 1.624,24 0,00 0,00 2.105,00 10.712,47 1.226,16 1.116,73 0,00 0,00 2.342,89 8.369,58 31/12/2023
227 227200 ANA PAULA DA SILVA CAMPOLINA ANALISTA DO MP BELO HORIZONTE - COMARCA; DIRETORIA DE ORCAMENTO-DIOR/SPC 23.070,31 11.535,16 0,00 4.815,77 11.535,16 0,00 0,00 2.105,00 53.061,40 5.317,82 10.341,31 0,00 0,00 15.659,13 37.402,27 31/12/2023
228 278500 ANA PAULA DIAS CAPANEMA OFICIAL DO MP BELO HORIZONTE - COMARCA; DIRETORIA DE SEGURANCA 13.588,97 5.435,59 0,00 4.075,36 6.341,52 0,00 0,00 2.105,00 31.546,44 2.824,88 5.313,87 0,00 0,00 8.138,75 23.407,69 31/12/2023
229 327300 ANA PAULA GARCIA MAXIMO OFICIAL DO MP UNAÍ - COMARCA; UNAI-PJ-01PJ 15.949,86 7.974,93 0,00 4.185,12 7.974,93 0,00 0,00 2.105,00 38.189,84 3.608,91 6.738,60 0,00 0,00 10.347,51 27.842,33 31/12/2023
230 738700 ANA PAULA GOMES ANTUNES ASSESSOR PROMOTOR JUSTICA CORAÇÃO DE JESUS - COMARCA; CORACAO DE JESUS-PJ-UNPJ 0,00 0,00 11.060,89 4.023,48 0,00 0,00 0,00 -145,00 14.939,37 1.422,41 1.709,37 0,00 0,00 3.131,78 11.807,59 31/12/2023
231 270000 ANA PAULA GOULART CRUZ DE MAGALHAES ANALISTA DO MP BELO HORIZONTE - COMARCA; ASSESSORIA ESPECIAL DO PGJ 23.070,31 9.228,12 0,00 5.717,81 10.766,14 0,00 0,00 2.105,00 50.887,38 4.948,70 9.596,90 0,00 0,00 14.545,60 36.341,78 31/12/2023
232 262100 ANA PAULA KOMATSUZAKI ABIJAUDI ANALISTA DO MP BELO HORIZONTE - COMARCA; BH-17PJ PATRIMONIO PUBLICO-SECRETARIA 23.070,31 11.535,16 0,00 4.920,04 11.535,16 0,00 0,00 2.105,00 53.165,67 5.317,82 10.237,04 0,00 0,00 15.554,86 37.610,81 31/12/2023
233 278900 ANA PAULA MOREIRA GURGEL ANALISTA DO MP BELO HORIZONTE - COMARCA; ASSESSORIA JURIDICO-ADMINISTRATIVA 23.070,31 11.535,16 8.404,02 5.487,28 12.250,96 0,00 0,00 2.105,00 62.852,73 5.317,82 11.932,42 5.419,53 0,00 22.669,77 40.182,96 31/12/2023
234 745500 ANA PAULA OLIVEIRA MENDES OFICIAL DO MP TARUMIRIM - COMARCA; TARUMIRIM-PJ-UNPJ 4.570,25 0,00 0,00 2.029,38 0,00 0,00 274,22 2.105,00 8.978,85 714,94 225,59 0,00 0,00 940,53 8.038,32 31/12/2023
235 425701 ANA PAULA ROCHA ANALISTA DO MP BELO HORIZONTE - COMARCA; ASSESSORIA DE COMUNICACAO INTEGRADA 12.343,61 2.468,72 0,00 5.408,10 4.937,44 0,00 0,00 3.055,00 28.212,87 2.150,92 3.954,72 0,00 0,00 6.105,64 22.107,23 31/12/2023
236 395601 ANA PAULA SALGE OLIVEIRA ANALISTA DO MP UBERABA - COMARCA; UBERABA-PJ-15PJ 12.343,61 4.937,44 0,00 2.927,40 5.760,35 0,00 0,00 2.105,00 28.073,80 2.545,92 4.751,30 0,00 0,00 7.297,22 20.776,58 31/12/2023
237 473200 ANA PAULA SCOTTON BRASIL ANALISTA DO MP JUIZ DE FORA - COMARCA; JUIZ DE FORA-PJ-14PJ 12.343,61 2.468,72 0,00 2.658,31 4.937,44 0,00 0,00 2.105,00 24.513,08 2.150,92 3.954,72 0,00 0,00 6.105,64 18.407,44 31/12/2023
238 633600 ANA PAULA SILVA FERNANDES OFICIAL DO MP CATAGUASES - COMARCA; CATAGUASES-PJ-04PJ 7.506,70 750,67 0,00 2.073,97 2.752,46 0,00 0,00 2.105,00 15.188,80 1.102,13 1.839,66 0,00 0,00 2.941,79 12.247,01 31/12/2023
239 470900 ANA PAULA VALADARES ANALISTA DO MP PITANGUI - COMARCA; PITANGUI-PJ-01PJ 12.343,61 2.468,72 0,00 5.084,38 4.937,44 0,00 0,00 2.105,00 26.939,15 2.150,92 3.850,45 0,00 0,00 6.001,37 20.937,78 31/12/2023
240 447000 ANA PAULA VALENTIM DE ARAUJO ANALISTA DO MP BELO HORIZONTE - COMARCA; PROC JUST ESP ACOES COMP ORIG CRIMINAL-ASSESS 14.960,00 2.992,00 0,00 3.823,16 5.984,00 0,00 0,00 2.105,00 29.864,16 2.653,27 4.967,79 0,00 0,00 7.621,06 22.243,10 31/12/2023
241 604200 ANA PAULA VIANA E SILVA OFICIAL DO MP BELO HORIZONTE - COMARCA; BH-17PJ PATRIMONIO PUBLICO-SECRETARIA 7.506,70 1.501,34 0,00 3.493,42 3.002,68 0,00 0,00 2.105,00 17.609,14 1.222,23 2.081,87 0,00 0,00 3.304,10 14.305,04 31/12/2023
242 505400 ANA PAULA VIEIRA SOUTO OFICIAL DO MP ALMENARA - COMARCA; ALMENARA-PJ-01PJ 7.506,70 3.002,68 0,00 7.496,12 3.503,13 0,00 0,00 2.105,00 23.613,63 1.462,45 2.514,17 0,00 0,00 3.976,62 19.637,01 31/12/2023
243 280200 ANA RACHEL BRANDAO LADEIRA ROLAND ANALISTA DO MP BELO HORIZONTE - COMARCA; SUPERINTENDENCIA GESTÃO DE PESSOAS 23.070,31 9.228,12 8.404,02 5.754,89 12.529,99 0,00 0,00 2.105,00 61.092,33 4.948,70 11.822,44 3.112,49 0,00 19.883,63 41.208,70 31/12/2023
244 601200 ANA REGINA RIBEIRO ANALISTA DO MP BELO HORIZONTE - COMARCA; DIV FISCAL ADM CONT TERCEIRIZACAO 12.343,61 2.468,72 4.940,75 5.487,08 6.584,36 0,00 0,00 2.105,00 33.929,52 982,16 5.835,18 0,00 0,00 6.817,34 27.112,18 31/12/2023
245 384700 ANA RODRIGUES PEREIRA MARRA ANALISTA DO MP BELO HORIZONTE - COMARCA; CENT ESTAD COOPERACAO TECNICO-JURIDICA 12.343,61 3.703,08 0,00 2.897,13 5.348,90 0,00 0,00 3.055,00 27.347,72 2.348,42 4.248,74 0,00 0,00 6.597,16 20.750,56 31/12/2023
246 232700 ANA SILVIA SEMBLANO NAKAMURA OFICIAL DO MP BELO HORIZONTE - COMARCA; CENT DE APOIO TEC-SETOR DEF,IDOSO E INFANC 12.343,61 4.937,44 4.020,58 3.832,03 7.100,54 0,00 0,00 2.105,00 34.339,20 2.545,92 6.225,51 0,00 0,00 8.771,43 25.567,77 31/12/2023
247 602100 ANACLETO FRANCISCO MARCIER PIMENTA OFICIAL DO MP SÃO JOÃO DEL REI - COMARCA; SAO JOAO DEL REI-PJ-03PJ 7.506,70 1.501,34 0,00 2.661,67 3.002,68 0,00 0,00 4.005,00 18.677,39 1.222,23 1.821,19 0,00 0,00 3.043,42 15.633,97 31/12/2023
248 310400 ANADEJE DO CARMO DINIZ ARAUJO OFICIAL DO MP BELO HORIZONTE - COMARCA; DIRETORIA DE PESSOAL ADMINISTRATIVO - DPAD 12.343,61 3.703,08 0,00 2.792,86 5.348,90 0,00 0,00 2.105,00 26.293,45 2.348,42 4.353,01 0,00 0,00 6.701,43 19.592,02 31/12/2023
249 337000 ANAILDES MARIA MENDES OFICIAL DO MP JANAÚBA - COMARCA; JANAUBA-PJ-02PJ 12.343,61 3.703,08 0,00 2.792,86 5.348,90 0,00 0,00 3.055,00 27.243,45 2.348,42 4.353,01 0,00 0,00 6.701,43 20.542,02 31/12/2023
250 750200 ANALU BATISTA TORQUATO ARAUJO ASSESSOR DE CAO BELO HORIZONTE - COMARCA; CAO-ORDEM ECONOMICA E TRIBUTARIA 0,00 0,00 7.506,70 2.502,23 0,00 0,00 0,00 2.105,00 12.113,93 1.082,35 1.350,72 0,00 0,00 2.433,07 9.680,86 31/12/2023
251 377400 ANDEIRSON DA MATTA BARBOSA ANALISTA DO MP POUSO ALEGRE - COMARCA; POUSO ALEGRE-PJ-01PJ 12.343,61 3.703,08 0,00 2.792,86 5.348,90 0,00 0,00 3.055,00 27.243,45 2.348,42 4.353,01 0,00 0,00 6.701,43 20.542,02 31/12/2023
252 317400 ANDERSON DA SILVA BICALHO OFICIAL DO MP CONTAGEM - COMARCA; CONTAGEM-PJ-SECRETARIA 12.343,61 3.703,08 0,00 5.640,37 5.348,90 0,00 0,00 2.105,00 29.140,96 2.348,42 4.196,60 0,00 0,00 6.545,02 22.595,94 31/12/2023
253 506900 ANDERSON DE SOUZA DAMIANI ANALISTA DO MP BELO HORIZONTE - COMARCA; DIRETORIA DE PAGAMENTO DE PESSOAL-DPAG 12.343,61 4.937,44 5.538,92 4.225,79 7.606,66 0,00 0,00 2.105,00 36.757,42 2.545,92 6.730,10 0,00 0,00 9.276,02 27.481,40 31/12/2023
254 410000 ANDERSON DE SOUZA NETO ASSESSOR ADMINISTRATIVO II BELO HORIZONTE - COMARCA; DIRETORIA DE ADMINISTRACAO FINANCEIRA 0,00 0,00 7.506,70 2.815,10 2.502,23 0,00 0,00 2.105,00 14.929,03 1.753,79 2.038,83 0,00 0,00 3.792,62 11.136,41 31/12/2023
255 181900 ANDERSON FLAVIO DE OLIVEIRA OFICIAL DO MP ITAGUARA - COMARCA; ITAGUARA-PJ-SECRETARIA 18.720,84 7.488,34 0,00 8.754,13 8.736,39 0,00 0,00 2.105,00 45.804,70 3.974,42 7.632,11 0,00 0,00 11.606,53 34.198,17 31/12/2023
256 333200 ANDERSON JOSE DE FREITAS OFICIAL DO MP IPATINGA - COMARCA; IPATINGA-PJ-04PJ 12.343,61 3.703,08 0,00 3.347,89 5.939,45 0,00 1.771,66 3.055,00 30.160,69 2.348,42 4.846,21 0,00 0,00 7.194,63 22.966,06 31/12/2023
257 699400 ANDERSON LUIZ CABRAL ASSESSOR PROMOTOR JUSTICA ALÉM PARAÍBA - COMARCA; ALEM PARAIBA-PJ-03PJ 0,00 0,00 8.810,89 3.108,57 2.936,96 0,00 0,00 2.105,00 16.961,42 1.753,90 2.517,04 0,00 0,00 4.270,94 12.690,48 31/12/2023
258 462100 ANDERSON LUIZ GUIMARAES CARDOSO ANALISTA DO MP BARBACENA - COMARCA; BARBACENA-PJ-02PJ 15.447,01 4.016,22 0,00 6.908,62 6.487,74 0,00 0,00 2.105,00 34.964,59 2.895,07 5.455,41 0,00 0,00 8.350,48 26.614,11 31/12/2023
259 429700 ANDERSON MELO DE SOUZA COORDENADOR II BELO HORIZONTE - COMARCA; DIRET DE ESTAGIOS E CONVENIOS ACADEMICOS 20.533,67 4.106,73 0,00 5.542,93 8.213,47 0,00 0,00 2.105,00 40.501,80 1.222,23 7.813,74 0,00 0,00 9.035,97 31.465,83 31/12/2023
260 545600 ANDERSON MENDES PROCOPIO FERREIRA ANALISTA DO MP BELO HORIZONTE - COMARCA; BH-12PJ JUIZO CRIMINAL-GAB 089PJ 12.343,61 2.468,72 0,00 2.658,31 4.937,44 0,00 0,00 2.105,00 24.513,08 2.150,92 3.954,72 0,00 0,00 6.105,64 18.407,44 31/12/2023
261 519900 ANDERSON MOREIRA DOEHLER ANALISTA DO MP TEÓFILO OTONI - COMARCA; COORD REG SAUDE MACRORREGIAO SANIT NORDESTE 12.343,61 4.937,44 0,00 2.927,40 5.760,35 0,00 0,00 2.105,00 28.073,80 2.545,92 4.751,30 0,00 0,00 7.297,22 20.776,58 31/12/2023
262 103000 ANDERSON TADEU DE DEUS ASSESSOR ADMINISTRATIVO II BELO HORIZONTE - COMARCA; BH-26 CRIME CONT CRIAN ADOL-SECRETARIA 0,00 6.005,36 7.506,70 4.166,33 4.504,02 0,00 0,00 6.609,02 28.791,43 1.753,90 4.240,80 0,00 0,00 5.994,70 22.796,73 31/12/2023
263 309200 ANDITYAS SOARES DE MOURA COSTA MATOS ANALISTA DO MP BELO HORIZONTE - COMARCA; GABINETE DE PROCURADOR DE JUSTIÇA - SALA 909 21.346,53 8.538,61 0,00 4.870,25 9.961,71 0,00 0,00 2.105,00 46.822,10 4.562,57 8.818,22 0,00 0,00 13.380,79 33.441,31 31/12/2023
264 519200 ANDRE BORJA LANA ANALISTA DO MP BELO HORIZONTE - COMARCA; DIR CONTEUDO JORNALISTICO 12.343,61 2.468,72 0,00 2.658,31 4.937,44 0,00 0,00 3.055,00 25.463,08 2.150,92 3.954,72 0,00 0,00 6.105,64 19.357,44 31/12/2023
265 637200 ANDRE FERNANDES DA CUNHA OFICIAL DO MP MORADA NOVA DE MINAS - COMARCA; MORADA NOVA DE MINAS-PJ-UNPJ 7.506,70 750,67 0,00 2.683,02 2.752,46 0,00 0,00 2.105,00 15.797,85 491,08 1.872,65 0,00 0,00 2.363,73 13.434,12 31/12/2023
266 651500 ANDRE GONCALVES MARANHAO OFICIAL DO MP ANDRADAS - COMARCA; ANDRADAS-PJ-02PJ 6.603,76 660,38 0,00 2.112,96 2.421,38 0,00 0,00 2.105,00 13.903,48 944,43 1.518,84 0,00 0,00 2.463,27 11.440,21 31/12/2023
267 521900 ANDRE LUIS GOMES SILVA ANALISTA DO MP FORMIGA - COMARCA; FORMIGA-PJ-02PJ 12.343,61 2.468,72 0,00 2.658,31 4.937,44 0,00 0,00 4.480,00 26.888,08 2.150,92 3.401,18 0,00 0,00 5.552,10 21.335,98 31/12/2023
268 304300 ANDRE LUIZ AVELAR ANALISTA DO MP BELO HORIZONTE - COMARCA; DIRETORIA DE REDES E BANCOS DE DADOS 10.341,72 3.102,52 0,00 4.641,73 4.481,41 0,00 0,00 2.105,00 24.672,38 1.932,03 3.461,15 0,00 0,00 5.393,18 19.279,20 31/12/2023
269 397400 ANDRE PATARO MYRRHA DE PAULA E SILVA ANALISTA DO MP BELO HORIZONTE - COMARCA; ASSESSORIA JURIDICO-ADMINISTRATIVA 20.533,67 6.160,10 0,00 5.131,73 8.897,92 0,00 0,00 3.055,00 43.778,42 4.051,95 7.788,47 0,00 0,00 11.840,42 31.938,00 31/12/2023
270 650100 ANDRE THOME VARGAS OFICIAL DO MP LEOPOLDINA - COMARCA; LEOPOLDINA-PJ-04PJ 7.270,07 727,01 0,00 2.765,19 2.665,69 0,00 0,00 2.105,00 15.532,96 509,94 1.777,21 0,00 0,00 2.287,15 13.245,81 31/12/2023
271 548500 ANDRE VINICIUS CARVALHO MEIRA ANALISTA DO MP JUIZ DE FORA - COMARCA; JUIZ DE FORA-PJ-24PJ 12.343,61 2.468,72 0,00 3.656,32 4.937,44 0,00 0,00 2.105,00 25.511,09 982,16 4.125,47 0,00 0,00 5.107,63 20.403,46 31/12/2023
272 297200 ANDRE WILLE ROSARIO ANALISTA DO MP BELO HORIZONTE - COMARCA; ASSESSORIA ESPECIAL DO PGJ 23.070,31 6.921,09 0,00 4.417,11 9.997,13 0,00 0,00 2.105,00 46.510,64 4.579,57 8.748,23 0,00 0,00 13.327,80 33.182,84 31/12/2023
273 423600 ANDREA COSTA GUALBERTO ALVES ANALISTA DO MP GOVERNADOR VALADARES - COMARCA; COORD REG PJ DEF EDU DIR CRIANCA ADOL RIODOCE 18.130,77 14.504,62 0,00 24.597,75 12.546,00 5.002,61 0,00 2.105,00 76.886,75 5.002,61 11.487,79 0,00 0,00 16.490,40 60.396,35 31/12/2023
274 467300 ANDREA DE CASSIA PENNA ALVERNAZ ANALISTA DO MP PONTE NOVA - COMARCA; PONTE NOVA-PJ-01PJ 12.343,61 2.468,72 0,00 2.710,45 4.937,44 0,00 0,00 2.105,00 24.565,22 2.150,92 3.902,59 0,00 0,00 6.053,51 18.511,71 31/12/2023
275 308000 ANDREA DE CASSIA SANTOS OLIVEIRA ANALISTA DO MP BELO HORIZONTE - COMARCA; COORD DE GABINETE DO PGJ 23.070,31 6.921,09 0,00 4.936,08 9.997,13 0,00 513,34 2.105,00 47.542,95 4.579,57 8.800,37 0,00 0,00 13.379,94 34.163,01 31/12/2023
276 349500 ANDREA DE OLIVEIRA LOIOLA REGIS OFICIAL DO MP IGUATAMA - COMARCA; IGUATAMA-PJ-UNPJ 12.343,61 3.703,08 0,00 2.897,13 5.348,90 0,00 0,00 2.105,00 26.397,72 2.348,42 4.248,74 0,00 0,00 6.597,16 19.800,56 31/12/2023
277 287900 ANDREA FERNANDES PENA MARTINS OFICIAL DO MP MONTES CLAROS - COMARCA; MONTES CLAROS-PJ-09PJ 12.343,61 3.703,08 0,00 2.844,99 5.348,90 0,00 0,00 2.105,00 26.345,58 2.348,42 4.300,87 0,00 0,00 6.649,29 19.696,29 31/12/2023
278 300800 ANDREA FERREIRA ANALISTA DO MP LAVRAS - COMARCA; LAVRAS-PJ-04PJ 22.191,68 6.657,50 0,00 18.612,92 9.616,39 0,00 0,00 2.105,00 59.183,49 4.396,82 8.483,95 0,00 0,00 12.880,77 46.302,72 31/12/2023
279 395100 ANDREA LANNA MENDES NOVAIS ANALISTA DO MP BELO HORIZONTE - COMARCA; PROMOT ESTADUAL DE DEF PATRI CULT E TUR DE MG 20.533,67 6.160,10 0,00 17.352,42 8.897,92 0,00 0,00 2.105,00 55.049,11 4.051,95 7.736,33 0,00 0,00 11.788,28 43.260,83 31/12/2023
280 67300 ANDREA LEAO MAGALHAES ROQUE ASSESSOR ADMINISTRATIVO IV BELO HORIZONTE - COMARCA; GRUPO ATUACAO ESP COMB CRIMES CIBER 0,00 11.590,57 14.488,22 7.045,98 8.692,93 0,00 0,00 2.105,00 43.922,70 1.753,90 8.796,46 0,00 0,00 10.550,36 33.372,34 31/12/2023
281 335700 ANDREA LOPES PEREIRA ANALISTA DO MP GOVERNADOR VALADARES - COMARCA; COORD REG DO MA DA BACIA DO RIO DOCE 23.070,31 6.921,09 0,00 4.883,95 9.997,13 0,00 0,00 2.105,00 46.977,48 4.579,57 8.852,50 0,00 0,00 13.432,07 33.545,41 31/12/2023
282 419000 ANDREIA BARBOSA DE ALMEIDA ANALISTA DO MP BELO HORIZONTE - COMARCA; CENT ESTAD COOPERACAO TECNICO-JURIDICA 18.130,77 5.439,23 0,00 5.571,40 7.856,67 0,00 1.813,08 2.105,00 40.916,15 4.132,33 6.780,53 0,00 0,00 10.912,86 30.003,29 31/12/2023
283 281501 ANDREIA CARLA COSTA ANALISTA DO MP UBÁ - COMARCA; UBA-PJ-02PJ 18.720,84 6.739,50 0,00 5.670,66 8.486,78 0,00 0,00 2.105,00 41.722,78 3.854,60 7.390,48 0,00 0,00 11.245,08 30.477,70 31/12/2023
284 477100 ANDREIA DE ALMEIDA RIBEIRO MELO OFICIAL DO MP CONTAGEM - COMARCA; CONTAGEM-PJ-SECRETARIA 10.858,90 3.257,67 0,00 2.805,04 4.705,52 0,00 207,04 4.363,65 26.197,82 2.039,60 3.730,22 0,00 0,00 5.769,82 20.428,00 31/12/2023
285 619000 ANDREIA FERREIRA NORONHA COORDENADOR II BELO HORIZONTE - COMARCA; DIRETORIA DE SERVICO CRIMINAL 20.533,67 2.053,37 0,00 5.168,00 7.529,01 0,00 0,00 2.105,00 37.389,05 1.102,13 7.093,87 0,00 0,00 8.196,00 29.193,05 31/12/2023
286 747000 ANDREIA FERREIRA TIAGO OFICIAL DO MP SÃO JOÃO DA PONTE - COMARCA; SAO JOAO DA PONTE-PJ-UNPJ 4.570,25 0,00 0,00 2.029,38 0,00 0,00 0,00 3.055,00 9.654,63 671,06 225,59 0,00 0,00 896,65 8.757,98 31/12/2023
287 424000 ANDREIA LUCIA COUTO ANALISTA DO MP BELO HORIZONTE - COMARCA; BH-18PJ DIREITOS HUMANOS-SECRETARIA 18.720,84 3.744,17 0,00 3.846,50 7.488,34 0,00 0,00 2.105,00 35.904,85 3.375,35 6.423,99 0,00 0,00 9.799,34 26.105,51 31/12/2023
288 370100 ANDREIA MARIA SILVA PINTO OFICIAL DO MP CORONEL FABRICIANO - COMARCA; CORONEL FABRICIANO-PJ-SECRETARIA 12.343,61 3.703,08 0,00 3.959,52 5.348,90 0,00 962,80 3.055,00 29.372,91 1.136,21 4.552,61 0,00 0,00 5.688,82 23.684,09 31/12/2023
289 382100 ANDREIA NATALI PEREIRA DE OLIVEIRA OFICIAL DO MP PRADOS - COMARCA; PRADOS-PJ-UNPJ 12.343,61 3.703,08 0,00 2.792,86 5.348,90 0,00 0,00 2.105,00 26.293,45 2.348,42 4.353,01 0,00 0,00 6.701,43 19.592,02 31/12/2023
290 275200 ANDREIA RIBEIRO FREITAS OFICIAL DO MP VIÇOSA - COMARCA; VICOSA-PJ-04PJ 13.588,97 5.435,59 0,00 3.469,47 6.341,52 0,00 0,00 2.105,00 30.940,55 2.824,88 5.261,73 0,00 0,00 8.086,61 22.853,94 31/12/2023
291 352200 ANDREIA XAVIER PEREIRA OFICIAL DO MP DIVINÓPOLIS - COMARCA; DIVINOPOLIS-PJ-08PJ 12.343,61 3.703,08 0,00 2.792,86 5.348,90 0,00 0,00 3.530,00 27.718,45 2.348,42 4.353,01 0,00 0,00 6.701,43 21.017,02 31/12/2023
292 638500 ANDRESA ALVES FEITOSA CASAGRANDE ANALISTA DO MP LAVRAS - COMARCA; COORD REG DO MA DA BACIA DO RIO GRANDE 11.577,56 1.157,76 0,00 3.239,10 4.245,11 0,00 0,00 2.105,00 22.324,53 982,16 3.514,56 0,00 0,00 4.496,72 17.827,81 31/12/2023
293 383700 ANDRESSA EDUARDO SOUZA ANALISTA DO MP OURO BRANCO - COMARCA; OURO BRANCO-PJ-SECRETARIA 20.533,67 6.160,10 0,00 9.367,75 8.897,92 0,00 0,00 3.055,00 48.014,44 4.051,95 7.788,47 0,00 0,00 11.840,42 36.174,02 31/12/2023
294 678400 ANDRESSA LUIZA SILVA LOPES ASSESSOR PROMOTOR JUSTICA CARMO DO PARANAÍBA - COMARCA; CARMO DO PARANAIBA-PJ-02PJ 0,00 0,00 8.810,89 4.195,49 2.936,96 0,00 0,00 2.105,00 18.048,34 1.753,90 2.517,04 0,00 0,00 4.270,94 13.777,40 31/12/2023
295 426200 ANDRESSA MENDES CASAL OFICIAL DO MP BELO HORIZONTE - COMARCA; DIR ESTRUTURA E PROCESSOS ORGANIZACIONAIS 10.516,49 2.103,30 0,00 2.961,51 4.206,60 0,00 0,00 3.055,00 22.842,90 1.800,11 3.195,13 0,00 0,00 4.995,24 17.847,66 31/12/2023
296 390100 ANDRESSA RIBEIRO PUCCI OFICIAL DO MP UBERABA - COMARCA; UBERABA-PJ-14PJ 9.699,77 1.939,95 0,00 4.177,93 3.879,91 0,00 0,00 2.105,00 21.802,56 1.643,30 2.931,03 0,00 0,00 4.574,33 17.228,23 31/12/2023
297 462500 ANDREZA APARECIDA COSTA E SILVA ANALISTA DO MP CONSELHEIRO LAFAIETE - COMARCA; CONSELHEIRO LAFAIETE-PJ-02PJ 12.343,61 2.468,72 0,00 3.656,32 4.937,44 0,00 0,00 4.005,00 27.411,09 982,16 4.125,47 0,00 0,00 5.107,63 22.303,46 31/12/2023
298 677700 ANDREZA DE LOURDES FERREIRA DE PAIVA ASSESSOR PROMOTOR JUSTICA ABRE CAMPO - COMARCA; ABRE CAMPO-PJ-01PJ 0,00 0,00 8.810,89 4.195,49 2.936,96 0,00 0,00 2.105,00 18.048,34 1.753,90 2.517,04 0,00 0,00 4.270,94 13.777,40 31/12/2023
299 537800 ANDREZZA LUZIA DE OLIVEIRA ALVES ANALISTA DO MP PATOS DE MINAS - COMARCA; COORD REG PJ DEF EDU DIR CRI ADO AL PAR NOROE 12.343,61 2.468,72 0,00 2.710,45 4.937,44 0,00 0,00 2.105,00 24.565,22 2.150,92 3.902,59 0,00 0,00 6.053,51 18.511,71 31/12/2023
300 491600 ANE PATRICIA RIBEIRO DUARTE ANALISTA DO MP SETE LAGOAS - COMARCA; SETE LAGOAS-PJ-11PJ 12.343,61 2.468,72 0,00 5.058,31 4.937,44 0,00 0,00 2.105,00 26.913,08 2.150,92 3.902,59 0,00 0,00 6.053,51 20.859,57 31/12/2023
301 465800 ANELISE GAMA ASSESSOR ADMINISTRATIVO III BELO HORIZONTE - COMARCA; BH-18PJ VIOLENCIA DOMESTICA-SECRETARIA 0,00 0,00 10.858,90 4.937,89 3.619,63 0,00 0,00 2.105,00 21.521,42 1.753,90 3.267,97 0,00 0,00 5.021,87 16.499,55 31/12/2023
302 535200 ANELIZE FERNANDA ALVES VILARINHO OFICIAL DO MP CAPINÓPOLIS - COMARCA; CAPINOPOLIS-PJ-UNPJ 7.506,70 1.501,34 0,00 2.025,65 3.002,68 0,00 540,48 3.328,49 17.905,34 1.308,71 2.081,87 0,00 0,00 3.390,58 14.514,76 31/12/2023
303 197200 ANGELA COELHO SALDANHA OFICIAL DO MP PARÁ DE MINAS - COMARCA; PARA DE MINAS-PJ-03PJ 22.191,68 11.095,84 0,00 6.373,30 11.095,84 0,00 0,00 2.105,00 52.861,66 5.106,95 9.916,05 0,00 0,00 15.023,00 37.838,66 31/12/2023
304 307400 ANGELA CRISTINA GONCALVES MUNIZ ANALISTA DO MP UBERLÂNDIA - COMARCA; UBERLANDIA-PJ-SEC FAMILIA 23.070,31 9.228,12 0,00 4.668,57 10.766,14 0,00 473,71 7.272,75 55.479,60 4.948,70 9.492,63 0,00 0,00 14.441,33 41.038,27 31/12/2023
305 191800 ANGELA MARIA DE OLIVEIRA OFICIAL DO MP GUARANÉSIA - COMARCA; GUARANESIA-PJ-SECRETARIA 22.191,68 17.753,35 0,00 9.342,70 14.461,77 5.795,34 159,08 3.840,41 73.544,33 5.795,34 13.645,15 2.355,07 0,00 21.795,56 51.748,77 31/12/2023
306 497400 ANGELA MARIA HENRIQUES ANALISTA DO MP BELO HORIZONTE - COMARCA; COORD REG BACIAS RIO VELHAS E PARAOPEBA 12.343,61 2.468,72 0,00 2.658,31 4.937,44 0,00 0,00 2.105,00 24.513,08 2.150,92 3.954,72 0,00 0,00 6.105,64 18.407,44 31/12/2023
307 260700 ANGELICA CRISTINA AZEVEDO MOREIRA MOUCO OFICIAL DO MP UBÁ - COMARCA; UBA-PJ-05PJ 18.130,77 7.252,31 0,00 4.210,76 8.461,03 0,00 0,00 2.105,00 40.159,87 3.842,24 7.365,55 0,00 0,00 11.207,79 28.952,08 31/12/2023
308 708300 ANGELICA NUNES VIEIRA DA SILVA ASSESSOR PROMOTOR JUSTICA IBIRITÉ - COMARCA; IBIRITE-PJ-02PJ 0,00 0,00 8.810,89 3.108,57 2.936,96 0,00 0,00 2.105,00 16.961,42 1.753,90 2.517,04 0,00 0,00 4.270,94 12.690,48 31/12/2023
309 334600 ANGELICA PANISSA DE FREITAS GALLATI OFICIAL DO MP GUAXUPÉ - COMARCA; GUAXUPE-PJ-02PJ 12.343,61 4.937,44 0,00 2.979,54 5.760,35 0,00 0,00 3.055,00 29.075,94 2.545,92 4.699,16 0,00 0,00 7.245,08 21.830,86 31/12/2023
310 521100 ANGELICA SALES MOREIRA OFICIAL DO MP BELO HORIZONTE - COMARCA; BH-02PJ FAMILIA-SECRETARIA 10.516,49 2.103,30 0,00 2.909,37 4.206,60 0,00 0,00 2.105,00 21.840,76 1.800,11 3.247,27 0,00 0,00 5.047,38 16.793,38 31/12/2023
311 466500 ANGELLO MARQUES AGRELLI ANALISTA DO MP MAR DE ESPANHA - COMARCA; MAR DE ESPANHA-PJ-UNPJ 12.343,61 2.468,72 0,00 2.658,31 4.937,44 0,00 0,00 3.055,00 25.463,08 2.150,92 3.954,72 0,00 0,00 6.105,64 19.357,44 31/12/2023
312 363300 ANGELO VERDOLIN HENRIQUES ANALISTA DO MP SETE LAGOAS - COMARCA; SETE LAGOAS-PJ-04PJ 22.191,68 8.876,67 0,00 10.342,50 10.356,12 0,00 0,00 2.105,00 53.871,97 4.751,88 9.200,00 0,00 0,00 13.951,88 39.920,09 31/12/2023
313 250900 ANISIO APARECIDO SANTOS OFICIAL DO MP BETIM - COMARCA; BETIM - SECRETARIA DAS PJS CRIMINAIS 7.506,70 3.002,68 0,00 2.859,86 3.503,13 0,00 0,00 2.105,00 18.977,37 1.462,45 1.686,21 0,00 0,00 3.148,66 15.828,71 31/12/2023
314 698100 ANNA CAROLINA POLICARIO BERTOLIN ASSESSOR PROCURADOR JUSTICA BELO HORIZONTE - COMARCA; PROC. JUSTICA DIR. DIFUSOS E COLETIVOS-SEC 0,00 0,00 8.810,89 3.108,57 2.936,96 0,00 0,00 2.105,00 16.961,42 1.753,90 2.517,04 0,00 0,00 4.270,94 12.690,48 31/12/2023
315 253400 ANNA FLAVIA LEHMAN ANALISTA DO MP BELO HORIZONTE - COMARCA; SUPRIN DE PLANEJAMENTO E COORDENACAO 23.070,31 9.228,12 8.404,02 5.911,31 12.529,99 0,00 0,00 2.105,00 61.248,75 4.948,70 11.666,03 3.112,49 0,00 19.727,22 41.521,53 31/12/2023
316 688800 ANNA LUIZA MATTOS DUARTE ASSESSOR PROCURADOR JUSTICA BELO HORIZONTE - COMARCA; GABINETE DE PROCURADOR DE JUSTICA - SALA 311 0,00 0,00 8.810,89 3.108,57 2.936,96 0,00 0,00 2.105,00 16.961,42 1.753,90 2.517,04 0,00 0,00 4.270,94 12.690,48 31/12/2023
317 752100 ANNABELLA ZAVOLI VILLARINHO CARDOSO OFICIAL DO MP ALÉM PARAÍBA - COMARCA; ALEM PARAIBA-PJ-01PJ 4.570,25 0,00 0,00 1.016,88 0,00 0,00 0,00 2.105,00 7.692,13 572,34 247,80 0,00 0,00 820,14 6.871,99 31/12/2023
318 447600 ANNGELUCE ALCANTARA DE CAMPOS OFICIAL DO MP DIVINÓPOLIS - COMARCA; DIVINOPOLIS-PJ-07PJ 10.516,49 3.154,95 0,00 2.647,56 4.557,15 0,00 0,00 2.105,00 22.981,15 1.968,38 3.586,60 0,00 0,00 5.554,98 17.426,17 31/12/2023
319 630300 ANTONIA GOMES RAMALHO OFICIAL DO MP NOVO CRUZEIRO - COMARCA; NOVO CRUZEIRO-PJ-UNPJ 7.506,70 750,67 0,00 6.072,51 2.752,46 0,00 0,00 4.202,03 21.284,37 1.102,13 1.839,66 0,00 0,00 2.941,79 18.342,58 31/12/2023
320 401600 ANTONIO CARLOS GUEDES AROUCA ANALISTA DO MP BELO HORIZONTE - COMARCA; ASSESSORIA JURIDICO-ADMINISTRATIVA 17.005,40 3.401,08 0,00 3.589,82 6.802,16 0,00 0,00 2.105,00 32.903,46 3.045,99 5.759,77 0,00 0,00 8.805,76 24.097,70 31/12/2023
321 333900 ANTONIO GONCALVES DE SOUZA FILHO OFICIAL DO MP BELO HORIZONTE - COMARCA; DIRETORIA DE CONTABILIDADE 12.343,61 3.703,08 0,00 2.792,86 5.348,90 0,00 0,00 2.105,00 26.293,45 2.348,42 4.353,01 0,00 0,00 6.701,43 19.592,02 31/12/2023
322 176100 ANTONIO MARCELO CAMPOS CAMPANELLA OFICIAL DO MP BELO HORIZONTE - COMARCA; COORD DE GABINETE DO PGJ 22.191,68 11.095,84 0,00 5.305,97 11.095,84 0,00 0,00 2.105,00 51.794,33 5.106,95 9.916,05 0,00 0,00 15.023,00 36.771,33 31/12/2023
323 321001 ANTONIO OLINTO VIEIRA MACHADO ANALISTA DO MP BELO HORIZONTE - COMARCA; CENTRAL DE APOIO TECN-SETOR DE MEIO AMBIENTE 20.533,67 6.160,10 0,00 8.173,67 10.248,57 4.051,95 0,00 2.105,00 51.272,96 4.051,95 9.169,91 0,00 0,00 13.221,86 38.051,10 31/12/2023
324 356200 ANTONIO PAULA DA SILVA OFICIAL DO MP JUIZ DE FORA - COMARCA; JUIZ DE FORA-PJ-20PJ 12.343,61 4.937,44 0,00 3.199,83 5.760,35 0,00 0,00 2.105,00 28.346,23 2.545,92 4.751,30 0,00 0,00 7.297,22 21.049,01 31/12/2023
325 119900 ANTONIO RODRIGUES DE PINHO OFICIAL DO MP GUANHÃES - COMARCA; GUANHAES-PJ-01PJ 21.346,53 17.077,23 0,00 23.988,20 12.529,99 0,00 1.654,75 2.105,00 78.701,70 5.795,34 11.328,60 8.325,71 0,00 25.449,65 53.252,05 31/12/2023
326 373300 ANTONIO SERGIO ANANIAS OFICIAL DO MP SÃO JOÃO NEPOMUCENO - COMARCA; SAO JOAO NEPOMUCENO-PJ-01PJ 12.343,61 3.703,08 0,00 4.570,73 5.348,90 0,00 962,80 2.105,00 29.034,12 1.136,21 4.676,60 0,00 0,00 5.812,81 23.221,31 31/12/2023
327 608100 ANTONIO SIDINEY VIEIRA LEMOS ANALISTA DO MP PIRAPORA - COMARCA; PIRAPORA-PJ-01PJ 12.343,61 6.171,81 0,00 3.688,63 6.171,81 0,00 0,00 3.055,00 31.430,86 2.743,42 5.097,45 0,00 0,00 7.840,87 23.589,99 31/12/2023
328 374700 ANTONIO SILVA NETO OFICIAL DO MP BELO HORIZONTE - COMARCA; GAECO - SECRETARIA 12.343,61 3.703,08 0,00 2.792,86 5.348,90 0,00 0,00 3.055,00 27.243,45 2.348,42 4.353,01 0,00 0,00 6.701,43 20.542,02 31/12/2023
329 636700 ANTONIUS VITORIANO FERNANDES OFICIAL DO MP BELO HORIZONTE - COMARCA; ASSESSORIA JURIDICA DO PROCON-MG 6.818,83 681,88 0,00 5.611,68 2.500,24 0,00 0,00 2.105,00 17.717,63 981,10 1.595,50 0,00 0,00 2.576,60 15.141,03 31/12/2023
330 413200 ANY PEREIRA SILVA ANALISTA DO MP TRÊS PONTAS - COMARCA; TRES PONTAS-PJ-01PJ 18.130,77 5.439,23 0,00 4.862,49 7.856,67 0,00 0,00 2.105,00 38.394,16 3.552,15 6.780,53 0,00 0,00 10.332,68 28.061,48 31/12/2023
331 151401 APARECIDA DE FATIMA MENDES DE ALMEIDA ASSESSOR ADMINISTRATIVO II JUIZ DE FORA - COMARCA; JUIZ DE FORA-PJ-SECRETARIA 0,00 0,00 7.506,70 2.815,10 2.502,23 0,00 0,00 2.105,00 14.929,03 1.753,79 2.038,83 0,00 0,00 3.792,62 11.136,41 31/12/2023
332 329300 APARECIDA MARIA MELO DE ASSIS OFICIAL DO MP BELO HORIZONTE - COMARCA; BH-18PJ DIREITOS HUMANOS-SECRETARIA 12.343,61 3.703,08 0,00 2.792,86 5.348,90 0,00 0,00 2.105,00 26.293,45 2.348,42 4.353,01 0,00 0,00 6.701,43 19.592,02 31/12/2023
333 653000 APARECIDA ROSA DE LIMA ASSESSOR ADMINISTRATIVO III BELO HORIZONTE - COMARCA; SECRETARIA PROCESSOS DISCIPES ADMINISTRATIVOS 0,00 0,00 10.858,90 3.569,37 3.619,63 0,00 0,00 2.105,00 20.152,90 1.753,90 3.267,97 0,00 0,00 5.021,87 15.131,03 31/12/2023
334 354500 APARECIDA VIEIRA DE CARVALHO OFICIAL DO MP BELO HORIZONTE - COMARCA; DIVISÃO DE EDUCAÇÃO PARA O CONSUMO 10.858,90 3.257,67 0,00 2.805,04 4.705,52 0,00 0,00 2.105,00 23.732,13 2.039,60 3.730,22 0,00 0,00 5.769,82 17.962,31 31/12/2023
335 551000 ARACELES BICALHO FELIX ANALISTA DO MP MANHUAÇU - COMARCA; MANHUACU-PJ-06PJ 12.343,61 2.468,72 0,00 3.275,49 4.937,44 0,00 0,00 4.005,00 27.030,26 2.150,92 3.954,72 0,00 0,00 6.105,64 20.924,62 31/12/2023
336 286200 ARACELI MEDRADO DOS SANTOS LIMA OFICIAL DO MP PARACATU - COMARCA; PARACATU-PJ-03PJ 7.506,70 3.002,68 0,00 2.858,14 3.503,13 0,00 750,67 3.055,00 20.676,32 1.702,67 2.566,31 0,00 0,00 4.268,98 16.407,34 31/12/2023
337 112200 ARAQUEM AUGUSTO DE MATOS AGENTE DO MP BELO HORIZONTE - COMARCA; BH-23PJ CIVEL-SEC EXP CIVEIS 13.588,97 12.230,08 0,00 7.205,50 9.910,35 3.912,00 0,00 2.105,00 48.951,90 3.912,00 8.836,35 0,00 0,00 12.748,35 36.203,55 31/12/2023
338 280600 ARDUINO FRATTEZI ANALISTA DO MP BELO HORIZONTE - COMARCA; CENTRAL DE APOIO TECNICO-SETOR CONTABIL 23.070,31 9.228,12 0,00 9.305,62 12.415,71 4.948,70 0,00 2.105,00 61.073,46 4.948,70 11.411,43 0,00 0,00 16.360,13 44.713,33 31/12/2023
339 520201 ARIANE DE FATIMA CARVALHO ALMEIDA RODRIGUES ANALISTA DO MP VESPASIANO - COMARCA; VESPASIANO-PJ-SECRETARIA 12.343,61 1.234,36 0,00 4.991,18 4.525,99 0,00 0,00 3.530,00 26.625,14 1.953,42 3.400,03 0,00 0,00 5.353,45 21.271,69 31/12/2023
340 537600 ARIELA FREIRE MONTIJO ANALISTA DO MP ARCOS - COMARCA; ARCOS-PJ-01PJ 12.343,61 2.468,72 0,00 2.762,59 4.937,44 0,00 0,00 2.105,00 24.617,36 2.150,92 3.850,45 0,00 0,00 6.001,37 18.615,99 31/12/2023
341 182000 ARILSON ALEXANDRE MARTINS MAGALHAES OFICIAL DO MP JOÃO MONLEVADE - COMARCA; JOAO MONLEVADE-PJ-01PJ 21.346,53 10.673,27 0,00 5.404,25 10.673,27 0,00 0,00 5.905,00 54.002,32 4.904,12 9.246,32 0,00 0,00 14.150,44 39.851,88 31/12/2023
342 511000 ARISLANE CAROLINA DA SILVA ANALISTA DO MP MONTE CARMELO - COMARCA; MONTE CARMELO-PJ-02PJ 12.343,61 2.468,72 0,00 2.658,31 4.937,44 0,00 0,00 4.005,00 26.413,08 2.150,92 3.954,72 0,00 0,00 6.105,64 20.307,44 31/12/2023
343 170000 ARLEY BRITES DA SILVA ASSESSOR ADMINISTRATIVO II BELO HORIZONTE - COMARCA; BH-14PJ DEFESA CONSUMIDOR-SECRETARIA 0,00 3.753,35 7.506,70 4.087,10 3.753,35 0,00 0,00 2.105,00 21.205,50 1.753,90 2.664,58 0,00 0,00 4.418,48 16.787,02 31/12/2023
344 120400 ARLINDO CASSIO DA CRUZ OFICIAL DO MP SÃO GONÇALO DO SAPUCAÍ - COMARCA; SAO GONCALO DO SAPUCAI-PJ-01PJ 23.070,31 20.763,28 0,00 9.446,98 14.461,77 5.795,34 0,00 2.411,72 75.949,40 5.795,34 13.897,32 6.243,63 0,00 25.936,29 50.013,11 31/12/2023
345 243700 ARLINDO MARCIO LACERDA OFICIAL DO MP CONTAGEM - COMARCA; CONTAGEM-PJ-SECRETARIA 18.130,77 9.065,39 0,00 4.835,60 9.655,94 0,00 1.771,66 2.105,00 45.564,36 4.132,33 8.600,18 0,00 0,00 12.732,51 32.831,85 31/12/2023
346 392100 ARNALDO DE ANDRADE OFICIAL DO MP DIVINÓPOLIS - COMARCA; DIVINOPOLIS-PJ-02PJ 12.343,61 4.443,70 0,00 3.694,65 6.186,32 0,00 1.771,66 2.833,33 31.273,27 2.466,92 5.189,45 0,00 0,00 7.656,37 23.616,90 31/12/2023
347 642400 ARTANE INARDE DE SIQUEIRA DAMASCENO ANALISTA DO MP BELO HORIZONTE - COMARCA; SECRETARIA DE ASSUNTOS INTERNACIONAIS 10.341,72 1.034,17 0,00 2.991,62 3.791,96 0,00 0,00 3.530,00 21.689,47 982,16 2.936,32 0,00 0,00 3.918,48 17.770,99 31/12/2023
348 733000 ARTHUR BRANDAO ALBUQUERQUE ASSESSOR ADMINISTRATIVO II BELO HORIZONTE - COMARCA; DIRETORIA DE PAGAMENTO DE PESSOAL-DPAG 0,00 0,00 7.506,70 3.648,61 0,00 0,00 0,00 2.105,00 13.260,31 1.578,63 1.350,72 0,00 0,00 2.929,35 10.330,96 31/12/2023
349 302100 AUGUSTO ROUSSEAU DE CASTRO ANALISTA DO MP CATAGUASES - COMARCA; CATAGUASES-PJ-02PJ 23.070,31 6.921,09 0,00 4.312,84 9.997,13 0,00 0,00 2.105,00 46.406,37 4.579,57 8.852,50 0,00 0,00 13.432,07 32.974,30 31/12/2023
350 540200 AUREA AVELAR BITTENCOURT OFICIAL DO MP BELO HORIZONTE - COMARCA; GRUPO ESP PROM JUST DEF PROB ADM PAT PUB 7.506,70 1.501,34 0,00 2.313,74 3.002,68 0,00 0,00 2.105,00 16.429,46 982,16 2.033,86 0,00 0,00 3.016,02 13.413,44 31/12/2023
351 633501 AUREA GONTIJO BIRCHAL ASSESSOR DE GABINETE I BELO HORIZONTE - COMARCA; PROCURADOR-GERAL DE JUSTIÇA 0,00 0,00 18.130,77 5.205,54 6.043,59 0,00 0,00 2.105,00 31.484,90 1.753,90 5.934,33 0,00 0,00 7.688,23 23.796,67 31/12/2023
352 183200 AURELIANO MAGELA DE REZENDE OFICIAL DO MP BELO HORIZONTE - COMARCA; COORD DE GABINETE DO PGJ 23.070,31 9.228,12 6.160,10 7.096,25 12.529,99 0,00 0,00 2.105,00 60.189,77 4.948,70 11.616,75 868,57 0,00 17.434,02 42.755,75 31/12/2023
353 629400 AYESKA DA COSTA VAL MOURA DABIEN OFICIAL DO MP BELO HORIZONTE - COMARCA; BH-09PJ AUDITORIA MILITAR-SECRETARIA 7.506,70 750,67 0,00 2.322,15 2.752,46 0,00 0,00 2.105,00 15.436,98 1.102,13 1.839,66 0,00 0,00 2.941,79 12.495,19 31/12/2023
354 707400 AYMEE JOHANSSENN TYNEE CORREIA ALVES ASSESSOR PROMOTOR JUSTICA NOVA LIMA - COMARCA; NOVA LIMA-PJ-01PJ 0,00 0,00 8.810,89 3.108,57 2.936,96 0,00 528,65 2.105,00 17.490,07 1.753,90 2.517,04 0,00 0,00 4.270,94 13.219,13 31/12/2023
355 701600 BARBARA CHAVES OLIVEIRA ASSESSOR PROCURADOR JUSTICA BELO HORIZONTE - COMARCA; PROC. JUSTICA DIR. DIFUSOS E COLETIVOS-SEC 0,00 0,00 8.810,89 3.108,57 2.936,96 0,00 0,00 2.105,00 16.961,42 1.753,90 2.517,04 0,00 0,00 4.270,94 12.690,48 31/12/2023
356 691900 BARBARA COUTINHO REIS ASSESSOR PROCURADOR JUSTICA BELO HORIZONTE - COMARCA; GABINETE DE PROCURADOR DE JUSTIÇA - SALA 910 0,00 0,00 8.810,89 3.108,57 2.936,96 0,00 0,00 2.105,00 16.961,42 1.753,90 2.517,04 0,00 0,00 4.270,94 12.690,48 31/12/2023
357 692200 BARBARA CRISTINA MENDES BANDEIRA DE MELO DUTRA ASSESSOR PROCURADOR JUSTICA BELO HORIZONTE - COMARCA; GABINETE DE PROCURADOR DE JUSTIÇA - SALA 1009 0,00 0,00 8.810,89 3.108,57 2.936,96 0,00 0,00 2.105,00 16.961,42 1.753,90 2.517,04 0,00 0,00 4.270,94 12.690,48 31/12/2023
358 743300 BARBARA CRISTINA SOUZA E SOUSA ASSESSOR PROCURADOR JUSTICA BELO HORIZONTE - COMARCA; GABINETE DE PROCURADOR DE JUSTIÇA - SALA 513 0,00 0,00 8.810,89 4.184,75 0,00 0,00 0,00 2.105,00 15.100,64 1.319,62 1.709,37 0,00 0,00 3.028,99 12.071,65 31/12/2023
359 723400 BARBARA CRISTINA TAVARES CARNEIRO ASSESSOR PROCURADOR JUSTICA BELO HORIZONTE - COMARCA; GABINETE DE PROCURADOR DE JUSTIÇA - SALA 501 0,00 0,00 8.810,89 3.108,57 2.936,96 0,00 0,00 2.105,00 16.961,42 1.753,90 2.517,04 0,00 0,00 4.270,94 12.690,48 31/12/2023
360 652800 BARBARA JULIANNE MOREIRA CASTRO ASSESSOR PROCURADOR JUSTICA BELO HORIZONTE - COMARCA; ASSESS TECNICO-JUR JUNTO AS PROC. DE JUST 0,00 0,00 8.810,89 3.108,57 2.936,96 0,00 0,00 2.105,00 16.961,42 1.753,90 2.517,04 0,00 0,00 4.270,94 12.690,48 31/12/2023
361 707700 BARBARA LOUISE PUFF DE OLIVEIRA ASSESSOR PROMOTOR JUSTICA RIBEIRÃO DAS NEVES - COMARCA; RIBEIRAO DAS NEVES-PJ-02PJ 0,00 0,00 8.810,89 3.108,57 2.936,96 0,00 0,00 2.105,00 16.961,42 1.753,90 2.517,04 0,00 0,00 4.270,94 12.690,48 31/12/2023
362 663600 BARBARA REGINA PEREIRA DE PINHO MAGALHAES ASSESSOR PROMOTOR JUSTICA BELO HORIZONTE - COMARCA; CAO-DH CONT EXT ATIV POLIC E AP COMUNIT 0,00 0,00 8.810,89 7.514,02 2.936,96 0,00 0,00 2.105,00 21.366,87 1.753,90 2.517,04 0,00 0,00 4.270,94 17.095,93 31/12/2023
363 546500 BARBARA ZACARONI GOULART OFICIAL DO MP BETIM - COMARCA; BETIM-PJ-08PJ 7.506,70 1.501,34 0,00 3.264,84 3.002,68 0,00 0,00 2.105,00 17.380,56 1.222,23 2.081,87 0,00 0,00 3.304,10 14.076,46 31/12/2023
364 316500 BEATRIZ ABILVIA DA SILVA ANALISTA DO MP GOVERNADOR VALADARES - COMARCA; GOVERNADOR VALADARES-PJ-07PJ 23.070,31 6.921,09 0,00 8.204,13 11.523,66 4.579,57 0,00 2.105,00 56.403,76 4.579,57 10.531,68 0,00 0,00 15.111,25 41.292,51 31/12/2023
365 311800 BEATRIZ APARECIDA SOARES GANEM OFICIAL DO MP ITAMBACURI - COMARCA; ITAMBACURI-PJ-02PJ 14.960,00 5.984,00 0,00 4.442,80 6.981,33 0,00 0,00 2.105,00 34.473,13 3.131,99 5.828,93 0,00 0,00 8.960,92 25.512,21 31/12/2023
366 266800 BEATRIZ AUGUSTA VILACA GOMES DE HUBER OFICIAL DO MP BELO HORIZONTE - COMARCA; BH-05PJ-JUÍZO SUCESSÕES-SEC 12.343,61 4.937,44 0,00 11.567,93 5.760,35 0,00 0,00 2.105,00 36.714,33 2.545,92 4.751,30 0,00 0,00 7.297,22 29.417,11 31/12/2023
367 235200 BEATRIZ BOTELHO BATISTA OFICIAL DO MP MATEUS LEME - COMARCA; MATEUS LEME-PJ-02PJ 12.343,61 4.937,44 0,00 2.927,40 5.760,35 0,00 0,00 2.105,00 28.073,80 2.545,92 4.751,30 0,00 0,00 7.297,22 20.776,58 31/12/2023
368 182300 BEATRIZ PAULA SOUSA RAMOS OFICIAL DO MP MARIANA - COMARCA; MARIANA-PJ-01PJ 21.346,53 10.673,27 0,00 20.543,83 10.673,27 0,00 0,00 2.105,00 65.341,90 4.904,12 9.507,00 0,00 0,00 14.411,12 50.930,78 31/12/2023
369 507000 BELCHIOR FRANKLIN AMARAL LEITE ANALISTA DO MP BELO HORIZONTE - COMARCA; CAO ORGAOS MPMG DESIG FUNC ELEITORAIS-SEC 14.960,00 3.889,60 0,00 7.114,10 6.283,20 0,00 0,00 2.960,00 35.206,90 2.796,88 5.101,01 0,00 0,00 7.897,89 27.309,01 31/12/2023
370 345100 BENITO ELIAS RODRIGUES ANALISTA DO MP BARBACENA - COMARCA; BARBACENA - SECRETARIA DAS PJS CRIMINAIS 22.191,68 6.657,50 0,00 4.789,81 9.616,39 0,00 0,00 3.055,00 46.310,38 4.396,82 8.431,81 0,00 0,00 12.828,63 33.481,75 31/12/2023
371 207300 BENITO VIEIRA DOS SANTOS ANALISTA DO MP BELO HORIZONTE - COMARCA; PROC JUST ESP ACOES COMP ORIG CRIMINAL-ASSESS 23.070,31 11.535,16 0,00 10.209,76 13.307,76 5.317,82 0,00 2.105,00 65.545,81 5.317,82 10.221,95 0,00 0,00 15.539,77 50.006,04 31/12/2023
372 480200 BERNADETE NUNES DOS SANTOS ANALISTA DO MP GUANHÃES - COMARCA; GUANHAES-PJ-02PJ 12.343,61 4.937,44 0,00 2.927,40 5.760,35 0,00 0,00 2.105,00 28.073,80 2.545,92 4.751,30 0,00 0,00 7.297,22 20.776,58 31/12/2023
373 378400 BETANIA FARNESI DE SOUZA E SILVA OFICIAL DO MP CURVELO - COMARCA; CURVELO-PJ-01PJ 12.343,61 4.937,44 0,00 11.620,07 5.760,35 0,00 0,00 2.105,00 36.766,47 2.545,92 4.699,16 0,00 0,00 7.245,08 29.521,39 31/12/2023
374 387400 BETANIA MENDONCA DE ASSIS CARVALHO ANALISTA DO MP JUIZ DE FORA - COMARCA; JUIZ DE FORA-PJ-03PJ 20.533,67 6.160,10 0,00 5.183,87 8.897,92 0,00 0,00 3.055,00 43.830,56 4.051,95 7.736,33 0,00 0,00 11.788,28 32.042,28 31/12/2023
375 714400 BIANCA DE CASTRO RAMOS ASSESSOR PROMOTOR JUSTICA BETIM - COMARCA; BETIM-PJ-13PJ 0,00 0,00 8.810,89 7.514,02 2.936,96 0,00 0,00 2.105,00 21.366,87 1.753,90 2.517,04 0,00 0,00 4.270,94 17.095,93 31/12/2023
376 450300 BIANCA OLIVEIRA DE ALBUQUERQUE ANALISTA DO MP BELO HORIZONTE - COMARCA; BH-10PJ EXECUÇÃO PENAL-SECRETARIA 12.343,61 2.468,72 0,00 2.658,31 4.937,44 0,00 0,00 3.055,00 25.463,08 2.150,92 3.954,72 0,00 0,00 6.105,64 19.357,44 31/12/2023
377 535400 BIANCA SALOTO ROSSI ANALISTA DO MP SANTOS DUMONT - COMARCA; SANTOS DUMONT-PJ-01PJ 12.343,61 2.468,72 0,00 2.658,31 4.937,44 0,00 0,00 3.055,00 25.463,08 2.150,92 3.954,72 0,00 0,00 6.105,64 19.357,44 31/12/2023
378 120800 BRAS MARQUES DE SOUZA ANALISTA DO MP BELO HORIZONTE - COMARCA; SUPERINTENDENCIA DE GESTAO ADMINISTRATIVA 29.122,38 26.210,14 0,00 9.446,98 14.461,77 5.795,34 0,00 2.105,00 87.141,61 5.795,34 14.951,39 17.742,56 0,00 38.489,29 48.652,32 31/12/2023
379 756500 BRENDA LORRANA FRANCO ASSESSOR PROMOTOR JUSTICA UBERLÂNDIA - COMARCA; UBERLANDIA-PJ-20PJ 0,00 0,00 8.810,89 1.468,48 0,00 0,00 0,00 2.105,00 12.384,37 989,31 1.709,37 0,00 0,00 2.698,68 9.685,69 31/12/2023
380 724400 BRENDA PIMENTEL DE SOUZA VIANA ASSESSOR PROMOTOR JUSTICA MANHUMIRIM - COMARCA; MANHUMIRIM-PJ-01PJ 0,00 0,00 8.810,89 7.514,02 2.936,96 0,00 0,00 2.105,00 21.366,87 1.753,90 2.517,04 0,00 0,00 4.270,94 17.095,93 31/12/2023
381 710500 BRENNO VINICIUS MAGESTE ROSA ASSESSOR PROMOTOR JUSTICA MANHUAÇU - COMARCA; MANHUACU-PJ-02PJ 0,00 0,00 8.810,89 4.195,49 2.936,96 0,00 0,00 2.105,00 18.048,34 1.753,90 2.517,04 0,00 0,00 4.270,94 13.777,40 31/12/2023
382 460900 BRENO CRISTIANO DE SOUZA REZENDE ANALISTA DO MP ITAÚNA - COMARCA; ITAUNA-PJ-02PJ 12.343,61 2.468,72 0,00 2.658,31 4.937,44 0,00 0,00 2.105,00 24.513,08 2.150,92 3.954,72 0,00 0,00 6.105,64 18.407,44 31/12/2023
383 239000 BRENO VENANCIO ROMANINI OFICIAL DO MP BELO HORIZONTE - COMARCA; BH-20PJ ORD ECON TRIBUTARIA-SECRETARIA 12.343,61 4.937,44 0,00 11.567,93 5.760,35 0,00 570,27 8.326,18 43.505,78 2.545,92 4.751,30 0,00 0,00 7.297,22 36.208,56 31/12/2023
384 722100 BRUNA HENRIQUE DE SOUZA ASSESSOR PROMOTOR JUSTICA PIRAPETINGA - COMARCA; PIRAPETINGA-PJ-UNPJ 0,00 0,00 8.810,89 3.108,57 2.936,96 0,00 0,00 2.105,00 16.961,42 1.753,90 2.517,04 0,00 0,00 4.270,94 12.690,48 31/12/2023
385 642300 BRUNA IZABELITA DE FATIMA OLIVEIRA COSTA OFICIAL DO MP BELO HORIZONTE - COMARCA; BH-02PJ FAMILIA-SECRETARIA 7.506,70 750,67 0,00 6.072,51 2.752,46 0,00 0,00 2.105,00 19.187,34 1.102,13 1.839,66 0,00 0,00 2.941,79 16.245,55 31/12/2023
386 513600 BRUNA KARLA MARTINS CARVALHO ANALISTA DO MP GOVERNADOR VALADARES - COMARCA; GOVERNADOR VALADARES-PJ-14PJ 12.343,61 2.468,72 0,00 3.656,32 4.937,44 0,00 0,00 2.105,00 25.511,09 982,16 4.125,47 0,00 0,00 5.107,63 20.403,46 31/12/2023
387 415100 BRUNA MARIA SOARES OLIVEIRA COSTA RAMOS ANALISTA DO MP UBÁ - COMARCA; COORD REG BACIA DO RIO PARAIBA DO SUL 18.720,84 5.616,25 0,00 10.176,19 8.112,36 0,00 2.407,50 8.844,50 53.877,64 1.090,14 7.421,43 0,00 0,00 8.511,57 45.366,07 31/12/2023
388 692900 BRUNA MENDES COELHO ASSESSOR PROCURADOR JUSTICA BELO HORIZONTE - COMARCA; GABINETE DE PROCURADOR DE JUSTIÇA - SALA 801 0,00 0,00 8.810,89 4.195,49 2.936,96 0,00 0,00 2.105,00 18.048,34 1.753,90 2.517,04 0,00 0,00 4.270,94 13.777,40 31/12/2023
389 470000 BRUNA MORAES ANALISTA DO MP TOMBOS - COMARCA; TOMBOS-PJ-UNPJ 17.559,01 4.565,34 0,00 5.104,00 7.374,78 0,00 1.327,46 2.105,00 38.035,59 3.533,23 6.157,66 0,00 0,00 9.690,89 28.344,70 31/12/2023
390 614700 BRUNA NATTANY DE LIMA OFICIAL DO MP MANTENA - COMARCA; MANTENA-PJ-01PJ 7.506,70 750,67 0,00 1.943,82 2.752,46 0,00 495,44 3.055,00 16.504,09 1.181,40 1.839,66 0,00 0,00 3.021,06 13.483,03 31/12/2023
391 729800 BRUNA PAULA AMARAL CEOLIN ASSESSOR PROMOTOR JUSTICA COMARCA - JUATUBA; JUATUBA-PJ-UNPJ 0,00 0,00 8.810,89 3.108,57 2.936,96 0,00 528,65 2.105,00 17.490,07 1.753,90 2.517,04 0,00 0,00 4.270,94 13.219,13 31/12/2023
392 631800 BRUNA RAPOSO JORGE OFICIAL DO MP JUIZ DE FORA - COMARCA; JUIZ DE FORA-PJ-06PJ 7.506,70 750,67 0,00 1.943,82 2.752,46 0,00 0,00 3.055,00 16.008,65 1.102,13 1.839,66 0,00 0,00 2.941,79 13.066,86 31/12/2023
393 707800 BRUNA ROMIE WERDINE ASSESSOR PROMOTOR JUSTICA IBIRITÉ - COMARCA; IBIRITE-PJ-06PJ 0,00 0,00 8.810,89 3.108,57 2.936,96 0,00 528,65 2.105,00 17.490,07 1.753,90 2.517,04 0,00 0,00 4.270,94 13.219,13 31/12/2023
394 699300 BRUNA URSINE TIMO ASSESSOR PROCURADOR JUSTICA BELO HORIZONTE - COMARCA; PROC JUST ESP ACOES COMP ORIG CRIMINAL-GAB 0,00 0,00 8.810,89 3.108,57 2.936,96 0,00 0,00 2.105,00 16.961,42 1.753,90 2.517,04 0,00 0,00 4.270,94 12.690,48 31/12/2023
395 463800 BRUNO ALVES TEIXEIRA ANALISTA DO MP UBERLÂNDIA - COMARCA; UBERLANDIA-PJ-04PJ 12.343,61 2.468,72 0,00 2.658,31 4.937,44 0,00 0,00 2.105,00 24.513,08 2.150,92 3.954,72 0,00 0,00 6.105,64 18.407,44 31/12/2023
396 538500 BRUNO AUGUSTO DA SILVA OFICIAL DO MP SANTA LUZIA - COMARCA; SANTA LUZIA-PJ-03PJ 7.506,70 1.501,34 0,00 6.529,67 3.002,68 0,00 0,00 2.105,00 20.645,39 1.222,23 2.081,87 0,00 0,00 3.304,10 17.341,29 31/12/2023
397 318200 BRUNO BARROS DE SOUZA OFICIAL DO MP BELO HORIZONTE - COMARCA; DIRETORIA GESTAO CONTRATOS CONVENIOS 12.343,61 3.703,08 0,00 4.405,42 5.348,90 0,00 0,00 2.105,00 27.906,01 982,16 3.989,40 0,00 0,00 4.971,56 22.934,45 31/12/2023
398 459600 BRUNO CASTELAR LUGAO MENDES OFICIAL DO MP BELO HORIZONTE - COMARCA; PROC JUST ATUACAO TRIBUNAIS SUPERIORES 11.212,54 2.242,51 4.346,47 13.201,67 5.933,84 0,00 0,00 3.055,00 39.992,03 982,16 5.249,50 0,00 0,00 6.231,66 33.760,37 31/12/2023
399 427400 BRUNO CESAR RIBEIRO DE PAIVA ANALISTA DO MP BELO HORIZONTE - COMARCA; DIRETORIA DO COLEGIO E DA CAMARA DE PJ 18.720,84 3.744,17 0,00 3.846,50 7.488,34 0,00 0,00 2.105,00 35.904,85 3.375,35 6.423,99 0,00 0,00 9.799,34 26.105,51 31/12/2023
400 380900 BRUNO CIRILO ANTUNES OFICIAL DO MP VARGINHA - COMARCA; VARGINHA-PJ-05PJ 12.343,61 3.703,08 0,00 3.045,83 5.348,90 0,00 962,80 2.105,00 27.509,22 2.502,47 4.353,01 0,00 0,00 6.855,48 20.653,74 31/12/2023
401 329000 BRUNO DE MELO REIS ANALISTA DO MP PATROCÍNIO - COMARCA; PATROCINIO-PJ-02PJ 23.070,31 9.228,12 0,00 5.283,61 10.766,14 0,00 0,00 4.005,00 52.353,18 4.948,70 9.492,63 0,00 0,00 14.441,33 37.911,85 31/12/2023
402 697800 BRUNO GAZZOLA BEZERRA FALCAO ASSESSOR PROCURADOR JUSTICA BELO HORIZONTE - COMARCA; PROCURADOR-GERAL ADJUNTO JURIDICO- GABINETE 0,00 0,00 8.810,89 3.108,57 2.936,96 0,00 0,00 2.105,00 16.961,42 1.753,90 2.517,04 0,00 0,00 4.270,94 12.690,48 31/12/2023
403 378300 BRUNO HERDY LOPES DE OLIVEIRA ANALISTA DO MP GOVERNADOR VALADARES - COMARCA; GOVERNADOR VALADARES-PJ-03PJ 20.533,67 6.160,10 0,00 5.131,73 8.897,92 0,00 0,00 2.105,00 42.828,42 4.051,95 7.788,47 0,00 0,00 11.840,42 30.988,00 31/12/2023
404 529700 BRUNO JOSE BUENO DIAS OFICIAL DO MP SÃO SEBASTIÃO DO PARAÍSO - COMARCA; SAO SEBASTIAO DO PARAISO-PJ-02PJ 7.506,70 1.501,34 0,00 2.077,79 3.002,68 0,00 0,00 2.105,00 16.193,51 1.222,23 2.029,74 0,00 0,00 3.251,97 12.941,54 31/12/2023
405 691600 BRUNO JOSE RIBEIRO ASSESSOR PROMOTOR JUSTICA CLÁUDIO - COMARCA; CLAUDIO-PJ-UNPJ 0,00 0,00 8.810,89 2.576,24 2.936,96 0,00 528,65 2.105,00 16.957,74 1.753,90 2.517,04 0,00 0,00 4.270,94 12.686,80 31/12/2023
406 350100 BRUNO LAUD SERRANO DOS REIS OFICIAL DO MP UBÁ - COMARCA; UBA-PJ-02PJ 12.343,61 4.937,44 0,00 2.979,54 5.760,35 0,00 0,00 2.105,00 28.125,94 2.545,92 4.699,16 0,00 0,00 7.245,08 20.880,86 31/12/2023
407 728900 BRUNO LIMA PITANGA ASSESSOR PROMOTOR JUSTICA BELO HORIZONTE - COMARCA; NUCLEO DA EXECUCAO PENAL 0,00 0,00 8.810,89 3.108,57 2.936,96 0,00 0,00 3.055,00 17.911,42 1.753,90 2.517,04 0,00 0,00 4.270,94 13.640,48 31/12/2023
408 745900 BRUNO LUIZ MARQUES ROCHA OFICIAL DO MP RIBEIRÃO DAS NEVES - COMARCA; RIBEIRAO NEVES-SEC PJ EXECUCAO PENAL 4.570,25 0,00 0,00 2.029,38 0,00 0,00 0,00 2.105,00 8.704,63 671,06 225,59 0,00 0,00 896,65 7.807,98 31/12/2023
409 373800 BRUNO MARTINO DE ALBUQUERQUE ANALISTA DO MP PONTE NOVA - COMARCA; PONTE NOVA-PJ-03PJ 20.533,67 6.160,10 0,00 5.236,00 8.897,92 0,00 0,00 2.105,00 42.932,69 4.051,95 7.684,19 0,00 0,00 11.736,14 31.196,55 31/12/2023
410 732900 BRUNO NOGUEIRA GUIMARAES ASSESSOR ADMINISTRATIVO I BELO HORIZONTE - COMARCA; COORD DE INCLUSAO E MOBILIZACAO SOCIAIS 0,00 0,00 4.872,71 2.498,42 0,00 0,00 0,00 2.105,00 9.476,13 1.112,47 670,06 0,00 0,00 1.782,53 7.693,60 31/12/2023
411 470400 BRUNO NOVAIS CABRAL ANALISTA DO MP MUTUM - COMARCA; MUTUM-PJ-UNPJ 12.343,61 2.468,72 0,00 2.658,31 4.937,44 0,00 0,00 3.055,00 25.463,08 2.150,92 3.954,72 0,00 0,00 6.105,64 19.357,44 31/12/2023
412 648600 BRUNO RIBEIRO E MELO COORDENADOR I BELO HORIZONTE - COMARCA; DIR RELACOES INSTITUCIONAIS 0,00 0,00 16.469,17 4.831,68 5.489,72 0,00 0,00 2.105,00 28.895,57 1.753,90 5.325,07 0,00 0,00 7.078,97 21.816,60 31/12/2023
413 369200 BRUNO ROBERTO DIAS DE OLIVEIRA OFICIAL DO MP BELO HORIZONTE - COMARCA; BH-22PJ PES COM DEF E IDOSOS-SECRETARIA 12.343,61 3.703,08 0,00 3.959,52 5.348,90 0,00 0,00 2.105,00 27.460,11 982,16 4.552,61 0,00 0,00 5.534,77 21.925,34 31/12/2023
414 547700 BRUNO ROBERTO SOUZA GONCALVES ANALISTA DO MP PARACATU - COMARCA; PARACATU-PJ-03PJ 12.343,61 2.468,72 0,00 2.658,31 4.937,44 0,00 0,00 3.055,00 25.463,08 2.150,92 3.954,72 0,00 0,00 6.105,64 19.357,44 31/12/2023
415 546100 BRUNO SA VIEIRA ANALISTA DO MP BARBACENA - COMARCA; BARBACENA-PJ-SECRETARIA 12.343,61 2.468,72 0,00 2.762,59 4.937,44 0,00 0,00 3.055,00 25.567,36 2.150,92 3.850,45 0,00 0,00 6.001,37 19.565,99 31/12/2023
416 438200 BRUNO SALES PEREIRA ANALISTA DO MP BELO HORIZONTE - COMARCA; CENTRAL DE APOIO TECNICO-SETOR CONTABIL 17.559,01 3.511,80 0,00 4.358,11 7.023,60 0,00 0,00 2.105,00 34.557,52 3.152,28 5.921,99 0,00 0,00 9.074,27 25.483,25 31/12/2023
417 537400 BRUNO SANT'ANA CESAR ANALISTA DO MP BELO HORIZONTE - COMARCA; BH-12PJ JUIZO CRIMINAL-GAB 105PJ 12.343,61 2.468,72 0,00 2.658,31 4.937,44 0,00 0,00 2.105,00 24.513,08 2.150,92 3.954,72 0,00 0,00 6.105,64 18.407,44 31/12/2023
418 727700 BYANKA DA SILVA MORAIS ASSESSOR PROCURADOR JUSTICA BELO HORIZONTE - COMARCA; GABINETE DE PROCURADOR DE JUSTIÇA - SALA 805 0,00 0,00 8.810,89 4.195,49 2.936,96 0,00 0,00 2.105,00 18.048,34 1.753,90 2.517,04 0,00 0,00 4.270,94 13.777,40 31/12/2023
419 748100 CAETANO ALBERTO MARTINS BOTELHO ASSESSOR PROMOTOR JUSTICA COROMANDEL - COMARCA; COROMANDEL-PJ-02PJ 0,00 0,00 8.810,89 3.570,12 0,00 0,00 0,00 2.105,00 14.486,01 1.220,54 1.709,37 0,00 0,00 2.929,91 11.556,10 31/12/2023
420 405800 CAIO FERNANDO RODRIGUES DE OLIVEIRA ANALISTA DO MP BELO HORIZONTE - COMARCA; ASSESSORIA JURIDICO-ADMINISTRATIVA 18.720,84 5.616,25 0,00 7.100,81 8.112,36 0,00 0,00 2.105,00 41.655,26 982,16 7.606,56 0,00 0,00 8.588,72 33.066,54 31/12/2023
421 530000 CAIO GUEDES DE OLIVEIRA ANALISTA DO MP DIAMANTINA - COMARCA; DIAMANTINA-PJ-02PJ 12.343,61 2.468,72 0,00 5.058,31 4.937,44 0,00 0,00 2.105,00 26.913,08 2.150,92 3.902,59 0,00 0,00 6.053,51 20.859,57 31/12/2023
422 491400 CAIO MIRANDA JUNQUEIRA ANALISTA DO MP BELO HORIZONTE - COMARCA; CENT ESTAD COOPERACAO TECNICO-JURIDICA 12.343,61 2.468,72 0,00 2.762,59 4.937,44 0,00 0,00 2.105,00 24.617,36 2.150,92 3.850,45 0,00 0,00 6.001,37 18.615,99 31/12/2023
423 415800 CAMILA ALVES DA SILVA ANALISTA DO MP CAETÉ - COMARCA; CAETE-PJ-01PJ 18.720,84 5.616,25 0,00 5.718,58 8.112,36 0,00 3.332,31 2.105,00 43.605,34 4.489,60 7.028,05 0,00 0,00 11.517,65 32.087,69 31/12/2023
424 555800 CAMILA CAROLINE ROCHA CHAVES OFICIAL DO MP SALINAS - COMARCA; SALINAS-PJ-01PJ 7.506,70 1.501,34 0,00 3.264,84 3.002,68 0,00 0,00 3.055,00 18.330,56 1.222,23 2.081,87 0,00 0,00 3.304,10 15.026,46 31/12/2023
425 747700 CAMILA CATIA VILELA VIANA ASSESSOR DE CAO BELO HORIZONTE - COMARCA; CAO-SAUDE-ASSESSORIA 0,00 0,00 7.506,70 2.872,64 0,00 0,00 0,00 2.105,00 12.484,34 571,41 1.022,24 0,00 0,00 1.593,65 10.890,69 31/12/2023
426 445200 CAMILA CONDE ROCHA ANALISTA DO MP CONTAGEM - COMARCA; CONTAGEM-PJ-21PJ 14.960,00 2.992,00 0,00 3.823,16 5.984,00 0,00 0,00 2.105,00 29.864,16 2.653,27 4.967,79 0,00 0,00 7.621,06 22.243,10 31/12/2023
427 419900 CAMILA CUNNINGHAM PIMENTA DE PADUA ANALISTA DO MP BELO HORIZONTE - COMARCA; ASSESSORIA PSICOSSOCIAL 18.720,84 5.616,25 0,00 5.718,58 16.224,72 0,00 1.872,08 2.105,00 50.257,47 4.273,94 9.258,95 0,00 0,00 13.532,89 36.724,58 31/12/2023
428 742700 CAMILA DA SILVA GONCALVES ANALISTA DO MP BELO HORIZONTE - COMARCA; DIV FISCAL ADM CONT TERCEIRIZACAO 7.040,78 0,00 0,00 3.033,51 0,00 0,00 0,00 2.105,00 12.179,29 909,81 801,06 0,00 0,00 1.710,87 10.468,42 31/12/2023
429 714200 CAMILA DE SOUSA CUNHA ASSESSOR PROMOTOR JUSTICA PRADOS - COMARCA; PRADOS-PJ-UNPJ 0,00 0,00 8.810,89 3.108,57 2.936,96 0,00 528,65 2.105,00 17.490,07 1.753,90 2.517,04 0,00 0,00 4.270,94 13.219,13 31/12/2023
430 507700 CAMILA ELIZABETH RODRIGUES ANALISTA DO MP BELO HORIZONTE - COMARCA; BH-02PJ FAMILIA-SECRETARIA 15.447,01 3.089,40 0,00 3.356,45 6.178,80 0,00 0,00 2.105,00 30.176,66 2.746,77 5.156,36 0,00 0,00 7.903,13 22.273,53 31/12/2023
431 372700 CAMILA FONSECA LIMONGE ANALISTA DO MP BETIM - COMARCA; BETIM-PJ-01PJ 20.533,67 6.160,10 0,00 5.131,73 8.897,92 0,00 0,00 2.105,00 42.828,42 4.051,95 7.788,47 0,00 0,00 11.840,42 30.988,00 31/12/2023
432 621300 CAMILA GOLFETO DE SOUSA VALENTE OFICIAL DO MP CARANGOLA - COMARCA; CARANGOLA-PJ-SECRETARIA 7.506,70 750,67 0,00 2.048,09 2.752,46 0,00 0,00 3.530,00 16.587,92 1.102,13 1.735,38 0,00 0,00 2.837,51 13.750,41 31/12/2023
433 409800 CAMILA GONCALVES COSTA RIBEIRO ANALISTA DO MP IPATINGA - COMARCA; GAECO REGIONAL DE IPATINGA 12.343,61 3.703,08 0,00 3.514,31 5.348,90 0,00 0,00 3.055,00 27.964,90 2.348,42 4.248,74 0,00 0,00 6.597,16 21.367,74 31/12/2023
434 335000 CAMILA GONTIJO DE PAIVA ANALISTA DO MP BELO HORIZONTE - COMARCA; COORD DE CONTROLE CONSTITUCIONALIDADE 23.070,31 6.921,09 0,00 9.680,34 9.997,13 0,00 0,00 2.105,00 51.773,87 4.579,57 8.800,37 0,00 0,00 13.379,94 38.393,93 31/12/2023
435 693400 CAMILA HECKSHER MONTEIRO ASSESSOR PROCURADOR JUSTICA BELO HORIZONTE - COMARCA; GABINETE DE PROCURADOR DE JUSTIÇA - SALA 613 0,00 0,00 8.810,89 3.108,57 2.936,96 0,00 0,00 2.105,00 16.961,42 1.753,90 2.517,04 0,00 0,00 4.270,94 12.690,48 31/12/2023
436 696000 CAMILA IMACULADA OLIVEIRA ASSESSOR PROCURADOR JUSTICA BELO HORIZONTE - COMARCA; GABINETE DE PROCURADOR DE JUSTICA - SALA 312 0,00 0,00 8.810,89 7.514,02 2.936,96 0,00 0,00 2.105,00 21.366,87 1.753,90 2.517,04 0,00 0,00 4.270,94 17.095,93 31/12/2023
437 547800 CAMILA MATTARELLI DE ABREU E SILVA ANALISTA DO MP BELO HORIZONTE - COMARCA; CAO-VIOLENCIA DOMESTICA E FAMILIAR 12.343,61 2.468,72 0,00 2.658,31 4.937,44 0,00 0,00 2.105,00 24.513,08 2.150,92 3.954,72 0,00 0,00 6.105,64 18.407,44 31/12/2023
438 735800 CAMILA REGINA DE OLIVEIRA ASSESSOR ADMINISTRATIVO II BELO HORIZONTE - COMARCA; CENTRO AUTOCOMPOSICAO DE CONFLITOS 0,00 0,00 7.506,70 4.648,99 0,00 0,00 0,00 2.105,00 14.260,69 1.403,48 1.350,72 0,00 0,00 2.754,20 11.506,49 31/12/2023
439 752700 CAMILA RODRIGUES MAURO ASSESSOR PROMOTOR JUSTICA CONTAGEM - COMARCA; CONTAGEM-PJ-22PJ 0,00 0,00 8.810,89 2.914,69 0,00 0,00 0,00 2.105,00 13.830,58 1.132,44 1.709,37 0,00 0,00 2.841,81 10.988,77 31/12/2023
440 430000 CANDIDA MARINA COSTA ANALISTA DO MP BELO HORIZONTE - COMARCA; DIRET DE INFORMACAO E CONHECIMENTO-DINC/CEAF 18.720,84 3.744,17 0,00 3.846,50 7.488,34 0,00 0,00 2.105,00 35.904,85 3.375,35 6.423,99 0,00 0,00 9.799,34 26.105,51 31/12/2023
441 614300 CARINA CORTIELHA OFICIAL DO MP BELO HORIZONTE - COMARCA; BH-23PJ CIVEL-FISC AC POL PUB I 7.506,70 750,67 0,00 3.266,67 2.752,46 0,00 1.135,42 2.105,00 17.516,92 1.181,40 1.839,66 0,00 0,00 3.021,06 14.495,86 31/12/2023
442 380400 CARINA DIAS FACANHA DE SOUZA ANALISTA DO MP SANTA RITA DO SAPUCAÍ - COMARCA; SANTA RITA DO SAPUCAI-PJ-01PJ 20.533,67 6.160,10 0,00 5.131,73 8.897,92 0,00 0,00 3.055,00 43.778,42 4.051,95 7.788,47 0,00 0,00 11.840,42 31.938,00 31/12/2023
443 255000 CARLA ADRIANA DE MENEZES OFICIAL DO MP BELO HORIZONTE - COMARCA; CENT DE APOIO TEC-SETOR DEF,IDOSO E INFANC 12.343,61 4.937,44 0,00 2.927,40 5.760,35 0,00 0,00 2.105,00 28.073,80 2.545,92 4.751,30 0,00 0,00 7.297,22 20.776,58 31/12/2023
444 425100 CARLA ADRIANA DINIZ AMARAL OFICIAL DO MP CONTAGEM - COMARCA; CONTAGEM-PJ-SECRETARIA 12.343,61 2.468,72 2.918,39 3.993,59 5.910,24 0,00 0,00 2.105,00 29.739,55 2.150,92 5.024,80 0,00 0,00 7.175,72 22.563,83 31/12/2023
445 508100 CARLA ALESSANDRA FONSECA ANALISTA DO MP BELO HORIZONTE - COMARCA; CAO-ORDEM ECONOMICA E TRIBUTARIA-SECRETARIA 12.343,61 2.468,72 0,00 10.064,48 4.937,44 0,00 0,00 2.105,00 31.919,25 2.150,92 3.954,72 0,00 0,00 6.105,64 25.813,61 31/12/2023
446 607100 CARLA ANGELICA DIAS MIRANDA OFICIAL DO MP SANTA LUZIA - COMARCA; SANTA LUZIA-PJ-SECRETARIA 7.506,70 750,67 0,00 3.114,46 2.752,46 0,00 0,00 2.105,00 16.229,29 1.102,13 1.683,25 0,00 0,00 2.785,38 13.443,91 31/12/2023
447 351500 CARLA APARECIDA MENDES RAMIRIO OFICIAL DO MP PASSOS - COMARCA; PASSOS-PJ-01PJ 12.343,61 3.703,08 0,00 2.844,99 5.348,90 0,00 0,00 2.105,00 26.345,58 2.348,42 4.300,87 0,00 0,00 6.649,29 19.696,29 31/12/2023
448 752600 CARLA CHRISTIAN DE LIMA OFICIAL DO MP MARTINHO CAMPOS - COMARCA; MARTINHO CAMPOS-PJ-UNPJ 4.570,25 0,00 0,00 1.016,88 0,00 0,00 0,00 2.105,00 7.692,13 572,34 247,80 0,00 0,00 820,14 6.871,99 31/12/2023
449 713100 CARLA DOS SANTOS SOUZA ASSESSOR PROMOTOR JUSTICA ESPERA FELIZ - COMARCA; ESPERA FELIZ-PJ-UNPJ 0,00 0,00 8.810,89 3.108,57 2.936,96 0,00 0,00 2.105,00 16.961,42 1.753,90 2.517,04 0,00 0,00 4.270,94 12.690,48 31/12/2023
450 442800 CARLA GONCALVES COSTA SOALHEIRO ANALISTA DO MP GOVERNADOR VALADARES - COMARCA; GOVERNADOR VALADARES-PJ-11PJ 13.248,60 2.717,79 0,00 3.130,39 5.435,59 0,00 0,00 3.055,00 27.587,37 2.390,03 4.291,19 0,00 0,00 6.681,22 20.906,15 31/12/2023
451 321500 CARLA GONCALVES MASSOTE OFICIAL DO MP CAMPO BELO - COMARCA; CAMPO BELO-PJ-02PJ 12.343,61 3.703,08 0,00 2.792,86 5.348,90 0,00 0,00 2.105,00 26.293,45 2.348,42 4.353,01 0,00 0,00 6.701,43 19.592,02 31/12/2023
452 429200 CARLA HAUTEQUESTT BECHARA ANALISTA DO MP BELO HORIZONTE - COMARCA; DIRETORIA DE INTELIGENCIA 18.720,84 3.744,17 0,00 3.846,50 7.488,34 0,00 0,00 2.105,00 35.904,85 3.375,35 6.423,99 0,00 0,00 9.799,34 26.105,51 31/12/2023
453 247500 CARLA MATILDE GUIMARAES DE OLIVEIRA OFICIAL DO MP ITAJUBA - COMARCA; ITAJUBA-PJ-SECRETARIA 12.343,61 4.937,44 0,00 2.979,54 5.760,35 0,00 0,00 2.105,00 28.125,94 2.545,92 4.699,16 0,00 0,00 7.245,08 20.880,86 31/12/2023
454 226100 CARLA MERLI DA CONCEICAO ANALISTA DO MP BELO HORIZONTE - COMARCA; CENTRAL DE APOIO TECNICO-SETOR CONTABIL 23.070,31 9.228,12 0,00 4.616,43 10.766,14 0,00 0,00 2.105,00 49.786,00 4.948,70 9.544,77 0,00 0,00 14.493,47 35.292,53 31/12/2023
455 181401 CARLO MICHEL GAUDENSI COELHO ANALISTA DO MP BELO HORIZONTE - COMARCA; BH-08PJ JUIZADO ESPECIAL-GAB 013PJ 18.130,77 7.252,31 0,00 4.210,76 8.461,03 0,00 0,00 2.105,00 40.159,87 3.842,24 7.365,55 0,00 0,00 11.207,79 28.952,08 31/12/2023
456 634000 CARLOS ALBERTO AMORMINO TRIGUEIRO ANALISTA DO MP BELO HORIZONTE - COMARCA; DIRET DE APOIO AS PROCURADORIAS DE JUSTICA 11.577,56 1.157,76 0,00 3.399,06 4.245,11 0,00 0,00 3.055,00 23.434,49 982,16 3.354,60 0,00 0,00 4.336,76 19.097,73 31/12/2023
457 637900 CARLOS ALBERTO DE MOURA OFICIAL DO MP SETE LAGOAS - COMARCA; SETE LAGOAS-PJ-07PJ 7.506,70 750,67 0,00 6.211,62 2.752,46 0,00 0,00 2.105,00 19.326,45 982,16 1.820,51 0,00 0,00 2.802,67 16.523,78 31/12/2023
458 638700 CARLOS ALBERTO FERREIRA BRAGA ANALISTA DO MP VESPASIANO - COMARCA; VESPASIANO-PJ-06PJ 11.577,56 1.157,76 0,00 3.343,38 4.245,11 0,00 0,00 2.105,00 22.428,81 982,16 3.410,29 0,00 0,00 4.392,45 18.036,36 31/12/2023
459 375801 CARLOS ALBERTO ROCHA ANALISTA DO MP VARGINHA - COMARCA; GAECO REGIONAL DE VARGINHA 12.343,61 3.703,08 0,00 10.920,48 5.348,90 0,00 0,00 4.005,00 36.321,07 2.348,42 4.248,74 0,00 0,00 6.597,16 29.723,91 31/12/2023
460 462800 CARLOS ANDREI SOARES FAGUNDES ANALISTA DO MP MONTES CLAROS - COMARCA; MONTES CLAROS-PJ-09PJ 12.343,61 2.468,72 0,00 10.116,62 4.937,44 0,00 0,00 2.105,00 31.971,39 2.150,92 3.902,59 0,00 0,00 6.053,51 25.917,88 31/12/2023
461 370300 CARLOS AUGUSTO BUENO DIAS ASSESSOR ADMINISTRATIVO IV BELO HORIZONTE - COMARCA; DIRETORIA DE FISCALIZACAO DE OBRAS 0,00 0,00 14.488,22 5.051,32 4.829,41 0,00 0,00 2.105,00 26.473,95 1.753,90 4.010,73 0,00 0,00 5.764,63 20.709,32 31/12/2023
462 505100 CARLOS CEZAR CARVALHO ANALISTA DO MP CONTAGEM - COMARCA; CONTAGEM-PJ-02PJ 12.343,61 6.171,81 0,00 6.211,97 6.171,81 0,00 0,00 2.105,00 33.004,20 2.743,42 5.045,31 0,00 0,00 7.788,73 25.215,47 31/12/2023
463 196800 CARLOS EDUARDO DE OLIVEIRA MARINHO OFICIAL DO MP ALPINÓPOLIS - COMARCA; ALPINOPOLIS-PJ-UNPJ 22.191,68 15.534,18 0,00 5.843,65 12.529,99 0,00 0,00 2.105,00 58.204,50 5.795,34 11.264,63 135,90 0,00 17.195,87 41.008,63 31/12/2023
464 650800 CARLOS EDUARDO NIZA DA SILVA OFICIAL DO MP IGARAPÉ - COMARCA; IGARAPE-PJ-01PJ 7.270,07 727,01 0,00 2.442,98 2.665,69 0,00 0,00 3.055,00 16.160,75 982,16 1.672,93 0,00 0,00 2.655,09 13.505,66 31/12/2023
465 491800 CARLOS EDUARDO ROMAN OFICIAL DO MP BARBACENA - COMARCA; BARBACENA-PJ-09PJ 10.858,90 3.257,67 0,00 2.805,04 4.705,52 0,00 0,00 2.105,00 23.732,13 2.039,60 3.730,22 0,00 0,00 5.769,82 17.962,31 31/12/2023
466 299300 CARLOS HENRIQUE BICALHO ANALISTA DO MP BELO HORIZONTE - COMARCA; BH-17PJ PATRIMONIO PUBLICO-SECRETARIA 23.070,31 11.535,16 0,00 4.815,77 11.535,16 0,00 0,00 3.055,00 54.011,40 5.317,82 10.341,31 0,00 0,00 15.659,13 38.352,27 31/12/2023
467 351600 CARLOS HENRIQUE FELICIO DA FONSECA OFICIAL DO MP JUIZ DE FORA - COMARCA; JUIZ DE FORA-PJ-21PJ 12.343,61 4.937,44 0,00 2.979,54 5.760,35 0,00 0,00 2.105,00 28.125,94 2.545,92 4.699,16 0,00 0,00 7.245,08 20.880,86 31/12/2023
468 729100 CARLOS HENRIQUE TEIXEIRA BRAGA ASSESSOR ADMINISTRATIVO II BELO HORIZONTE - COMARCA; DIRETORIA DE SUPORTE E MANUTENCAO 0,00 0,00 7.506,70 2.815,10 2.502,23 0,00 0,00 2.105,00 14.929,03 1.753,79 2.038,83 0,00 0,00 3.792,62 11.136,41 31/12/2023
469 85400 CARLOS JOSE VIEIRA OFICIAL DO MP BELO HORIZONTE - COMARCA; DIRETORIA DO COLEGIO E DA CAMARA DE PJ 29.122,38 26.210,15 0,00 9.342,70 14.461,77 5.795,34 0,00 2.105,00 87.037,34 5.795,34 15.055,67 17.742,57 0,00 38.593,58 48.443,76 31/12/2023
470 229100 CARLOS MERCES DE OLIVEIRA ANALISTA DO MP BELO HORIZONTE - COMARCA; CENTRAL DE APOIO TECN-SETOR DE MEIO AMBIENTE 23.070,31 9.228,12 0,00 5.954,17 10.766,14 0,00 0,00 2.105,00 51.123,74 4.948,70 8.207,03 0,00 0,00 13.155,73 37.968,01 31/12/2023
471 538300 CARLOS RANGEL SILVA DE MELO ANALISTA DO MP BELO HORIZONTE - COMARCA; DIVISAO DE CONTROLE IMOBILIARIO 12.343,61 4.937,44 0,00 5.783,96 5.760,35 0,00 0,00 4.005,00 32.830,36 2.545,92 4.751,30 0,00 0,00 7.297,22 25.533,14 31/12/2023
472 265100 CARLOS REIFF MIRANDA ANALISTA DO MP BELO HORIZONTE - COMARCA; BH-19PJ SAUDE-SECRETARIA 150PJ 23.070,31 9.228,12 0,00 5.717,81 10.766,14 0,00 0,00 2.105,00 50.887,38 4.948,70 9.596,90 0,00 0,00 14.545,60 36.341,78 31/12/2023
473 305400 CARLOS ROCHA DE SOUZA OFICIAL DO MP MONTALVÂNIA - COMARCA; MONTALVANIA-PJ-SECRETARIA 7.506,70 2.252,01 0,00 2.316,02 3.252,90 0,00 585,52 3.264,78 19.177,93 1.436,02 2.115,54 0,00 0,00 3.551,56 15.626,37 31/12/2023
474 744500 CARLOS THIAGO COSTA FIGUEREDO OFICIAL DO MP PARAOPEBA - COMARCA; PARAOPEBA-PJ-UNPJ 4.570,25 0,00 0,00 2.029,38 0,00 0,00 274,22 2.105,00 8.978,85 714,94 225,59 0,00 0,00 940,53 8.038,32 31/12/2023
475 399900 CARMELITA EVANGELISTA DE SOUZA OFICIAL DO MP JOÃO PINHEIRO - COMARCA; JOAO PINHEIRO-PJ-01PJ 11.212,54 2.242,51 0,00 9.237,90 4.485,02 0,00 0,00 2.105,00 29.282,97 1.933,76 3.516,78 0,00 0,00 5.450,54 23.832,43 31/12/2023
476 202000 CARMEN LUCIA MARIZ DE MACEDO OFICIAL DO MP BELO HORIZONTE - COMARCA; DIRETORIA GESTAO COMPRAS LICITACOES 21.346,53 17.077,22 5.434,83 9.446,98 14.289,87 5.795,34 2.134,65 2.129,97 77.655,39 5.795,34 13.899,61 8.403,27 0,00 28.098,22 49.557,17 31/12/2023
477 701900 CAROLINA CARVALHO COSTA ASSESSOR PROCURADOR JUSTICA BELO HORIZONTE - COMARCA; GABINETE DE PROCURADOR DE JUSTIÇA - SALA 811 0,00 0,00 8.810,89 3.108,57 2.936,96 0,00 0,00 2.105,00 16.961,42 1.753,90 2.517,04 0,00 0,00 4.270,94 12.690,48 31/12/2023
478 228500 CAROLINA CHIARELLA DOS SANTOS RIBEIRO COORDENADOR I BELO HORIZONTE - COMARCA; DIVISAO DE SERVICOS 16.469,17 6.587,67 0,00 4.331,23 7.685,61 0,00 0,00 2.105,00 37.178,68 2.545,92 6.764,81 0,00 0,00 9.310,73 27.867,95 31/12/2023
479 446500 CAROLINA COSTA VAL RODRIGUES ANALISTA DO MP BELO HORIZONTE - COMARCA; DIVISAO DE MATERIAIS 18.130,77 5.439,23 4.940,75 5.096,21 9.503,58 0,00 0,00 2.105,00 45.215,54 3.552,15 8.592,14 0,00 0,00 12.144,29 33.071,25 31/12/2023
480 751500 CAROLINA DA MATTA AMBROSIO OFICIAL DO MP MANHUMIRIM - COMARCA; MANHUMIRIM-PJ-02PJ 4.570,25 0,00 0,00 1.016,88 0,00 0,00 274,22 2.105,00 7.966,35 616,22 247,80 0,00 0,00 864,02 7.102,33 31/12/2023
481 603501 CAROLINA DOMINGOS BRANDAO RABELLO ANALISTA DO MP BARROSO - COMARCA; BARROSO-PJ-01PJ 12.343,61 2.468,72 0,00 5.890,74 4.937,44 0,00 1.234,36 4.005,00 30.879,87 2.545,92 3.954,72 0,00 0,00 6.500,64 24.379,23 31/12/2023
482 404300 CAROLINA DOS SANTOS VIEIRA ANALISTA DO MP BELO HORIZONTE - COMARCA; BH-08PJ JUIZADO ESPECIAL-SECRETARIA 20.533,67 6.160,10 0,00 6.172,04 8.897,92 0,00 0,00 2.105,00 43.868,73 4.051,95 7.684,19 0,00 0,00 11.736,14 32.132,59 31/12/2023
483 551200 CAROLINA LOPES ARANTES MASCARENHAS ANALISTA DO MP BELO HORIZONTE - COMARCA; CAO-VIOLENCIA DOMESTICA E FAMILIAR 12.343,61 2.468,72 0,00 10.168,76 4.937,44 0,00 0,00 3.055,00 32.973,53 2.150,92 3.850,45 0,00 0,00 6.001,37 26.972,16 31/12/2023
484 622600 CAROLINA LOREDO LOPES CATIZANI OFICIAL DO MP RIBEIRÃO DAS NEVES - COMARCA; RIBEIRAO DAS NEVES-PJ-12PJ 7.506,70 750,67 0,00 2.322,15 2.752,46 0,00 0,00 2.105,00 15.436,98 1.102,13 1.839,66 0,00 0,00 2.941,79 12.495,19 31/12/2023
485 382200 CAROLINA MENDES CHAVES LIN ANALISTA DO MP BELO HORIZONTE - COMARCA; BH-12PJ JUIZO CRIMINAL-GAB 088PJ 12.343,61 3.703,08 0,00 2.844,99 5.348,90 0,00 0,00 3.055,00 27.295,58 2.348,42 4.300,87 0,00 0,00 6.649,29 20.646,29 31/12/2023
486 461900 CAROLINA MURTA TEIXEIRA DIAS ANALISTA DO MP BELO HORIZONTE - COMARCA; DIR CRIACAO E MIDIAS 12.343,61 2.468,72 0,00 2.658,31 4.937,44 0,00 0,00 2.105,00 24.513,08 2.150,92 3.954,72 0,00 0,00 6.105,64 18.407,44 31/12/2023
487 509600 CAROLINA PINTO DE OLIVEIRA SOUZA ANALISTA DO MP MURIAÉ - COMARCA; MURIAE-PJ-01PJ 12.343,61 2.468,72 0,00 5.084,38 4.937,44 0,00 0,00 3.055,00 27.889,15 2.150,92 3.850,45 0,00 0,00 6.001,37 21.887,78 31/12/2023
488 629100 CAROLINA RODRIGUES AMARAL ANALISTA DO MP BELO HORIZONTE - COMARCA; PROC. JUSTICA DIR. DIFUSOS E COLETIVOS-SEC 12.343,61 1.234,36 0,00 2.945,10 4.525,99 0,00 0,00 2.105,00 23.154,06 1.953,42 3.556,44 0,00 0,00 5.509,86 17.644,20 31/12/2023
489 502600 CAROLINA RODRIGUES RUBEN ANALISTA DO MP BELO HORIZONTE - COMARCA; BH-18PJ VIOLENCIA DOMESTICA-GAB 007PJ 12.343,61 2.468,72 0,00 2.762,59 4.937,44 0,00 0,00 4.005,00 26.517,36 2.150,92 3.850,45 0,00 0,00 6.001,37 20.515,99 31/12/2023
490 754000 CAROLINA SILVA MASSON CURSI OFICIAL DO MP CANÁPOLIS - COMARCA; CANAPOLIS-PJ-UNPJ 4.570,25 0,00 0,00 1.016,88 0,00 0,00 0,00 2.105,00 7.692,13 572,34 247,80 0,00 0,00 820,14 6.871,99 31/12/2023
491 529600 CAROLINA VAZ DE MELO MAMBRINI ANALISTA DO MP BELO HORIZONTE - COMARCA; BH-14PJ DEFESA CONSUMIDOR-GAB 005PJ 12.343,61 2.468,72 0,00 2.658,31 4.937,44 0,00 0,00 2.105,00 24.513,08 2.150,92 3.954,72 0,00 0,00 6.105,64 18.407,44 31/12/2023
492 619100 CAROLINA ZAKHIA NARDELLI RODRIGUES ANALISTA DO MP NEPOMUCENO - COMARCA; NEPOMUCENO-PJ-UNPJ 12.343,61 1.234,36 0,00 2.997,24 4.525,99 0,00 814,68 3.055,00 24.970,88 2.083,77 3.504,30 0,00 0,00 5.588,07 19.382,81 31/12/2023
493 517600 CAROLINE ALVES DE OLIVEIRA MULLER ANALISTA DO MP VISCONDE DO RIO BRANCO - COMARCA; VISCONDE DO RIO BRANCO-PJ-01PJ 12.343,61 3.703,08 0,00 3.462,17 5.348,90 0,00 962,80 2.105,00 27.925,56 2.502,47 4.300,87 0,00 0,00 6.803,34 21.122,22 31/12/2023
494 373200 CAROLINE ANTUNES RIBEIRO OFICIAL DO MP JACUI - COMARCA; JACUI-PJ-UNPJ 12.343,61 3.703,08 0,00 2.844,99 5.348,90 0,00 0,00 2.105,00 26.345,58 2.348,42 4.300,87 0,00 0,00 6.649,29 19.696,29 31/12/2023
495 723500 CAROLINE CORDEIRO FERNANDES MACHADO ASSESSOR PROMOTOR JUSTICA BELO HORIZONTE - COMARCA; COORD DE INCLUSAO E MOBILIZACAO SOCIAIS 0,00 0,00 8.810,89 3.108,57 2.936,96 0,00 0,00 2.105,00 16.961,42 1.753,90 2.517,04 0,00 0,00 4.270,94 12.690,48 31/12/2023
496 556800 CAROLINE DE SOUZA CARDOSO DOMINGUES OFICIAL DO MP BRASÍLIA DE MINAS - COMARCA; BRASILIA DE MINAS-PJ-02PJ 7.506,70 1.501,34 0,00 2.400,98 3.002,68 0,00 264,24 4.987,57 19.663,51 1.222,23 2.081,87 0,00 0,00 3.304,10 16.359,41 31/12/2023
497 751700 CAROLINE GUIMARAES DAMASCENO ASSESSOR PROMOTOR JUSTICA SANTA LUZIA - COMARCA; SANTA LUZIA-PJ-07PJ 0,00 0,00 8.810,89 2.914,69 0,00 0,00 0,00 2.105,00 13.830,58 1.132,44 1.709,37 0,00 0,00 2.841,81 10.988,77 31/12/2023
498 499400 CAROLINE MARQUES DE LOURDES MARZULLO OFICIAL DO MP JUIZ DE FORA - COMARCA; JUIZ DE FORA-PJ-08PJ 10.858,90 2.171,78 0,00 3.424,15 4.343,56 0,00 0,00 3.530,00 24.328,39 982,16 3.508,95 0,00 0,00 4.491,11 19.837,28 31/12/2023
499 616800 CAROLINE MONTEIRO DE BARROS ANALISTA DO MP CONTAGEM - COMARCA; CONTAGEM-PJ-11PJ 12.343,61 1.234,36 0,00 3.774,47 4.525,99 0,00 0,00 3.055,00 24.933,43 982,16 3.698,33 0,00 0,00 4.680,49 20.252,94 31/12/2023
500 618100 CAROLINE VASCONCELOS COSTA LANZA ANALISTA DO MP PARAOPEBA - COMARCA; PARAOPEBA-PJ-UNPJ 12.343,61 1.234,36 0,00 4.912,97 4.525,99 0,00 0,00 4.068,33 27.085,26 1.953,42 3.556,44 0,00 0,00 5.509,86 21.575,40 31/12/2023
501 699000 CAROLLINA RODRIGUES SOUTO AMARAL ASSESSOR PROCURADOR JUSTICA BELO HORIZONTE - COMARCA; GABINETE DE PROCURADOR DE JUSTIÇA-SALA1105-T3 0,00 0,00 8.810,89 3.108,57 2.936,96 0,00 0,00 2.105,00 16.961,42 1.753,90 2.517,04 0,00 0,00 4.270,94 12.690,48 31/12/2023
502 604000 CASSIA APARECIDA DA SILVA OFICIAL DO MP PARACATU - COMARCA; PARACATU-PJ-01PJ 7.506,70 1.501,34 0,00 2.694,49 3.002,68 0,00 750,67 2.105,00 17.560,88 1.462,45 2.081,87 0,00 0,00 3.544,32 14.016,56 31/12/2023
503 268800 CASSIA BEATRIZ TEIXEIRA OFICIAL DO MP BELO HORIZONTE - COMARCA; PROC. JUSTICA DE HABEAS CORPUS 18.130,77 7.252,31 4.346,47 6.066,67 9.909,85 0,00 0,00 2.105,00 47.811,07 3.842,24 8.959,26 0,00 0,00 12.801,50 35.009,57 31/12/2023
504 500000 CASSIA DE OLIVEIRA COSTA VIANA ANALISTA DO MP SETE LAGOAS - COMARCA; SETE LAGOAS-PJ-09PJ 12.343,61 8.640,53 0,00 16.098,46 8.040,85 3.138,41 0,00 2.105,00 50.366,86 3.138,41 7.096,91 0,00 0,00 10.235,32 40.131,54 31/12/2023
505 368800 CASSIA LUISA BATISTA MENDONCA WEBER COORDENADOR II BELO HORIZONTE - COMARCA; DIVISÃO DE EDUCAÇÃO PARA O CONSUMO 20.533,67 6.160,10 0,00 5.490,33 8.897,92 0,00 0,00 2.105,00 43.187,02 1.932,03 8.371,45 0,00 0,00 10.303,48 32.883,54 31/12/2023
506 622200 CASSIA VAZ DE AZEVEDO LISBOA MARZANO ASSESSOR ADMINISTRATIVO III BELO HORIZONTE - COMARCA; CGMP-DIR ESTAGIO PROBATORIO E ORIENT 0,00 0,00 10.858,90 3.725,79 3.619,63 0,00 0,00 2.105,00 20.309,32 1.753,90 3.111,56 0,00 0,00 4.865,46 15.443,86 31/12/2023
507 121000 CASSIO HENRIQUE AFONSO DA SILVA OFICIAL DO MP BELO HORIZONTE - COMARCA; CGMP-ASSESSORIA TECNICA 23.070,31 18.456,25 0,00 5.245,35 12.529,99 0,00 0,00 2.105,00 61.406,90 5.795,34 11.560,89 3.936,60 0,00 21.292,83 40.114,07 31/12/2023
508 756700 CATARINA ANNONI CESAR ASSESSOR PROCURADOR JUSTICA BELO HORIZONTE - COMARCA; GABINETE DE PROCURADOR DE JUSTIÇA - SALA 610 0,00 0,00 8.810,89 1.468,48 0,00 0,00 0,00 2.105,00 12.384,37 989,31 1.709,37 0,00 0,00 2.698,68 9.685,69 31/12/2023
509 512001 CATARINA NATALINO CALIXTO COORDENADOR II BELO HORIZONTE - COMARCA; DIRETORIA GESTAO COMPRAS LICITACOES 20.533,67 3.285,39 0,00 5.358,12 7.939,69 0,00 0,00 3.055,00 40.171,87 2.071,92 7.278,92 0,00 0,00 9.350,84 30.821,03 31/12/2023
510 606200 CATARINE DE SIQUEIRA DE QUADROS ANALISTA DO MP CONTAGEM - COMARCA; CONTAGEM-PJ-08PJ 12.343,61 2.468,72 0,00 3.862,40 4.937,44 0,00 1.234,36 3.055,00 27.901,53 2.545,92 3.850,45 0,00 0,00 6.396,37 21.505,16 31/12/2023
511 622300 CECILIA APARECIDA PEREIRA ASSUNCAO OFICIAL DO MP TRÊS PONTAS - COMARCA; TRES PONTAS-PJ-SECRETARIA 8.264,07 826,41 0,00 2.230,06 3.030,16 0,00 0,00 3.055,00 17.405,70 1.235,43 2.056,34 0,00 0,00 3.291,77 14.113,93 31/12/2023
512 538000 CECILIA FONTES DE MATOS PIMENTEL ANALISTA DO MP PALMA - COMARCA; PALMA-PJ-UNPJ 12.343,61 2.468,72 0,00 2.658,31 4.937,44 0,00 0,00 3.055,00 25.463,08 2.150,92 3.954,72 0,00 0,00 6.105,64 19.357,44 31/12/2023
513 748900 CECILIA KRUEL DE MAGALHAES PINTO ASSESSOR ADMINISTRATIVO IV BELO HORIZONTE - COMARCA; CAO-MEIO AMBIENTE 0,00 0,00 14.488,22 5.446,15 0,00 0,00 0,00 4.005,00 23.939,37 1.548,00 3.270,64 0,00 0,00 4.818,64 19.120,73 31/12/2023
514 261300 CECILIO ANTONIO CAMPOS DOS REIS ANALISTA DO MP BELO HORIZONTE - COMARCA; AUDITORIA INTERNA 23.070,31 9.228,12 0,00 4.564,29 10.766,14 0,00 473,71 7.272,75 55.375,32 4.948,70 9.596,90 0,00 0,00 14.545,60 40.829,72 31/12/2023
515 386400 CEFAS AMORELI DE FIGUEIREDO OFICIAL DO MP CABO VERDE - COMARCA; CABO VERDE-PJ-SECRETARIA 7.506,70 2.252,01 0,00 2.107,47 3.252,90 0,00 0,00 2.105,00 17.224,08 1.342,34 2.324,09 0,00 0,00 3.666,43 13.557,65 31/12/2023
516 421000 CELINA BENEDITA DE SOUZA ALMEIDA OFICIAL DO MP CAMBUÍ - COMARCA; CAMBUI-PJ-01PJ 12.343,61 8.640,53 0,00 6.818,13 8.878,55 20.451,78 1.342,79 3.018,50 61.493,89 3.339,86 7.185,79 0,00 0,00 10.525,65 50.968,24 31/12/2023
517 252900 CELIO DE MELO CASTOR ANALISTA DO MP BELO HORIZONTE - COMARCA; DIVISAO FROTA 23.070,31 9.228,12 0,00 4.564,29 10.766,14 0,00 0,00 2.105,00 49.733,86 4.948,70 9.596,90 0,00 0,00 14.545,60 35.188,26 31/12/2023
518 395700 CELIO FERREIRA LIMA OFICIAL DO MP CONTAGEM - COMARCA; CONTAGEM-PJ-SECRETARIA 12.343,61 3.703,08 0,00 3.097,96 5.348,90 0,00 529,54 7.881,81 32.904,90 2.348,42 4.300,87 0,00 0,00 6.649,29 26.255,61 31/12/2023
519 281300 CELMA REGINA PEREIRA SANTOS ANALISTA DO MP BELO HORIZONTE - COMARCA; DIRET DE INFORMACAO E CONHECIMENTO-DINC/CEAF 23.070,31 9.228,12 0,00 5.717,81 10.766,14 0,00 0,00 2.105,00 50.887,38 4.948,70 9.596,90 0,00 0,00 14.545,60 36.341,78 31/12/2023
520 535600 CELSO MEDEIROS DE PAIVA OFICIAL DO MP RIO PRETO - COMARCA; RIO PRETO-PJ-SECRETARIA 7.506,70 1.501,34 0,00 2.077,79 3.002,68 0,00 540,48 2.105,00 16.733,99 1.308,71 2.029,74 0,00 0,00 3.338,45 13.395,54 31/12/2023
521 367000 CESAR NARVAES DE AVELAR OFICIAL DO MP BELO HORIZONTE - COMARCA; DIRET DE INFORMACAO E CONHECIMENTO-DINC/CEAF 12.343,61 3.703,08 0,00 5.408,10 5.348,90 0,00 0,00 2.105,00 28.908,69 2.348,42 4.353,01 0,00 0,00 6.701,43 22.207,26 31/12/2023
522 226500 CESAR SILVEIRA BARROUIN OFICIAL DO MP IGARAPÉ - COMARCA; IGARAPE-PJ-02PJ 18.130,77 9.065,39 0,00 4.436,98 9.065,39 0,00 0,00 2.105,00 42.803,53 4.132,33 7.950,58 0,00 0,00 12.082,91 30.720,62 31/12/2023
523 121400 CEZAR MORENO CONCEICAO TAVARES OFICIAL DO MP BELO HORIZONTE - COMARCA; COORD DE INCLUSAO E MOBILIZACAO SOCIAIS 23.070,31 18.456,25 0,00 9.446,98 14.461,77 5.795,34 0,00 3.055,00 74.285,65 5.795,34 13.685,85 3.936,60 0,00 23.417,79 50.867,86 31/12/2023
524 243800 CHARLES MARTINS MUNIZ OFICIAL DO MP BELO HORIZONTE - COMARCA; LAB TECNOLOGIA CONTRA LAVAGEM DINHEIRO 18.130,77 7.252,31 0,00 4.210,76 8.461,03 0,00 0,00 1.500,00 39.554,87 3.802,94 7.365,55 0,00 357,31 11.525,80 28.029,07 31/12/2023
525 193500 CHARLIN CESAR KOURLY OFICIAL DO MP ARAGUARI - COMARCA; ARAGUARI-PJ-07PJ 22.191,68 8.876,67 0,00 5.021,83 10.356,12 0,00 1.864,10 2.105,00 50.415,40 5.050,14 9.200,00 0,00 0,00 14.250,14 36.165,26 31/12/2023
526 385500 CHILLEN PEIXOTO DE MOURA OFICIAL DO MP BELO HORIZONTE - COMARCA; DIVISAO DE MATERIAIS 12.343,61 3.703,08 0,00 5.562,17 5.348,90 0,00 0,00 4.005,00 30.962,76 2.348,42 4.353,01 0,00 0,00 6.701,43 24.261,33 31/12/2023
527 534500 CHRISTIAN DOUGLAS BRITO RUAS OFICIAL DO MP BOCAIÚVA - COMARCA; BOCAIUVA-PJ-03PJ 7.506,70 1.501,34 0,00 3.264,84 3.002,68 0,00 0,00 2.105,00 17.380,56 1.222,23 2.081,87 0,00 0,00 3.304,10 14.076,46 31/12/2023
528 370600 CHRISTIAN KARINE FELIX PRATES ASSESSOR ADMINISTRATIVO IV BELO HORIZONTE - COMARCA; SUPRIN DE PLANEJAMENTO E COORDENACAO 0,00 0,00 14.488,22 4.385,97 4.829,41 0,00 0,00 2.105,00 25.808,60 1.753,90 4.598,73 0,00 0,00 6.352,63 19.455,97 31/12/2023
529 435800 CHRISTIANA BAHIA ANDRADE PINA ANALISTA DO MP BELO HORIZONTE - COMARCA; LABORATORIO TECNOLOGIA INTELIGENCIA 18.720,84 3.744,17 0,00 3.846,50 7.488,34 0,00 0,00 2.105,00 35.904,85 3.375,35 6.423,99 0,00 0,00 9.799,34 26.105,51 31/12/2023
530 516800 CHRISTIANE FERREIRA DO NASCIMENTO ANALISTA DO MP POUSO ALEGRE - COMARCA; POUSO ALEGRE-PJ-04PJ 12.343,61 2.468,72 0,00 5.032,24 4.937,44 0,00 0,00 2.105,00 26.887,01 2.150,92 3.954,72 0,00 0,00 6.105,64 20.781,37 31/12/2023
531 176000 CHRISTIANE JUNQUEIRA PULITI ANDRADE DE BARROS ASSESSOR ADM. ESPECIAL BELO HORIZONTE - COMARCA; PROCURADORIA-GERAL ADJUNTA INSTITUCIONAL 0,00 25.212,05 28.013,39 9.342,70 14.461,77 792,00 0,00 2.105,00 79.926,91 792,00 14.862,52 15.635,48 0,00 31.290,00 48.636,91 31/12/2023
532 319200 CHRISTIANE MARIA DE ASSIS RUSSO OFICIAL DO MP BELO HORIZONTE - COMARCA; CAO-ORDEM ECONOMICA E TRIBUTARIA-SECRETARIA 15.949,86 4.784,96 0,00 13.723,41 6.911,61 0,00 0,00 3.055,00 44.424,84 3.098,52 5.813,58 0,00 0,00 8.912,10 35.512,74 31/12/2023
533 510300 CHRISTIANE MARY DE CARVALHO FERREIRA ANALISTA DO MP BELO HORIZONTE - COMARCA; DIRETORIA DE SISTEMAS DE INFORMACAO 12.343,61 2.468,72 0,00 2.710,45 4.937,44 0,00 0,00 2.105,00 24.565,22 2.150,92 3.902,59 0,00 0,00 6.053,51 18.511,71 31/12/2023
534 424900 CHRISTIANE PEREIRA TURNER DE ARAUJO OFICIAL DO MP BELO HORIZONTE - COMARCA; CAO-PATRIMONIO PUBLICO 12.343,61 2.468,72 0,00 3.441,23 4.937,44 0,00 0,00 3.055,00 26.246,00 2.150,92 3.850,45 0,00 0,00 6.001,37 20.244,63 31/12/2023
535 731000 CHRISTIANE TEIXEIRA ANTUNA ASSESSOR ADMINISTRATIVO III BELO HORIZONTE - COMARCA; DIR CONTEUDO JORNALISTICO 0,00 0,00 10.858,90 3.569,37 3.619,63 0,00 0,00 2.105,00 20.152,90 1.753,90 3.267,97 0,00 0,00 5.021,87 15.131,03 31/12/2023
536 513700 CHRISTIANE VIEIRA SOARES PEDERSOLI COORDENADOR II BELO HORIZONTE - COMARCA; ASSESSORIA JURIDICA DO PROCON-MG 20.533,67 4.106,73 0,00 4.869,63 8.213,47 0,00 0,00 3.055,00 40.778,50 2.150,92 7.558,35 0,00 0,00 9.709,27 31.069,23 31/12/2023
537 412300 CHRYSTIAN MACHADO RIBEIRO ANALISTA DO MP VARGINHA - COMARCA; VARGINHA-PJ-04PJ 18.720,84 5.616,25 0,00 8.718,20 8.112,36 0,00 0,00 2.105,00 43.272,65 3.674,88 7.028,05 0,00 0,00 10.702,93 32.569,72 31/12/2023
538 513800 CHRYSTIANE DO NASCIMENTO DE MAGALHAES OFICIAL DO MP UBERLÂNDIA - COMARCA; UBERLANDIA-PJ-10PJ 10.516,49 2.103,30 0,00 3.013,64 4.206,60 0,00 0,00 2.105,00 21.945,03 1.800,11 3.142,99 0,00 0,00 4.943,10 17.001,93 31/12/2023
539 497900 CIBELE DE FREITAS SANCHES DIAS ANALISTA DO MP BELO HORIZONTE - COMARCA; BH-12PJ JUIZO CRIMINAL-GAB 103PJ 12.343,61 2.468,72 0,00 5.141,56 4.937,44 0,00 0,00 2.105,00 26.996,33 491,08 4.073,33 0,00 0,00 4.564,41 22.431,92 31/12/2023
540 500900 CIBELLE SILVA PRADO ALVARENGA ANALISTA DO MP ITANHANDU - COMARCA; ITANHANDU-PJ-UNPJ 12.343,61 2.468,72 0,00 10.064,48 4.937,44 0,00 888,74 3.055,00 33.757,99 2.293,12 3.954,72 0,00 0,00 6.247,84 27.510,15 31/12/2023
541 296400 CINTIA APARECIDA MOREIRA NAVES E RODRIGUES ANALISTA DO MP CAMPO BELO - COMARCA; CAMPO BELO-PJ-01PJ 23.070,31 6.921,09 0,00 4.312,84 9.997,13 0,00 0,00 2.105,00 46.406,37 4.579,57 8.852,50 0,00 0,00 13.432,07 32.974,30 31/12/2023
542 407900 CINTIA NETO COMELLI ANALISTA DO MP BELO HORIZONTE - COMARCA; CENTRAL DE APOIO TECNICO-SETOR CONTABIL 18.720,84 5.616,25 0,00 5.038,74 8.112,36 0,00 0,00 2.105,00 39.593,19 3.674,88 6.975,91 0,00 0,00 10.650,79 28.942,40 31/12/2023
543 304700 CINTIA QUEIROZ OFICIAL DO MP BELO HORIZONTE - COMARCA; OUVIDORIA DO MPMG 12.343,61 3.703,08 0,00 2.792,86 5.348,90 0,00 962,80 2.105,00 27.256,25 2.502,47 4.353,01 0,00 0,00 6.855,48 20.400,77 31/12/2023
544 286100 CIRO CANGUSSU CORDEIRO OFICIAL DO MP IPATINGA - COMARCA; IPATINGA-PJ-09PJ 10.858,90 4.343,56 0,00 3.995,21 5.067,49 0,00 1.085,89 3.055,00 28.406,05 2.560,82 3.976,33 0,00 0,00 6.537,15 21.868,90 31/12/2023
545 689900 CISSA NOGUEIRA COLEN ASSESSOR PROCURADOR JUSTICA BELO HORIZONTE - COMARCA; GABINETE DE PROCURADOR DE JUSTIÇA - SALA 608 0,00 0,00 8.810,89 7.514,02 2.936,96 0,00 0,00 2.105,00 21.366,87 1.753,90 2.517,04 0,00 0,00 4.270,94 17.095,93 31/12/2023
546 681700 CLARA FERREIRA ALKIMIM ASSESSOR PROMOTOR JUSTICA PEDRA AZUL - COMARCA; PEDRA AZUL-PJ-02PJ 0,00 0,00 8.810,89 4.195,49 2.936,96 0,00 0,00 2.105,00 18.048,34 1.753,90 2.517,04 0,00 0,00 4.270,94 13.777,40 31/12/2023
547 715500 CLARA ISABELLE SOUSA FARIA ASSESSOR PROCURADOR JUSTICA BELO HORIZONTE - COMARCA; GABINETE DE PROCURADOR DE JUSTIÇA - SALA 712 0,00 0,00 8.810,89 3.108,57 2.936,96 0,00 0,00 2.105,00 16.961,42 1.753,90 2.517,04 0,00 0,00 4.270,94 12.690,48 31/12/2023
548 756100 CLARA LIMA LIPOVETSKY ASSESSOR PROMOTOR JUSTICA BELO HORIZONTE - COMARCA; CAO-FUNDACOES-ASSESSORIA JURIDICA 0,00 0,00 8.810,89 2.202,72 0,00 0,00 0,00 2.105,00 13.118,61 1.055,39 1.709,37 0,00 0,00 2.764,76 10.353,85 31/12/2023
549 723100 CLARA PRADO CAMPOS ASSESSOR PROCURADOR JUSTICA BELO HORIZONTE - COMARCA; GABINETE DE PROCURADOR DE JUSTIÇA - SALA 1006 0,00 0,00 8.810,89 4.195,49 2.936,96 0,00 0,00 2.105,00 18.048,34 1.753,90 2.517,04 0,00 0,00 4.270,94 13.777,40 31/12/2023
550 695500 CLARA RODRIGUES BLACH ASSESSOR PROCURADOR JUSTICA BELO HORIZONTE - COMARCA; GABINETE DE PROCURADOR DE JUSTIÇA - SALA 1003 0,00 0,00 8.810,89 4.195,49 2.936,96 0,00 0,00 2.105,00 18.048,34 1.753,90 2.517,04 0,00 0,00 4.270,94 13.777,40 31/12/2023
551 412500 CLARICE GOMES MAROTTA ANALISTA DO MP BELO HORIZONTE - COMARCA; COORD ESTADUAL DE DEFESA DOS ANIMAIS 18.720,84 7.488,34 0,00 4.313,62 8.736,39 0,00 0,00 2.105,00 41.364,19 3.974,42 7.632,11 0,00 0,00 11.606,53 29.757,66 31/12/2023
552 605300 CLARISSA AZEVEDO ROCHA OFICIAL DO MP BELO HORIZONTE - COMARCA; BH-16PJ HABITACAO URBANISMO-GAB 117PJ 7.506,70 1.501,34 0,00 2.694,49 3.002,68 0,00 750,67 2.105,00 17.560,88 1.462,45 2.081,87 0,00 0,00 3.544,32 14.016,56 31/12/2023
553 308100 CLARISSA DUARTE BELLONI DIRETOR-GERAL BELO HORIZONTE - COMARCA; DIRETORIA-GERAL 34.667,33 10.400,20 0,00 6.126,79 12.529,99 0,00 0,00 3.530,00 67.254,31 4.579,57 12.219,81 7.477,57 0,00 24.276,95 42.977,36 31/12/2023
554 730500 CLARISSA FERNANDES ABREU ASSESSOR PROMOTOR JUSTICA SANTOS DUMONT - COMARCA; SANTOS DUMONT-PJ-02PJ 0,00 0,00 8.810,89 3.108,57 2.936,96 0,00 0,00 2.105,00 16.961,42 1.753,90 2.517,04 0,00 0,00 4.270,94 12.690,48 31/12/2023
555 743200 CLARISSA GODINHO PRATES ASSESSOR ADMINISTRATIVO I GOVERNADOR VALADARES - COMARCA; COOR REG APOIO COM INC MOB VALE DO RIO DOCE 0,00 0,00 4.872,71 2.436,36 0,00 0,00 0,00 2.105,00 9.414,07 917,55 670,06 0,00 0,00 1.587,61 7.826,46 31/12/2023
556 497100 CLARISSA ROCHA GUIDI ANALISTA DO MP BELO HORIZONTE - COMARCA; BH-02PJ FAMILIA-SECRETARIA 15.447,01 3.089,40 0,00 3.408,59 6.178,80 0,00 0,00 4.005,00 32.128,80 2.746,77 5.104,22 0,00 0,00 7.850,99 24.277,81 31/12/2023
557 641800 CLARISSE TAVARES GONCALVES OFICIAL DO MP BELO HORIZONTE - COMARCA; BH-07PJ 01 TRIBUNAL JURI-SECRETARIA 7.506,70 750,67 0,00 2.160,95 2.752,46 0,00 0,00 2.105,00 15.275,78 982,16 1.872,65 0,00 0,00 2.854,81 12.420,97 31/12/2023
558 463700 CLAUDIA ADRIANA FERRAO DIAS ANALISTA DO MP SETE LAGOAS - COMARCA; SETE LAGOAS-PJ-06PJ 12.343,61 2.468,72 0,00 10.064,48 4.937,44 0,00 0,00 2.105,00 31.919,25 2.150,92 3.954,72 0,00 0,00 6.105,64 25.813,61 31/12/2023
559 415400 CLAUDIA ALMEIDA DE VASCONCELLOS BARROS OFICIAL DO MP BELO HORIZONTE - COMARCA; DIVISAO DE SERVICOS 11.212,54 3.363,76 4.020,58 4.310,03 6.198,96 0,00 0,00 2.105,00 31.210,87 2.113,16 5.352,78 0,00 0,00 7.465,94 23.744,93 31/12/2023
560 207000 CLAUDIA APARECIDA VILELA MACHADO ANALISTA DO MP BELO HORIZONTE - COMARCA; CENTRAL DE APOIO TECNICO-SETOR CONTABIL 23.070,31 11.535,16 0,00 8.827,60 13.307,76 5.317,82 0,00 2.105,00 64.163,65 5.317,82 12.134,77 0,00 0,00 17.452,59 46.711,06 31/12/2023
561 365700 CLAUDIA BREGUEZ CUNHA ANALISTA DO MP VARGINHA - COMARCA; VARGINHA-PJ-07PJ 21.346,53 6.403,96 0,00 4.596,93 9.250,16 0,00 0,00 3.055,00 44.652,58 4.221,03 8.129,44 0,00 0,00 12.350,47 32.302,11 31/12/2023
562 430500 CLAUDIA CECILIA SANTANA VENCESLAU OFICIAL DO MP BELO HORIZONTE - COMARCA; LAB TECNOLOGIA CONTRA LAVAGEM DINHEIRO 12.343,61 2.468,72 0,00 3.389,09 4.937,44 0,00 0,00 2.105,00 25.243,86 2.150,92 3.902,59 0,00 0,00 6.053,51 19.190,35 31/12/2023
563 213601 CLAUDIA GONCALVES CALIXTO ASSESSOR PROCURADOR JUSTICA BELO HORIZONTE - COMARCA; PROC. JUSTICA DIR. DIFUSOS E COLETIVOS-SEC 0,00 0,00 8.810,89 3.108,57 2.936,96 0,00 0,00 2.105,00 16.961,42 1.753,90 2.517,04 0,00 0,00 4.270,94 12.690,48 31/12/2023
564 480400 CLAUDIA GOULART DE SOUZA OFICIAL DO MP PASSOS - COMARCA; PASSOS-PJ-06PJ 10.858,90 3.257,67 0,00 2.805,04 4.705,52 0,00 0,00 2.105,00 23.732,13 2.039,60 3.730,22 0,00 0,00 5.769,82 17.962,31 31/12/2023
565 519800 CLAUDIA HELENA CORREA DE ALMEIDA ANALISTA DO MP BELO HORIZONTE - COMARCA; BH-12PJ JUIZO CRIMINAL-GAB 096PJ 12.343,61 2.468,72 0,00 2.658,31 4.937,44 0,00 0,00 2.105,00 24.513,08 2.150,92 3.954,72 0,00 0,00 6.105,64 18.407,44 31/12/2023
566 422100 CLAUDIA IACOMINI CABRAL ANALISTA DO MP BELO HORIZONTE - COMARCA; CENT DE APOIO TEC-SETOR DEF,IDOSO E INFANC 18.720,84 13.104,58 0,00 5.014,29 10.608,47 0,00 0,00 2.105,00 49.553,18 4.873,02 9.444,28 0,00 0,00 14.317,30 35.235,88 31/12/2023
567 258200 CLAUDIA LAGE MICHALAROS ANALISTA DO MP BELO HORIZONTE - COMARCA; CENTRAL DE APOIO TECN-SETOR DE MEIO AMBIENTE 23.070,31 18.456,25 0,00 14.068,84 14.461,77 5.795,34 0,00 2.105,00 77.957,51 5.795,34 13.790,12 3.936,60 0,00 23.522,06 54.435,45 31/12/2023
568 433600 CLAUDIA LUIZA SANTIAGO FELICIO ANALISTA DO MP BELO HORIZONTE - COMARCA; CENT DE APOIO TEC-SETOR DEF,IDOSO E INFANC 18.720,84 3.744,17 0,00 14.829,24 14.976,68 0,00 0,00 2.105,00 54.375,93 3.375,35 8.379,01 0,00 0,00 11.754,36 42.621,57 31/12/2023
569 317000 CLAUDIA MACHADO ALVES OFICIAL DO MP BELO HORIZONTE - COMARCA; DIR GOVERNANCA TECNOLOGIA INFORMACAO 12.343,61 3.703,08 4.020,58 3.697,49 6.689,09 0,00 0,00 2.105,00 32.558,85 2.348,42 5.827,22 0,00 0,00 8.175,64 24.383,21 31/12/2023
570 155300 CLAUDIA MACIEL MIRANDA OFICIAL DO MP CONGONHAS - COMARCA; CONGONHAS-PJ-02PJ 23.070,31 16.149,22 0,00 12.020,17 12.529,99 0,00 137,83 3.608,60 67.516,12 5.795,34 11.349,41 1.629,57 0,00 18.774,32 48.741,80 31/12/2023
571 746300 CLAUDIA MAGDA SANTANA ANALISTA DO MP BELO HORIZONTE - COMARCA; DIRETORIA DE ADMINISTRACAO FINANCEIRA 7.040,78 0,00 0,00 3.033,51 0,00 0,00 0,00 2.105,00 12.179,29 909,81 801,06 0,00 0,00 1.710,87 10.468,42 31/12/2023
572 242200 CLAUDIA MICHELLE DIAS MUNIZ BALEEIRO OFICIAL DO MP MONTE AZUL - COMARCA; MONTE AZUL-PJ-SECRETARIA 18.130,77 9.065,39 0,00 4.489,11 9.065,39 0,00 0,00 2.105,00 42.855,66 4.132,33 7.898,44 0,00 0,00 12.030,77 30.824,89 31/12/2023
573 755900 CLAUDIA NATIVIDADE ASSESSOR ADMINISTRATIVO II BELO HORIZONTE - COMARCA; CENTRO ESTADUAL DE APOIO AS VITIMAS 0,00 0,00 7.506,70 1.876,68 0,00 0,00 0,00 2.105,00 11.488,38 1.026,05 1.350,72 0,00 0,00 2.376,77 9.111,61 31/12/2023
574 623000 CLAUDIA PATRICIA SILVA RODRIGUES RAPOSEIRAS OFICIAL DO MP BELO HORIZONTE - COMARCA; DIVISÃO DE EDUCAÇÃO PARA O CONSUMO 7.506,70 750,67 0,00 1.995,96 2.752,46 0,00 0,00 3.055,00 16.060,79 1.102,13 1.787,52 0,00 0,00 2.889,65 13.171,14 31/12/2023
575 418400 CLAUDIA REGINA MARTINS BONIFACIO OFICIAL DO MP ITUIUTABA - COMARCA; ITUIUTABA-PJ-06PJ 12.343,61 3.703,08 0,00 4.675,59 5.348,90 0,00 1.234,36 2.105,00 29.410,54 2.743,42 4.248,74 0,00 0,00 6.992,16 22.418,38 31/12/2023
576 498300 CLAUDIA SOUTO FARIAS BRAUN OFICIAL DO MP TEÓFILO OTONI - COMARCA; TEOFILO OTONI-PJ-SECRETARIA 7.506,70 1.501,34 0,00 3.316,98 3.002,68 0,00 0,00 2.105,00 17.432,70 1.222,23 1.977,60 0,00 0,00 3.199,83 14.232,87 31/12/2023
577 206500 CLAUDIA VALERIA FONSECA ANDRADE ANALISTA DO MP BELO HORIZONTE - COMARCA; BH-23PJ INF-FISC MED SOC FEC 23.070,31 16.149,22 0,00 9.342,70 14.461,77 5.795,34 0,00 2.105,00 70.924,34 5.795,34 13.578,64 1.629,57 0,00 21.003,55 49.920,79 31/12/2023
578 277500 CLAUDIO ANTONIO BORGES BRUNSWICK ALVARES OFICIAL DO MP BELO HORIZONTE - COMARCA; ASSESSORIA JURIDICA DO PROCON-MG 12.343,61 3.703,08 0,00 2.792,86 5.348,90 0,00 0,00 2.105,00 26.293,45 2.348,42 4.353,01 0,00 0,00 6.701,43 19.592,02 31/12/2023
579 444800 CLAUDIO ARESIO DO CARMO ANALISTA DO MP SETE LAGOAS - COMARCA; SETE LAGOAS-PJ-05PJ 15.447,01 6.178,80 0,00 3.794,03 7.208,60 0,00 0,00 2.105,00 34.733,44 3.241,08 6.101,07 0,00 0,00 9.342,15 25.391,29 31/12/2023
580 545100 CLAUDIO HENRIQUE MACEDO DE SOUZA FRANSOZO ANALISTA DO MP OURO PRETO - COMARCA; OURO PRETO-PJ-03PJ 12.343,61 2.468,72 0,00 11.062,49 4.937,44 0,00 0,00 3.055,00 33.867,26 982,16 4.125,47 0,00 0,00 5.107,63 28.759,63 31/12/2023
581 353500 CLAUDIO HENRIQUE PEDRO DA ROCHA OFICIAL DO MP BELO HORIZONTE - COMARCA; DIVISAO DE SERVICOS 12.343,61 3.703,08 0,00 2.897,13 5.348,90 0,00 0,00 2.105,00 26.397,72 2.348,42 4.248,74 0,00 0,00 6.597,16 19.800,56 31/12/2023
582 265800 CLAUDIO KUPIDLOWSKY FERNANDES OFICIAL DO MP BELO HORIZONTE - COMARCA; SECRETARIA DO PROCON-MG 12.343,61 4.937,44 0,00 3.881,75 5.760,35 0,00 0,00 2.105,00 29.028,15 2.545,92 3.452,40 0,00 0,00 5.998,32 23.029,83 31/12/2023
583 193600 CLAUDIO LEITE FONTES OFICIAL DO MP ITUIUTABA - COMARCA; ITUIUTABA-PJ-02PJ 12.343,61 6.171,81 0,00 3.061,95 6.171,81 0,00 0,00 3.055,00 30.804,18 2.743,42 4.786,59 0,00 0,00 7.530,01 23.274,17 31/12/2023
584 329400 CLAUDIO MARCIO BERNARDES OFICIAL DO MP ITAÚNA - COMARCA; ITAUNA-PJ-03PJ 12.343,61 9.874,89 0,00 7.313,49 7.406,17 0,00 0,00 3.055,00 39.993,16 3.335,91 6.292,31 0,00 0,00 9.628,22 30.364,94 31/12/2023
585 270200 CLAUDIO RABELO ALVES OFICIAL DO MP FORMIGA - COMARCA; FORMIGA-PJ-03PJ 15.447,01 6.178,80 0,00 3.898,30 7.208,60 0,00 0,00 2.105,00 34.837,71 3.241,08 5.996,79 0,00 0,00 9.237,87 25.599,84 31/12/2023
586 264700 CLAUDIO ROBERTO KFURI DE ARAUJO ANALISTA DO MP BELO HORIZONTE - COMARCA; CENTRAL DE APOIO TECNICO-SETOR DE INFORMATICA 23.070,31 9.228,12 0,00 5.822,09 10.766,14 0,00 0,00 2.105,00 50.991,66 4.948,70 9.492,63 0,00 0,00 14.441,33 36.550,33 31/12/2023
587 543300 CLAUDIO SILVA DE CARVALHO ANALISTA DO MP CAMPO BELO - COMARCA; CAMPO BELO-PJ-03PJ 11.954,43 1.195,44 0,00 2.736,52 4.383,29 0,00 0,00 2.105,00 22.374,68 1.884,93 3.366,17 0,00 0,00 5.251,10 17.123,58 31/12/2023
588 160700 CLAUDIO VICENTE HESS ASSESSOR DE GABINETE I BELO HORIZONTE - COMARCA; CENTRAL DE APOIO TECNICO-SETOR DE INFORMATICA 0,00 9.065,39 18.130,77 7.349,53 9.065,39 0,00 0,00 2.105,00 45.716,08 1.753,90 9.154,03 0,00 0,00 10.907,93 34.808,15 31/12/2023
589 312900 CLAUDIO VIEIRA FIRPE OFICIAL DO MP BELO HORIZONTE - COMARCA; DIR RELACOES INSTITUCIONAIS 12.343,61 3.703,08 0,00 2.792,86 5.348,90 0,00 0,00 2.105,00 26.293,45 2.348,42 4.353,01 0,00 0,00 6.701,43 19.592,02 31/12/2023
590 634100 CLEA CRISTINA GUERRA DE FREITAS COSTA OFICIAL DO MP BELO HORIZONTE - COMARCA; BH-18PJ VIOLENCIA DOMESTICA-SECRETARIA 7.506,70 750,67 0,00 6.124,65 2.752,46 0,00 0,00 2.105,00 19.239,48 1.102,13 1.787,52 0,00 0,00 2.889,65 16.349,83 31/12/2023
591 459200 CLEIA ZILLE PEREIRA ANALISTA DO MP BELO HORIZONTE - COMARCA; BH-07PJ 01 TRIBUNAL DO JURI-GAB 059PJ 12.343,61 2.468,72 0,00 2.658,31 4.937,44 0,00 0,00 3.530,00 25.938,08 2.150,92 3.954,72 0,00 0,00 6.105,64 19.832,44 31/12/2023
592 481800 CLEIDE CARDOSO DA SILVA ANALISTA DO MP MANHUAÇU - COMARCA; MANHUACU-PJ-04PJ 12.343,61 2.468,72 0,00 2.762,59 4.937,44 0,00 0,00 2.105,00 24.617,36 2.150,92 3.850,45 0,00 0,00 6.001,37 18.615,99 31/12/2023
593 347600 CLEIDIMAR DE OLIVEIRA SILVA OFICIAL DO MP PATOS DE MINAS - COMARCA; PATOS DE MINAS-PJ-03PJ 12.343,61 4.937,44 0,00 3.083,81 5.760,35 0,00 0,00 2.105,00 28.230,21 2.545,92 4.594,89 0,00 0,00 7.140,81 21.089,40 31/12/2023
594 396500 CLEIDISON BATISTA DE ANDRADE OFICIAL DO MP RESPLENDOR - COMARCA; RESPLENDOR-PJ-UNPJ 11.577,56 3.473,27 0,00 3.025,85 5.016,94 0,00 0,00 2.105,00 25.198,62 2.189,08 3.927,41 0,00 0,00 6.116,49 19.082,13 31/12/2023
595 535100 CLEISON ALVES DA SILVA ANALISTA DO MP BOA ESPERANÇA - COMARCA; BOA ESPERANCA-PJ-01PJ 12.343,61 3.703,08 0,00 3.514,31 5.348,90 0,00 0,00 2.105,00 27.014,90 2.348,42 4.248,74 0,00 0,00 6.597,16 20.417,74 31/12/2023
596 298100 CLEONICE AUGUSTA BARROS DE OLIVEIRA ANALISTA DO MP JUIZ DE FORA - COMARCA; JUIZ DE FORA-PJ-08PJ 23.070,31 6.921,09 0,00 4.312,84 9.997,13 0,00 0,00 2.105,00 46.406,37 4.579,57 8.852,50 0,00 0,00 13.432,07 32.974,30 31/12/2023
597 114301 CLERES PEREIRA DA SILVA JUNIOR ASSESSOR ADMINISTRATIVO I BELO HORIZONTE - COMARCA; GAECO - SECRETARIA 0,00 2.436,35 4.872,71 3.413,09 0,00 0,00 0,00 2.105,00 12.827,15 1.555,58 836,98 0,00 0,00 2.392,56 10.434,59 31/12/2023
598 264100 CLETO HENRIQUE ANDRADE SILVA ANALISTA DO MP BELO HORIZONTE - COMARCA; DIRETORIA DE SISTEMAS DE INFORMACAO 23.070,31 9.228,12 0,00 5.822,09 10.766,14 0,00 473,71 7.272,75 56.633,12 4.948,70 9.492,63 0,00 0,00 14.441,33 42.191,79 31/12/2023
599 334400 CLEUBA DE OLIVEIRA BARCELOS GONCALVES OFICIAL DO MP DIVINÓPOLIS - COMARCA; COORD REG SAUDE MACRORREGIAO SANITARIA OESTE 12.343,61 3.703,08 0,00 5.434,17 5.348,90 0,00 0,00 2.105,00 28.934,76 2.348,42 4.300,87 0,00 0,00 6.649,29 22.285,47 31/12/2023
600 347500 CLEUSA CORDEIRO DA MATA PIMENTA OFICIAL DO MP CAMPO BELO - COMARCA; CAMPO BELO-PJ-01PJ 12.343,61 11.109,25 0,00 6.213,99 8.995,42 3.533,41 0,00 2.105,00 44.300,68 3.533,41 7.986,18 0,00 0,00 11.519,59 32.781,09 31/12/2023
601 510200 CLEZIO SALES SILVA OFICIAL DO MP BRASÓPOLIS - COMARCA; BRASOPOLIS-PJ-UNPJ 7.506,70 1.501,34 0,00 3.264,84 3.002,68 0,00 540,48 4.045,45 19.861,49 1.308,71 2.081,87 0,00 0,00 3.390,58 16.470,91 31/12/2023
602 323000 CLOTILDE DE PADUA VIEIRA OFICIAL DO MP BELO HORIZONTE - COMARCA; BH-19PJ SAUDE-SECRETARIA 129PJ 12.343,61 3.703,08 0,00 2.792,86 5.348,90 0,00 0,00 2.105,00 26.293,45 2.348,42 4.353,01 0,00 0,00 6.701,43 19.592,02 31/12/2023
603 285200 CLOVIS ANDRE LUDTKE OFICIAL DO MP BELO HORIZONTE - COMARCA; DIVISAO DE MANUTENCAO PREDIAL 13.588,97 5.435,59 0,00 4.075,36 6.341,52 0,00 0,00 2.105,00 31.546,44 2.824,88 5.313,87 0,00 0,00 8.138,75 23.407,69 31/12/2023
604 381100 CONCEICAO APARECIDA TEIXEIRA ARANTES ANALISTA DO MP BELO HORIZONTE - COMARCA; BH-23PJ INFRACIONAL-ASS JURIDICA 19.751,60 5.925,48 0,00 4.383,63 8.559,03 0,00 3.961,61 3.055,00 45.636,35 4.523,14 7.552,65 0,00 0,00 12.075,79 33.560,56 31/12/2023
605 249900 CONSTANTINO CEZAR GOMES MOTA OFICIAL DO MP MONTES CLAROS - COMARCA; COORD REG BACIA RIOS VERDE GRANDE E PARDO 12.343,61 4.937,44 0,00 3.031,67 5.760,35 0,00 0,00 4.005,00 30.078,07 2.545,92 4.647,02 0,00 0,00 7.192,94 22.885,13 31/12/2023
606 481000 CRISHMA ANALIA LOMBELLO ANALISTA DO MP JUIZ DE FORA - COMARCA; JUIZ DE FORA-PJ-13PJ 12.343,61 2.468,72 0,00 10.116,62 4.937,44 0,00 0,00 2.105,00 31.971,39 2.150,92 3.902,59 0,00 0,00 6.053,51 25.917,88 31/12/2023
607 523900 CRISTHYANE BAZOLI COSTA GUEDES COUTO OFICIAL DO MP BELO HORIZONTE - COMARCA; BH-04PJ JUIZO REG PÚBLICOS-SECRETARIA 10.516,49 2.103,30 0,00 2.909,37 4.206,60 0,00 0,00 2.105,00 21.840,76 1.800,11 3.247,27 0,00 0,00 5.047,38 16.793,38 31/12/2023
608 187000 CRISTIAN DAYVSON EVANGELISTA OFICIAL DO MP JUIZ DE FORA - COMARCA; JUIZ DE FORA-PJ-13PJ 21.346,53 8.538,61 0,00 11.278,96 10.552,27 0,00 1.771,66 2.105,00 55.593,03 4.562,57 9.415,69 0,00 0,00 13.978,26 41.614,77 31/12/2023
609 682100 CRISTIAN TRISTAO DE ANDRADE ASSESSOR PROMOTOR JUSTICA TRÊS CORACOES - COMARCA; TRES CORACOES-PJ-04PJ 0,00 0,00 8.810,89 3.108,57 2.936,96 0,00 0,00 2.105,00 16.961,42 1.753,90 2.517,04 0,00 0,00 4.270,94 12.690,48 31/12/2023
610 319800 CRISTIANA GONCALVES DOS SANTOS GUSMAO OFICIAL DO MP SETE LAGOAS - COMARCA; SETE LAGOAS-PJ-04PJ 12.343,61 3.703,08 0,00 2.792,86 5.348,90 0,00 0,00 2.105,00 26.293,45 2.348,42 4.248,74 0,00 0,00 6.597,16 19.696,29 31/12/2023
611 520600 CRISTIANA JANAINA BARBOZA JUVENCIO DOS SANTOS ANALISTA DO MP BELO HORIZONTE - COMARCA; BH-02PJ FAMILIA-SECRETARIA 12.343,61 2.468,72 0,00 2.658,31 4.937,44 0,00 0,00 2.105,00 24.513,08 2.150,92 3.954,72 0,00 0,00 6.105,64 18.407,44 31/12/2023
612 195600 CRISTIANA SOARES HALABI OFICIAL DO MP UBERABA - COMARCA; UBERABA-PJ-01PJ 23.070,31 9.228,12 0,00 6.339,94 10.766,14 0,00 0,00 2.105,00 51.509,51 4.948,70 9.596,90 0,00 0,00 14.545,60 36.963,91 31/12/2023
613 218900 CRISTIANE ALVES BELLES OFICIAL DO MP JUIZ DE FORA - COMARCA; JUIZ DE FORA-PJ-10PJ 7.506,70 3.002,68 0,00 2.293,57 3.503,13 0,00 0,00 3.530,00 19.836,08 1.462,45 2.462,03 0,00 0,00 3.924,48 15.911,60 31/12/2023
614 263600 CRISTIANE CARVALHO COUTINHO OFICIAL DO MP BELO HORIZONTE - COMARCA; BH-23PJ INFRACIONAL-SEC EXP 14.960,00 5.984,00 0,00 4.338,52 6.981,33 0,00 0,00 2.105,00 34.368,85 3.131,99 5.881,07 0,00 0,00 9.013,06 25.355,79 31/12/2023
615 541000 CRISTIANE COELHO ALVES OFICIAL DO MP ITABIRA - COMARCA; ITABIRA-PJ-03PJ 7.506,70 1.501,34 0,00 2.077,79 3.002,68 0,00 0,00 2.105,00 16.193,51 1.222,23 2.029,74 0,00 0,00 3.251,97 12.941,54 31/12/2023
616 441700 CRISTIANE CORRADO DE ANDRADE ANALISTA DO MP BELO HORIZONTE - COMARCA; DIRETORIA DE SISTEMAS DE INFORMACAO 18.720,84 3.744,17 4.020,58 4.751,13 8.828,53 0,00 0,00 2.105,00 42.170,25 3.375,35 7.898,20 0,00 0,00 11.273,55 30.896,70 31/12/2023
617 375100 CRISTIANE DAS DORES ERCIO DE LIMA OFICIAL DO MP GOVERNADOR VALADARES - COMARCA; COOR REG APOIO COM INC MOB VALE DO RIO DOCE 11.954,43 3.586,33 0,00 2.982,68 5.180,25 0,00 0,00 2.105,00 25.808,69 2.267,47 4.189,76 0,00 0,00 6.457,23 19.351,46 31/12/2023
618 178800 CRISTIANE DE LIMA HOSKEN OFICIAL DO MP BELO HORIZONTE - COMARCA; DIRETORIA DE INTELIGENCIA 22.191,68 8.876,67 0,00 5.073,97 10.356,12 0,00 0,00 2.105,00 48.603,44 4.751,88 9.147,87 0,00 0,00 13.899,75 34.703,69 31/12/2023
619 494000 CRISTIANE DE MELO MARQUEZ OLIVEIRA ANALISTA DO MP UBERLÂNDIA - COMARCA; UBERLANDIA-PJ-06PJ 15.949,86 4.146,96 0,00 4.014,53 6.698,94 0,00 0,00 3.055,00 33.865,29 2.996,44 5.659,85 0,00 0,00 8.656,29 25.209,00 31/12/2023
620 266100 CRISTIANE DE OLIVEIRA CASTRO OFICIAL DO MP BELO HORIZONTE - COMARCA; BH-14PJ DEFESA CONSUMIDOR-SECRETARIA 18.130,77 7.252,31 0,00 4.713,66 9.051,58 0,00 1.771,66 2.105,00 43.024,98 3.842,24 7.910,89 0,00 0,00 11.753,13 31.271,85 31/12/2023
621 329500 CRISTIANE DOS REIS SILVA OFICIAL DO MP ARAXÁ - COMARCA; ARAXA-PJ-04PJ 12.343,61 3.703,08 0,00 2.897,13 5.348,90 0,00 0,00 2.105,00 26.397,72 2.348,42 4.248,74 0,00 0,00 6.597,16 19.800,56 31/12/2023
622 301600 CRISTIANE GODINHO PIRES ANALISTA DO MP BETIM - COMARCA; BETIM-PJ-06PJ 23.070,31 6.921,09 0,00 4.312,84 9.997,13 0,00 0,00 2.105,00 46.406,37 4.579,57 8.852,50 0,00 0,00 13.432,07 32.974,30 31/12/2023
623 406100 CRISTIANE GONCALVES CHAVES ANALISTA DO MP BELO HORIZONTE - COMARCA; BH-06PJ JUIZO CIVEL-SECRETARIA 20.533,67 8.213,47 0,00 5.446,19 9.582,38 0,00 0,00 2.105,00 45.880,71 4.380,49 8.451,02 0,00 0,00 12.831,51 33.049,20 31/12/2023
624 487600 CRISTIANE LOPES DE OLIVEIRA OFICIAL DO MP DIVINÓPOLIS - COMARCA; DIVINOPOLIS-PJ-03PJ 9.097,81 1.819,56 0,00 7.692,45 3.639,12 0,00 0,00 2.105,00 24.353,94 1.527,73 2.697,95 0,00 0,00 4.225,68 20.128,26 31/12/2023
625 502500 CRISTIANE MACIEL DE OLIVEIRA GOMES ANALISTA DO MP JUIZ DE FORA - COMARCA; JUIZ DE FORA-PJ-02PJ 12.343,61 2.468,72 0,00 2.658,31 4.937,44 0,00 0,00 3.055,00 25.463,08 2.150,92 3.954,72 0,00 0,00 6.105,64 19.357,44 31/12/2023
626 285500 CRISTIANE MAGALHAES LOURENCO ANALISTA DO MP BELO HORIZONTE - COMARCA; CENTRAL DE APOIO TECNICO-SETOR CONTABIL 23.070,31 9.228,12 0,00 6.672,00 10.766,14 0,00 2.307,03 2.105,00 54.148,60 5.686,94 9.549,85 0,00 0,00 15.236,79 38.911,81 31/12/2023
627 536500 CRISTIANE MICHELE DE SOUZA ANALISTA DO MP BARÃO DE COCAIS - COMARCA; BARAO DE COCAIS-PJ-UNPJ 12.343,61 2.468,72 0,00 2.762,59 4.937,44 0,00 888,74 2.105,00 25.506,10 2.293,12 3.850,45 0,00 0,00 6.143,57 19.362,53 31/12/2023
628 346600 CRISTIANE NOGUEIRA ANDRADE ANALISTA DO MP BELO HORIZONTE - COMARCA; CENTRAL DE APOIO TECNICO-SETOR CONTABIL 22.191,68 6.657,50 0,00 4.737,67 9.616,39 0,00 0,00 2.105,00 45.308,24 4.396,82 8.483,95 0,00 0,00 12.880,77 32.427,47 31/12/2023
629 234000 CRISTIANE OLIVEIRA TOSTES OFICIAL DO MP JUIZ DE FORA - COMARCA; JUIZ DE FORA-PJ-08PJ 20.533,67 8.213,47 0,00 5.446,19 9.582,38 0,00 0,00 3.055,00 46.830,71 4.380,49 8.451,02 0,00 0,00 12.831,51 33.999,20 31/12/2023
630 445800 CRISTIANE ORZIL COSTA OFICIAL DO MP SANTA LUZIA - COMARCA; SANTA LUZIA-PJ-05PJ 10.015,59 2.003,12 0,00 2.904,48 4.006,24 0,00 0,00 3.055,00 21.984,43 1.703,94 3.053,32 0,00 0,00 4.757,26 17.227,17 31/12/2023
631 616100 CRISTIANE PAES RODRIGUES MARCICANO ANALISTA DO MP CATAGUASES - COMARCA; CATAGUASES-PJ-05PJ 11.577,56 1.157,76 0,00 3.015,51 4.245,11 0,00 0,00 3.055,00 23.050,94 1.818,60 3.284,54 0,00 0,00 5.103,14 17.947,80 31/12/2023
632 612300 CRISTIANE RIBEIRO DOS REIS ARCANJO OFICIAL DO MP BELO HORIZONTE - COMARCA; DIRETORIA DE PAGAMENTO DE PESSOAL-DPAG 7.506,70 750,67 0,00 1.602,27 2.752,46 0,00 0,00 0,00 12.612,10 1.717,06 1.566,28 0,00 0,00 3.283,34 9.328,76 31/12/2023
633 257700 CRISTIANE RODRIGUES PAES NUNES ANALISTA DO MP BELO HORIZONTE - COMARCA; BH-22PJ PES COM DEF E IDOSOS-ORIENTACAO PSIC 23.070,31 9.228,12 0,00 4.616,43 10.766,14 0,00 0,00 3.055,00 50.736,00 4.948,70 9.544,77 0,00 0,00 14.493,47 36.242,53 31/12/2023
634 510800 CRISTIANE SANTOS FERNANDES ORNELES ANALISTA DO MP BELO HORIZONTE - COMARCA; BH-03PJ EMPRESARIAL-SECRETARIA 12.343,61 2.468,72 0,00 2.658,31 4.937,44 0,00 0,00 2.105,00 24.513,08 2.150,92 3.954,72 0,00 0,00 6.105,64 18.407,44 31/12/2023
635 535701 CRISTIANE SANTOS MIRANDA ANALISTA DO MP CONTAGEM - COMARCA; CONTAGEM-PJ-03PJ 11.212,54 1.794,00 0,00 3.276,81 4.335,51 0,00 0,00 2.105,00 22.723,86 1.861,99 3.372,06 0,00 0,00 5.234,05 17.489,81 31/12/2023
636 536200 CRISTIANO DE OLIVEIRA ANALISTA DO MP CONCEIÇÃO DO MATO DENTRO - COMARCA; CONCEICAO DO MATO DENTRO-PJ-UNPJ 12.343,61 2.468,72 0,00 2.762,59 4.937,44 0,00 0,00 4.005,00 26.517,36 2.150,92 3.850,45 0,00 0,00 6.001,37 20.515,99 31/12/2023
637 477400 CRISTIANO SOARES ELEUTERIO ANALISTA DO MP BELO HORIZONTE - COMARCA; GABINETE DE PROCURADOR DE JUSTIÇA-SALA1109-T3 15.949,86 3.189,97 0,00 3.431,72 6.379,94 0,00 0,00 2.105,00 31.056,49 2.843,32 5.351,06 0,00 0,00 8.194,38 22.862,11 31/12/2023
638 449400 CRISTIANO TEIXEIRA RODRIGUES LANA ANALISTA DO MP BELO HORIZONTE - COMARCA; BH-18PJ VIOLENCIA DOMESTICA-SECRETARIA 14.960,00 3.889,60 0,00 4.369,80 6.283,20 0,00 0,00 2.105,00 31.607,60 2.796,88 5.257,42 0,00 0,00 8.054,30 23.553,30 31/12/2023
639 239400 CRISTINA DE FATIMA CRUZ E SILVA OFICIAL DO MP MONTE SANTO DE MINAS - COMARCA; MONTE SANTO DE MINAS-PJ-SECRETARIA 18.130,77 7.252,31 0,00 6.996,38 9.741,77 3.842,24 0,00 2.105,00 48.068,47 3.842,24 8.774,37 0,00 0,00 12.616,61 35.451,86 31/12/2023
640 544000 CRISTINA DE OLIVEIRA TERRA ANALISTA DO MP BELO HORIZONTE - COMARCA; BH-18PJ VIOLENCIA DOMESTICA-SECRETARIA 12.343,61 2.468,72 0,00 10.064,48 4.937,44 0,00 0,00 2.105,00 31.919,25 2.150,92 3.954,72 0,00 0,00 6.105,64 25.813,61 31/12/2023
641 356800 CRISTINA DE PINHO BARROSO OFICIAL DO MP SABINÓPOLIS - COMARCA; SABINOPOLIS-PJ-UNPJ 11.577,56 4.631,02 0,00 3.657,52 5.402,86 0,00 0,00 3.055,00 28.323,96 2.374,32 4.300,97 0,00 0,00 6.675,29 21.648,67 31/12/2023
642 649500 CRISTINA DO DIVINO ESPIRITO SANTOS OFICIAL DO MP DIVINÓPOLIS - COMARCA; DIVINOPOLIS-PJ-12PJ 7.270,07 727,01 0,00 3.180,62 2.665,69 0,00 0,00 2.105,00 15.948,39 1.060,48 1.755,67 0,00 0,00 2.816,15 13.132,24 31/12/2023
643 727100 CRISTINA DORNELLES CLARET ASSESSOR ADMINISTRATIVO III BELO HORIZONTE - COMARCA; CAO-MEIO AMBIENTE 0,00 0,00 10.858,90 8.998,82 3.619,63 0,00 0,00 2.105,00 25.582,35 1.753,90 3.267,97 0,00 0,00 5.021,87 20.560,48 31/12/2023
644 348201 CRISTINA MARIA DA SILVA ANALISTA DO MP BELO HORIZONTE - COMARCA; CENT ESTAD COOPERACAO TECNICO-JURIDICA 12.343,61 2.468,72 0,00 2.658,31 4.937,44 0,00 0,00 3.530,00 25.938,08 2.150,92 3.954,72 0,00 0,00 6.105,64 19.832,44 31/12/2023
645 434900 CRISTINA MELO DE MADUREIRA ANALISTA DO MP BELO HORIZONTE - COMARCA; BH-07PJ 01 TRIBUNAL JURI-SECRETARIA 18.720,84 3.744,17 0,00 7.578,10 7.488,34 0,00 0,00 2.105,00 39.636,45 3.375,35 6.423,99 0,00 0,00 9.799,34 29.837,11 31/12/2023
646 307700 CRISTINA TEIXEIRA MARQUES OFICIAL DO MP BELO HORIZONTE - COMARCA; CENTRAL DE APOIO TECNICO-SETOR CONTABIL 12.343,61 3.703,08 0,00 2.792,86 5.348,90 0,00 0,00 2.105,00 26.293,45 2.348,42 4.353,01 0,00 0,00 6.701,43 19.592,02 31/12/2023
647 743100 CRISTOVAO JOSE DOS SANTOS JUNIOR ANALISTA DO MP BELO HORIZONTE - COMARCA; CGMP-DIR ESTAGIO PROBATORIO E ORIENT 7.040,78 0,00 0,00 3.033,51 0,00 0,00 0,00 2.105,00 12.179,29 909,81 801,06 0,00 0,00 1.710,87 10.468,42 31/12/2023
648 265300 CRISTOVAO SANCHES DE MEDEIROS ANALISTA DO MP BELO HORIZONTE - COMARCA; DIRETORIA DE CONTABILIDADE 23.070,31 9.228,12 0,00 6.288,92 10.766,14 0,00 0,00 2.105,00 51.458,49 4.948,70 9.596,90 0,00 0,00 14.545,60 36.912,89 31/12/2023
649 349800 CROZEIR LUIZ DA SILVA OFICIAL DO MP UNAÍ - COMARCA; UNAI-PJ-SECRETARIA 12.343,61 3.703,08 0,00 2.844,99 5.348,90 0,00 0,00 4.869,76 29.110,34 2.348,42 4.300,87 0,00 0,00 6.649,29 22.461,05 31/12/2023
650 490500 CYNTHIA CRISTINA DE SOUZA OLIVEIRA VALENTE ANALISTA DO MP BELO HORIZONTE - COMARCA; BH-09PJ AUDITORIA MILITAR-GAB 074PJ 12.343,61 2.468,72 0,00 5.032,24 4.937,44 0,00 0,00 2.105,00 26.887,01 2.150,92 3.954,72 0,00 0,00 6.105,64 20.781,37 31/12/2023
651 389800 CYNTHIA GARIGLIO DOS SANTOS OFICIAL DO MP PERDIZES - COMARCA; PERDIZES-PJ-SECRETARIA 11.212,54 3.363,76 0,00 3.018,86 4.858,77 0,00 0,00 2.105,00 24.558,93 2.113,16 3.722,15 0,00 0,00 5.835,31 18.723,62 31/12/2023
652 335101 CYNTHIA GONTIJO D ASSUNCAO ANALISTA DO MP BELO HORIZONTE - COMARCA; FEPDC-SECRETARIA EXECUTIVA 12.343,61 3.703,08 4.020,58 4.314,67 6.689,09 0,00 0,00 3.055,00 34.126,03 2.348,42 5.827,22 0,00 0,00 8.175,64 25.950,39 31/12/2023
653 269700 CYNTIA ROCHA CAVALCANTI OFICIAL DO MP UBERLÂNDIA - COMARCA; UBERLANDIA-PJ-06PJ 18.130,77 7.252,31 0,00 5.088,71 8.461,03 0,00 0,00 3.055,00 41.987,82 3.842,24 7.365,55 0,00 0,00 11.207,79 30.780,03 31/12/2023
654 278000 DAIRTON LOPES MARTINS FILHO COORDENADOR II BELO HORIZONTE - COMARCA; DIRETORIA DE SISTEMAS DE INFORMACAO 20.533,67 8.213,47 0,00 6.533,95 9.582,38 0,00 0,00 2.105,00 46.968,47 2.545,92 8.955,53 0,00 0,00 11.501,45 35.467,02 31/12/2023
655 392700 DALIANA CHAVES IBRAIM MARINHO OFICIAL DO MP ITAÚNA - COMARCA; ITAUNA-PJ-04PJ 10.341,72 2.068,34 0,00 8.601,50 4.136,69 0,00 0,00 2.105,00 27.253,25 1.766,56 3.179,59 0,00 0,00 4.946,15 22.307,10 31/12/2023
656 558101 DALLEY TASSIA SILVA ANALISTA DO MP MORADA NOVA DE MINAS - COMARCA; MORADA NOVA DE MINAS-PJ-UNPJ 12.343,61 1.234,36 0,00 9.417,03 4.525,99 0,00 0,00 3.055,00 30.575,99 1.953,42 3.452,16 0,00 0,00 5.405,58 25.170,41 31/12/2023
657 476700 DALTON DAUD ANALISTA DO MP ARAGUARI - COMARCA; ARAGUARI-PJ-05PJ 12.343,61 2.468,72 0,00 2.762,59 4.937,44 0,00 0,00 2.105,00 24.617,36 2.150,92 3.850,45 0,00 0,00 6.001,37 18.615,99 31/12/2023
658 750500 DANIEL ALMEIDA RIBEIRO OFICIAL DO MP ESPERA FELIZ - COMARCA; ESPERA FELIZ-PJ-UNPJ 4.570,25 0,00 0,00 1.016,88 0,00 0,00 274,22 3.055,00 8.916,35 616,22 247,80 0,00 0,00 864,02 8.052,33 31/12/2023
659 426900 DANIEL ALVES DA SILVA OFICIAL DO MP BELO HORIZONTE - COMARCA; DIVISÃO DE FISCALIZAÇÃO DAS RELAÇÕES DE CONSU 7.506,70 1.501,34 0,00 7.918,40 3.593,23 0,00 1.771,66 2.105,00 24.396,33 1.222,23 2.627,21 0,00 0,00 3.849,44 20.546,89 31/12/2023
660 536302 DANIEL BATISTA MARIANO OFICIAL DO MP LAGOA SANTA - COMARCA; LAGOA SANTA-PJ-SECRETARIA 4.570,25 0,00 0,00 2.029,38 1.523,42 0,00 0,00 2.105,00 10.228,05 671,06 606,26 0,00 0,00 1.277,32 8.950,73 31/12/2023
661 714000 DANIEL FERREIRA CAMARA ASSESSOR PROMOTOR JUSTICA RIBEIRÃO DAS NEVES - COMARCA; RIBEIRAO DAS NEVES-PJ-12PJ 0,00 0,00 8.810,89 3.108,57 2.936,96 0,00 0,00 2.105,00 16.961,42 1.753,90 2.517,04 0,00 0,00 4.270,94 12.690,48 31/12/2023
662 411000 DANIEL FERREIRA DA SILVA ANALISTA DO MP GOVERNADOR VALADARES - COMARCA; GOVERNADOR VALADARES-PJ-15PJ 18.130,77 7.252,31 0,00 4.419,31 8.461,03 0,00 0,00 4.480,00 42.743,42 3.842,24 7.157,01 0,00 0,00 10.999,25 31.744,17 31/12/2023
663 703500 DANIEL FILIPE DE DEUS SOARES ASSESSOR PROMOTOR JUSTICA ITABIRITO - COMARCA; ITABIRITO-PJ-02PJ 0,00 0,00 8.810,89 3.108,57 2.936,96 0,00 0,00 2.105,00 16.961,42 1.753,90 2.517,04 0,00 0,00 4.270,94 12.690,48 31/12/2023
664 309000 DANIEL GOMES DOS SANTOS ANALISTA DO MP POÇOS DE CALDAS - COMARCA; POCOS DE CALDAS-PJ-05PJ 23.070,31 6.921,09 0,00 4.312,84 9.997,13 0,00 0,00 2.105,00 46.406,37 4.579,57 8.852,50 0,00 0,00 13.432,07 32.974,30 31/12/2023
665 554500 DANIEL GOMES PEREIRA OFICIAL DO MP NANUQUE - COMARCA; NANUQUE-PJ-02PJ 7.506,70 1.501,34 0,00 2.025,65 3.002,68 0,00 540,48 2.105,00 16.681,85 1.308,71 2.081,87 0,00 0,00 3.390,58 13.291,27 31/12/2023
666 453000 DANIEL GONCALVES PEREIRA ANALISTA DO MP UNAÍ - COMARCA; UNAI-PJ-02PJ 12.343,61 3.209,34 0,00 3.109,35 5.184,32 0,00 0,00 4.480,00 28.326,62 2.269,42 4.193,70 0,00 0,00 6.463,12 21.863,50 31/12/2023
667 495500 DANIEL GUIMARAES CABRAL OFICIAL DO MP BELO HORIZONTE - COMARCA; BH-17PJ PATRIMONIO PUBLICO-SECRETARIA 10.341,72 2.068,34 0,00 2.592,14 4.136,69 0,00 0,00 3.055,00 22.193,89 1.766,56 3.179,59 0,00 0,00 4.946,15 17.247,74 31/12/2023
668 442900 DANIEL GUIMARAES GONCALVES ANALISTA DO MP UBERLÂNDIA - COMARCA; UBERLANDIA-PJ-03PJ 18.130,77 4.714,00 0,00 6.516,27 7.614,92 0,00 0,00 2.105,00 39.080,96 982,16 6.905,03 0,00 0,00 7.887,19 31.193,77 31/12/2023
669 655900 DANIEL LUIZ DA SILVA ASSESSOR ADMINISTRATIVO II BELO HORIZONTE - COMARCA; DIV FISCAL ADM CONT TERCEIRIZACAO 0,00 0,00 7.506,70 2.815,10 2.502,23 0,00 0,00 2.105,00 14.929,03 1.753,79 2.038,83 0,00 0,00 3.792,62 11.136,41 31/12/2023
670 464600 DANIEL PIACENTINI STIVANIN ANALISTA DO MP ANDRADAS - COMARCA; ANDRADAS-PJ-02PJ 12.343,61 2.468,72 0,00 2.658,31 4.937,44 0,00 0,00 2.105,00 24.513,08 2.150,92 3.954,72 0,00 0,00 6.105,64 18.407,44 31/12/2023
671 417000 DANIEL QUEIROZ FERREIRA ANALISTA DO MP PASSOS - COMARCA; PASSOS-PJ-06PJ 18.130,77 5.439,23 0,00 7.057,02 7.856,67 0,00 0,00 3.055,00 41.538,69 982,16 7.155,99 0,00 0,00 8.138,15 33.400,54 31/12/2023
672 396700 DANIEL SILVA CARNEVALLI SUPERINTENDENTE BELO HORIZONTE - COMARCA; SUPERINTENDENCIA DE TECNOLOGIA DA INFORMACAO 28.013,39 8.404,02 0,00 6.141,21 12.139,14 0,00 0,00 3.055,00 57.752,76 4.051,95 11.353,81 0,00 0,00 15.405,76 42.347,00 31/12/2023
673 489300 DANIEL TABOZA ROCHA ANALISTA DO MP IPATINGA - COMARCA; IPATINGA-PJ-08PJ 12.343,61 2.468,72 0,00 3.806,99 4.937,44 0,00 0,00 3.055,00 26.611,76 982,16 3.974,81 0,00 0,00 4.956,97 21.654,79 31/12/2023
674 414100 DANIEL TARDELI VALADAO ANALISTA DO MP TRÊS CORACOES - COMARCA; TRES CORACOES-PJ-02PJ 18.130,77 5.439,23 0,00 7.265,57 7.856,67 0,00 0,00 4.005,00 42.697,24 982,16 6.947,44 0,00 0,00 7.929,60 34.767,64 31/12/2023
675 731800 DANIEL VASCONCELOS ARAUJO SILVA ASSESSOR ADMINISTRATIVO IV BELO HORIZONTE - COMARCA; DIRETORIA DE REDES E BANCOS DE DADOS 0,00 0,00 14.488,22 4.385,97 9.658,82 0,00 0,00 2.105,00 30.638,01 1.753,90 5.926,81 0,00 0,00 7.680,71 22.957,30 31/12/2023
676 446601 DANIEL VIEIRA BUENO ANALISTA DO MP SÃO DOMINGOS DO PRATA - COMARCA; SAO DOMINGOS DO PRATA-PJ-UNPJ 12.343,61 2.468,72 0,00 3.327,63 4.937,44 0,00 0,00 3.055,00 26.132,40 2.150,92 3.902,59 0,00 0,00 6.053,51 20.078,89 31/12/2023
677 253200 DANIELA BATISTA LIMA BARBOSA ASSESSOR ADMINISTRATIVO II BELO HORIZONTE - COMARCA; CENTRAL DE APOIO TECN-SETOR DE MEIO AMBIENTE 0,00 3.002,68 7.506,70 3.490,73 3.503,13 0,00 0,00 2.105,00 19.608,24 1.753,90 3.139,82 0,00 0,00 4.893,72 14.714,52 31/12/2023
678 505800 DANIELA BORGES DE MATTOS RESENDE ANALISTA DO MP JUIZ DE FORA - COMARCA; JUIZ DE FORA-PJ-20PJ 12.343,61 2.468,72 0,00 5.032,24 4.937,44 0,00 0,00 2.105,00 26.887,01 2.150,92 3.954,72 0,00 0,00 6.105,64 20.781,37 31/12/2023
679 478000 DANIELA CARVALHO SOARES ANALISTA DO MP SÃO JOÃO DEL REI - COMARCA; SAO JOAO DEL REI-PJ-01PJ 12.343,61 2.468,72 0,00 5.032,24 4.937,44 0,00 0,00 2.105,00 26.887,01 2.150,92 3.954,72 0,00 0,00 6.105,64 20.781,37 31/12/2023
680 275900 DANIELA CHAGAS SODRE ANALISTA DO MP BELO HORIZONTE - COMARCA; CENTRAL DE APOIO TECNICO-SETOR CONTABIL 23.070,31 9.228,12 0,00 5.769,95 10.766,14 0,00 0,00 2.105,00 50.939,52 4.948,70 9.544,77 0,00 0,00 14.493,47 36.446,05 31/12/2023
681 234301 DANIELA CRUZ SOARES ANALISTA DO MP BELO HORIZONTE - COMARCA; LABORATORIO TECNOLOGIA INTELIGENCIA 23.070,31 9.228,12 0,00 4.564,29 10.766,14 0,00 0,00 2.105,00 49.733,86 4.948,70 9.596,90 0,00 0,00 14.545,60 35.188,26 31/12/2023
682 638000 DANIELA DE ALMEIDA BATISTA ANALISTA DO MP ANDRELÂNDIA - COMARCA; ANDRELANDIA-PJ-UNPJ 11.577,56 1.157,76 0,00 3.239,10 4.245,11 0,00 764,12 3.055,00 24.038,65 1.104,42 3.514,56 0,00 0,00 4.618,98 19.419,67 31/12/2023
683 301000 DANIELA DE ALMEIDA E OLIVEIRA ANALISTA DO MP BELO HORIZONTE - COMARCA; DIRETORIA DE SISTEMAS DE INFORMACAO 23.070,31 6.921,09 0,00 7.633,02 11.523,66 4.579,57 0,00 2.105,00 55.832,65 4.579,57 10.531,68 0,00 0,00 15.111,25 40.721,40 31/12/2023
684 296000 DANIELA DE AZEVEDO SILVA ANALISTA DO MP BRASÓPOLIS - COMARCA; BRASOPOLIS-PJ-UNPJ 23.070,31 9.228,12 0,00 4.564,29 10.766,14 0,00 0,00 2.105,00 49.733,86 4.948,70 9.596,90 0,00 0,00 14.545,60 35.188,26 31/12/2023
685 453500 DANIELA DE CASTRO SOUSA BARBOSA ANALISTA DO MP BELO HORIZONTE - COMARCA; BH-08PJ JUIZADO ESPECIAL-GAB 070PJ 14.960,00 3.889,60 0,00 4.369,80 6.283,20 0,00 0,00 2.105,00 31.607,60 2.796,88 5.257,42 0,00 0,00 8.054,30 23.553,30 31/12/2023
686 506000 DANIELA DE OLIVEIRA CAVALIERI ANALISTA DO MP BELO HORIZONTE - COMARCA; BH-14PJ DEFESA CONSUMIDOR-GAB 005PJ 12.343,61 2.468,72 0,00 2.658,31 4.937,44 0,00 0,00 2.105,00 24.513,08 2.150,92 3.954,72 0,00 0,00 6.105,64 18.407,44 31/12/2023
687 546200 DANIELA DE VILHENA LEMES GONCALVES OFICIAL DO MP TRÊS CORACOES - COMARCA; TRES CORACOES-PJ-05PJ 7.506,70 750,67 0,00 2.048,09 2.752,46 0,00 0,00 2.105,00 15.162,92 1.102,13 1.735,38 0,00 0,00 2.837,51 12.325,41 31/12/2023
688 356400 DANIELA LEAL FERRAZ ANALISTA DO MP MONTES CLAROS - COMARCA; COORD REG PJ DEF EDUC DIR CRIANCA ADOL NORTE 21.346,53 6.403,96 0,00 4.596,93 9.250,16 0,00 0,00 3.055,00 44.652,58 4.221,03 8.129,44 0,00 0,00 12.350,47 32.302,11 31/12/2023
689 501000 DANIELA LOURENCO SANTOS DA SILVA GUIMARAES ANALISTA DO MP BELO HORIZONTE - COMARCA; BH-12PJ JUIZO CRIMINAL-GAB 095PJ 12.343,61 2.468,72 0,00 2.710,45 4.937,44 0,00 0,00 2.105,00 24.565,22 2.150,92 3.902,59 0,00 0,00 6.053,51 18.511,71 31/12/2023
690 195801 DANIELA MARIA DE OLIVEIRA QUEIROZ ANALISTA DO MP ARAGUARI - COMARCA; ARAGUARI-PJ-06PJ 18.720,84 7.488,34 0,00 4.313,62 8.736,39 0,00 0,00 2.105,00 41.364,19 3.974,42 7.632,11 0,00 0,00 11.606,53 29.757,66 31/12/2023
691 511400 DANIELA MARIA LARA DE OLIVEIRA ANALISTA DO MP BOA ESPERANÇA - COMARCA; BOA ESPERANCA-PJ-02PJ 12.343,61 3.703,08 0,00 10.868,34 5.348,90 0,00 962,80 3.055,00 36.281,73 2.502,47 4.300,87 0,00 0,00 6.803,34 29.478,39 31/12/2023
692 252101 DANIELA PAULA ALVES PENA ANALISTA DO MP CONTAGEM - COMARCA; CONTAGEM-PJ-APO TECNICO 20.533,67 8.213,47 0,00 5.446,19 9.582,38 0,00 0,00 2.105,00 45.880,71 4.380,49 8.451,02 0,00 0,00 12.831,51 33.049,20 31/12/2023
693 604700 DANIELA PEIXOTO NOGUEIRA COORDENADOR II BELO HORIZONTE - COMARCA; DIRET DE FORMACAO, APERFEIC. E POS-GRADUACAO 20.533,67 4.106,73 0,00 9.632,38 8.213,47 0,00 0,00 3.055,00 45.541,25 1.222,23 7.813,74 0,00 0,00 9.035,97 36.505,28 31/12/2023
694 755700 DANIELA PIMENTEL PEREIRA ASSESSOR ADMINISTRATIVO I BELO HORIZONTE - COMARCA; DIRET DE ESTAGIOS E CONVENIOS ACADEMICOS 0,00 0,00 4.872,71 1.218,18 0,00 0,00 0,00 2.105,00 8.195,89 809,44 670,06 0,00 0,00 1.479,50 6.716,39 31/12/2023
695 662000 DANIELA RIBAS DE AVILA ASSESSOR ADMINISTRATIVO III BELO HORIZONTE - COMARCA; JUNTA RECURSAL DO PROCON ESTADUAL 0,00 0,00 10.858,90 3.569,37 3.619,63 0,00 0,00 2.105,00 20.152,90 1.753,90 3.267,97 0,00 0,00 5.021,87 15.131,03 31/12/2023
696 462000 DANIELA SOUSA GOMES DO AMARAL ANALISTA DO MP BETIM - COMARCA; BETIM-PJ-04PJ 15.447,01 3.089,40 0,00 6.344,19 6.178,80 0,00 0,00 2.105,00 33.164,40 2.746,77 5.156,36 0,00 0,00 7.903,13 25.261,27 31/12/2023
697 427000 DANIELA TEIXEIRA DINIZ ANDRADE ANALISTA DO MP BELO HORIZONTE - COMARCA; DIRETORIA DE PROJETOS DE EDIFICACOES 13.588,97 2.717,79 4.020,58 4.035,02 6.775,78 0,00 359,43 2.105,00 33.602,57 2.390,03 5.859,00 0,00 0,00 8.249,03 25.353,54 31/12/2023
698 337200 DANIELA TOLEDO SENIUK ANALISTA DO MP BELO HORIZONTE - COMARCA; GABINETE DE PROCURADOR DE JUSTIÇA - SALA 412 23.070,31 6.921,09 0,00 9.654,28 9.997,13 0,00 0,00 2.105,00 51.747,81 4.579,57 8.852,50 0,00 0,00 13.432,07 38.315,74 31/12/2023
699 605600 DANIELE ALZIRA SILVA CABRAL MOREIRA OFICIAL DO MP BELO HORIZONTE - COMARCA; BH-10PJ EXECUÇÃO PENAL-SECRETARIA 7.506,70 1.501,34 0,00 2.694,49 3.002,68 0,00 750,67 2.105,00 17.560,88 1.462,45 2.081,87 0,00 0,00 3.544,32 14.016,56 31/12/2023
700 195500 DANIELE CHAVES FONSECA OFICIAL DO MP BELO HORIZONTE - COMARCA; CGMP-DIR INSP CORR PROCED PROC DISC 23.070,31 9.228,12 0,00 6.339,94 10.766,14 0,00 0,00 2.105,00 51.509,51 4.948,70 9.596,90 0,00 0,00 14.545,60 36.963,91 31/12/2023
701 323400 DANIELE MEGALE SANTINI OFICIAL DO MP BELO HORIZONTE - COMARCA; CGMP-DIR INSP CORR PROCED PROC DISC 14.960,00 4.488,00 0,00 4.106,91 6.482,67 0,00 0,00 2.105,00 32.142,58 2.892,63 5.398,36 0,00 0,00 8.290,99 23.851,59 31/12/2023
702 357900 DANIELE REJANE PINTO VERSIEUX OFICIAL DO MP BELO HORIZONTE - COMARCA; BH-12PJ JUIZO CRIMINAL-SECRETARIA 12.343,61 3.703,08 0,00 2.792,86 5.348,90 0,00 0,00 2.105,00 26.293,45 2.348,42 4.353,01 0,00 0,00 6.701,43 19.592,02 31/12/2023
703 389500 DANIELE VASCONCELOS AMORIM OFICIAL DO MP SÃO SEBASTIÃO DO PARAÍSO - COMARCA; SAO SEBASTIAO DO PARAISO-PJ-04PJ 12.343,61 3.703,08 0,00 2.792,86 5.348,90 0,00 0,00 2.105,00 26.293,45 2.348,42 4.353,01 0,00 0,00 6.701,43 19.592,02 31/12/2023
704 629700 DANIELLA BASTOS MARTINS BICALHO OFICIAL DO MP GOVERNADOR VALADARES - COMARCA; GOVERNADOR VALADARES-PJ-16PJ 7.506,70 750,67 0,00 6.072,51 2.752,46 0,00 0,00 2.105,00 19.187,34 1.102,13 1.839,66 0,00 0,00 2.941,79 16.245,55 31/12/2023
705 725500 DANIELLE CAMILE OLIVEIRA FONSECA ASSESSOR PROCURADOR JUSTICA BELO HORIZONTE - COMARCA; PROC JUST ATUACAO TRIBUNAIS SUPERIORES-GAB007 0,00 0,00 8.810,89 3.108,57 2.936,96 0,00 0,00 2.105,00 16.961,42 1.753,90 2.517,04 0,00 0,00 4.270,94 12.690,48 31/12/2023
706 265000 DANIELLE CASTANHEIRA SCALABRINI OFICIAL DO MP BELO HORIZONTE - COMARCA; JUNTA RECURSAL DO PROCON ESTADUAL 12.343,61 4.937,44 0,00 3.596,72 5.760,35 0,00 0,00 2.105,00 28.743,12 2.545,92 4.699,16 0,00 0,00 7.245,08 21.498,04 31/12/2023
707 490100 DANIELLE DE AVILA SILVA LOPES ANALISTA DO MP BELO HORIZONTE - COMARCA; PROC. JUSTICA DIR. DIFUSOS E COLETIVOS-SEC 12.343,61 4.937,44 0,00 3.544,58 5.760,35 0,00 0,00 3.055,00 29.640,98 2.545,92 4.751,30 0,00 0,00 7.297,22 22.343,76 31/12/2023
708 549600 DANIELLE GOMES LOPES RODRIGUES OFICIAL DO MP BELO HORIZONTE - COMARCA; COORD DE GABINETE DO PGJ 7.506,70 1.501,34 0,00 6.529,67 3.002,68 0,00 0,00 2.105,00 20.645,39 1.222,23 2.081,87 0,00 0,00 3.304,10 17.341,29 31/12/2023
709 613000 DANIELLE SILVA OLIVEIRA FRANKLIN COORDENADOR II BELO HORIZONTE - COMARCA; DIRETORIA DE ADMINISTRACAO FINANCEIRA 20.533,67 2.053,37 0,00 16.364,88 7.529,01 0,00 0,00 3.055,00 49.535,93 1.235,43 7.057,21 0,00 0,00 8.292,64 41.243,29 31/12/2023
710 722800 DANIELLE VALENTIM SOUZA ASSESSOR PROCURADOR JUSTICA BELO HORIZONTE - COMARCA; GABINETE DE PROCURADOR DE JUSTIÇA - SALA 606 0,00 0,00 8.721,56 3.108,57 2.936,96 0,00 0,00 2.105,00 16.872,09 1.753,90 2.492,47 0,00 0,00 4.246,37 12.625,72 31/12/2023
711 736400 DANIELLY VITORIA MARIA RUELA ASSESSOR PROMOTOR JUSTICA PARACATU - COMARCA; COORD REG PP NOROESTE MINAS GERAIS PARACATU 0,00 0,00 8.810,89 4.153,45 0,00 0,00 0,00 2.105,00 15.069,34 1.525,20 1.709,37 0,00 0,00 3.234,57 11.834,77 31/12/2023
712 380800 DANILLO RIBEIRO ANTUNES ANALISTA DO MP MONTES CLAROS - COMARCA; MONTES CLAROS-PJ-SECRETARIA 20.533,67 6.160,10 0,00 5.582,49 9.488,48 0,00 2.293,53 7.798,09 51.856,36 4.051,95 8.385,94 0,00 0,00 12.437,89 39.418,47 31/12/2023
713 453700 DANILO BOTELHO DE CARVALHO SUPERINTENDENTE BELO HORIZONTE - COMARCA; SUPERINTENDENCIA DE FINANCAS 28.013,39 5.602,68 0,00 6.132,06 11.205,36 0,00 0,00 2.105,00 53.058,49 3.262,06 10.543,87 0,00 0,00 13.805,93 39.252,56 31/12/2023
714 391200 DANILO D'AVILA MENDES ANALISTA DO MP MONTES CLAROS - COMARCA; GAECO REGIONAL DE MONTES CLAROS 20.533,67 6.160,10 0,00 5.131,73 8.897,92 0,00 0,00 3.055,00 43.778,42 4.051,95 7.788,47 0,00 0,00 11.840,42 31.938,00 31/12/2023
715 710900 DANILO DE SOUZA RODRIGUES ASSESSOR PROMOTOR JUSTICA IPANEMA - COMARCA; IPANEMA-PJ-01PJ 0,00 0,00 8.810,89 3.108,57 2.936,96 0,00 0,00 2.105,00 16.961,42 1.753,90 2.517,04 0,00 0,00 4.270,94 12.690,48 31/12/2023
716 494900 DANILO GAVIAO AVELINO DE MELLO ANALISTA DO MP POUSO ALEGRE - COMARCA; GAECO REGIONAL DE POUSO ALEGRE 12.343,61 2.468,72 0,00 5.032,24 4.937,44 0,00 0,00 2.105,00 26.887,01 2.150,92 3.954,72 0,00 0,00 6.105,64 20.781,37 31/12/2023
717 604300 DANILO NASCIMENTO SALGADO ANALISTA DO MP JANAÚBA - COMARCA; JANAUBA-PJ-01PJ 12.343,61 2.468,72 0,00 3.275,49 4.937,44 0,00 0,00 2.105,00 25.130,26 2.150,92 3.954,72 0,00 0,00 6.105,64 19.024,62 31/12/2023
718 298300 DANUZA MONICA DE SOUZA DINIZ ANALISTA DO MP BELO HORIZONTE - COMARCA; CAO-FUNDACOES-ASSESSORIA JURIDICA 23.070,31 6.921,09 0,00 4.936,08 9.997,13 0,00 0,00 2.105,00 47.029,61 4.579,57 8.800,37 0,00 0,00 13.379,94 33.649,67 31/12/2023
719 398700 DARCY LUIZ MILEO GREGATTI OFICIAL DO MP LAMBARI - COMARCA; LAMBARI-PJ-SECRETARIA 12.343,61 3.703,08 0,00 5.562,17 5.348,90 0,00 0,00 2.105,00 29.062,76 2.348,42 4.353,01 0,00 0,00 6.701,43 22.361,33 31/12/2023
720 406200 DARIANA AUGUSTA DE TOLEDO PATROCINIO RUIZ OFICIAL DO MP BELO HORIZONTE - COMARCA; DIRETORIA GESTAO COMPRAS LICITACOES 12.343,61 3.703,08 5.538,92 5.597,90 7.195,20 0,00 0,00 3.055,00 37.433,71 2.348,42 6.383,95 0,00 0,00 8.732,37 28.701,34 31/12/2023
721 586901 DARIO VITORINO DE CARVALHO SILVA ASSESSOR ADM. ESPECIAL BELO HORIZONTE - COMARCA; NUCLEO DE OPERACOES DE SEGURANCA DE PESSOAL 0,00 0,00 28.013,39 11.182,46 9.337,80 0,00 0,00 2.105,00 50.638,65 1.753,90 9.505,82 0,00 0,00 11.259,72 39.378,93 31/12/2023
722 305000 DARLI LEITE DE OLIVEIRA OFICIAL DO MP ARAÇUAÍ - COMARCA; ARACUAI-PJ-01PJ 7.506,70 2.252,01 0,00 2.263,88 3.252,90 0,00 0,00 2.105,00 17.380,49 1.342,34 2.167,68 0,00 0,00 3.510,02 13.870,47 31/12/2023
723 729400 DAVI PIMENTA ASSESSOR PROMOTOR JUSTICA CANDEIAS - COMARCA; CANDEIAS-PJ-UNPJ 0,00 0,00 8.810,89 3.108,57 2.936,96 0,00 0,00 2.105,00 16.961,42 1.753,90 2.517,04 0,00 0,00 4.270,94 12.690,48 31/12/2023
724 122200 DAVID RIBEIRO DOS SANTOS ANALISTA DO MP BORDA DA MATA - COMARCA; BORDA DA MATA-PJ-UNPJ 23.070,31 23.070,31 0,00 9.342,70 14.461,77 5.795,34 0,00 2.105,00 77.845,43 5.795,34 14.213,08 8.550,66 0,00 28.559,08 49.286,35 31/12/2023
725 389400 DAWSON CANEDO MARQUES OFICIAL DO MP POUSO ALEGRE - COMARCA; POUSO ALEGRE-PJ-08PJ 12.343,61 3.703,08 0,00 2.792,86 5.348,90 0,00 0,00 3.055,00 27.243,45 2.348,42 2.610,61 0,00 0,00 4.959,03 22.284,42 31/12/2023
726 537200 DAYANE TEIXEIRA DE OLIVEIRA CASELLI ANALISTA DO MP BELO HORIZONTE - COMARCA; ASSESS TECNICO-JUR JUNTO AS PROC. DE JUST 11.212,54 1.121,25 0,00 2.867,10 4.111,26 0,00 0,00 2.105,00 21.417,15 1.754,35 3.154,98 0,00 0,00 4.909,33 16.507,82 31/12/2023
727 256100 DAYSE ROSALY PEREIRA BATISTA OFICIAL DO MP BELO HORIZONTE - COMARCA; BH-08PJ JUIZADO ESPECIAL-SECRETARIA 12.343,61 4.937,44 0,00 2.927,40 5.760,35 0,00 0,00 2.105,00 28.073,80 2.545,92 4.751,30 0,00 0,00 7.297,22 20.776,58 31/12/2023
728 311901 DEBORA APARECIDA DA SILVA ASSESSOR ADMINISTRATIVO I BELO HORIZONTE - COMARCA; BH-23PJ CIVEL-SETOR JURIDICO 0,00 0,00 4.872,71 2.110,52 1.624,24 0,00 292,36 2.105,00 11.004,83 1.267,09 1.105,47 0,00 0,00 2.372,56 8.632,27 31/12/2023
729 194301 DEBORA APARECIDA DOS SANTOS ANALISTA DO MP UBERLÂNDIA - COMARCA; UBERLANDIA-PJ-SEC FAMILIA 23.070,31 9.228,12 0,00 4.564,29 10.766,14 0,00 0,00 2.105,00 49.733,86 4.948,70 9.596,90 0,00 0,00 14.545,60 35.188,26 31/12/2023
730 518800 DEBORA CARVALHO FIORATTO COORDENADOR II BELO HORIZONTE - COMARCA; DIRETORIA MATERIAIS E SERVICOS 20.533,67 4.106,73 0,00 5.123,97 8.213,47 0,00 0,00 2.105,00 40.082,84 1.800,11 7.654,82 0,00 0,00 9.454,93 30.627,91 31/12/2023
731 444900 DEBORA CLAUDIA PEREIRA ALVES ANALISTA DO MP BELO HORIZONTE - COMARCA; BH-08PJ JUIZADO ESPECIAL-GAB 168PJ 14.960,00 2.992,00 0,00 6.489,25 5.984,00 0,00 0,00 2.105,00 32.530,25 2.653,27 4.967,79 0,00 0,00 7.621,06 24.909,19 31/12/2023
732 617700 DEBORA COMANDUCI SCHREIDER ANALISTA DO MP BICAS - COMARCA; BICAS-PJ-UNPJ 12.343,61 1.234,36 0,00 2.997,24 4.525,99 0,00 0,00 2.105,00 23.206,20 1.953,42 3.504,30 0,00 0,00 5.457,72 17.748,48 31/12/2023
733 555700 DEBORA CRISTINA BUITRAGO PEREIRA ANALISTA DO MP BELO HORIZONTE - COMARCA; DIRETORIA GESTAO CONTRATOS CONVENIOS 12.343,61 2.468,72 4.020,58 3.562,94 6.277,64 0,00 552,43 9.081,53 38.307,45 2.150,92 5.428,94 0,00 0,00 7.579,86 30.727,59 31/12/2023
734 513100 DEBORA CRISTINA PEREIRA DE OLIVEIRA ANALISTA DO MP BELO HORIZONTE - COMARCA; BH-23PJ CIVEL-SETOR JURIDICO 14.960,00 2.992,00 0,00 3.823,16 5.984,00 0,00 0,00 3.530,00 31.289,16 2.653,27 4.967,79 0,00 0,00 7.621,06 23.668,10 31/12/2023
735 612100 DEBORA DUARTE SILVA DE SOUZA OFICIAL DO MP BELO HORIZONTE - COMARCA; BH-12PJ JUIZO CRIMINAL-SECRETARIA 7.506,70 3.002,68 0,00 2.293,57 3.503,13 0,00 0,00 2.105,00 18.411,08 1.462,45 2.462,03 0,00 0,00 3.924,48 14.486,60 31/12/2023
736 717500 DEBORA ENDREFFY ORSI PARENZI ASSESSOR PROMOTOR JUSTICA MATEUS LEME - COMARCA; MATEUS LEME-PJ-01PJ 0,00 0,00 8.810,89 3.108,57 2.936,96 0,00 0,00 2.105,00 16.961,42 1.753,90 2.517,04 0,00 0,00 4.270,94 12.690,48 31/12/2023
737 539700 DEBORA SALES CARVALHO ANALISTA DO MP PATOS DE MINAS - COMARCA; COORD REG PJ DEF EDU DIR CRI ADO AL PAR NOROE 12.343,61 2.468,72 0,00 3.656,32 4.937,44 0,00 0,00 2.105,00 25.511,09 982,16 4.125,47 0,00 0,00 5.107,63 20.403,46 31/12/2023
738 424100 DEBORA SANTOS E ALVES ANALISTA DO MP JANUÁRIA - COMARCA; JANUARIA-PJ-01PJ 18.720,84 5.616,25 0,00 5.718,58 8.112,36 0,00 1.872,08 3.055,00 43.095,11 4.273,94 7.028,05 0,00 0,00 11.301,99 31.793,12 31/12/2023
739 426301 DEBORA SCUCATO MACHADO SOARES OFICIAL DO MP ITABIRA - COMARCA; ITABIRA-PJ-01PJ 7.506,70 1.501,34 0,00 6.529,67 3.002,68 0,00 0,00 3.055,00 21.595,39 1.222,23 2.081,87 0,00 0,00 3.304,10 18.291,29 31/12/2023
740 678100 DEBORA SOUZA COSTA ASSESSOR PROMOTOR JUSTICA BOTELHOS - COMARCA; BOTELHOS-PJ-UNPJ 0,00 0,00 8.810,89 7.566,15 2.936,96 0,00 0,00 2.105,00 21.419,00 1.753,90 2.464,90 0,00 0,00 4.218,80 17.200,20 31/12/2023
741 550200 DEBORA TRINDADE LEITE ANALISTA DO MP MANHUAÇU - COMARCA; MANHUACU-PJ-05PJ 12.343,61 2.468,72 0,00 2.762,59 4.937,44 0,00 0,00 2.105,00 24.617,36 2.150,92 3.850,45 0,00 0,00 6.001,37 18.615,99 31/12/2023
742 438000 DEBORAH COSTA LAGE ANALISTA DO MP BELO HORIZONTE - COMARCA; PROC JUST ATUACAO TRIBUNAIS SUPERIORES-GAB006 18.720,84 3.744,17 0,00 3.846,50 7.488,34 0,00 0,00 2.105,00 35.904,85 3.375,35 6.423,99 0,00 0,00 9.799,34 26.105,51 31/12/2023
743 613700 DEISER MARIA FERREIRA ROSCOE OFICIAL DO MP BELO HORIZONTE - COMARCA; DIVISÃO DE EDUCAÇÃO PARA O CONSUMO 7.506,70 750,67 0,00 1.943,82 2.752,46 0,00 0,00 2.105,00 15.058,65 1.102,13 1.839,66 0,00 0,00 2.941,79 12.116,86 31/12/2023
744 753300 DEISIANE MARA DE OLIVEIRA OFICIAL DO MP CONSELHEIRO PENA - COMARCA; CONSELHEIRO PENA-PJ-01PJ 4.570,25 0,00 0,00 1.016,88 0,00 0,00 0,00 2.105,00 7.692,13 572,34 247,80 0,00 0,00 820,14 6.871,99 31/12/2023
745 551900 DEISY ROCHA DA SILVA ANALISTA DO MP JANAÚBA - COMARCA; JANAUBA-PJ-02PJ 12.343,61 2.468,72 0,00 5.058,31 4.937,44 0,00 0,00 2.105,00 26.913,08 2.150,92 3.902,59 0,00 0,00 6.053,51 20.859,57 31/12/2023
746 736800 DELANZIA APARECIDA JUNHO ASSESSOR DE CAO BELO HORIZONTE - COMARCA; CAO-FUNDACOES 0,00 0,00 7.506,70 3.397,87 0,00 0,00 0,00 2.105,00 13.009,57 1.403,48 1.350,72 0,00 0,00 2.754,20 10.255,37 31/12/2023
747 501900 DELI RAQUEL RODRIGUES ANALISTA DO MP ITUIUTABA - COMARCA; ITUIUTABA-PJ-04PJ 12.343,61 2.468,72 0,00 10.064,48 4.937,44 0,00 0,00 2.105,00 31.919,25 2.150,92 3.954,72 0,00 0,00 6.105,64 25.813,61 31/12/2023
748 378600 DELIANE LOPES VIEIRA BREIJAO ANALISTA DO MP JUIZ DE FORA - COMARCA; JUIZ DE FORA-PJ-04PJ 20.533,67 6.160,10 0,00 5.183,87 8.897,92 0,00 0,00 2.105,00 42.880,56 4.051,95 7.736,33 0,00 0,00 11.788,28 31.092,28 31/12/2023
749 730100 DELIENE FRACETE GUTIERREZ ASSESSOR ADMINISTRATIVO I TEÓFILO OTONI - COMARCA; COORD REG APOIO COM INC MOB SOC VALE MUCURI 0,00 0,00 4.872,71 2.527,49 1.624,24 0,00 0,00 2.105,00 11.129,44 1.226,16 1.116,73 0,00 0,00 2.342,89 8.786,55 31/12/2023
750 756600 DELZIRA DE OLIVEIRA BALDOINO ASSESSOR DE CAO BELO HORIZONTE - COMARCA; CENTRO ESTADUAL DE APOIO AS VITIMAS 0,00 0,00 7.506,70 1.251,12 0,00 0,00 0,00 2.105,00 10.862,82 970,78 1.350,72 0,00 0,00 2.321,50 8.541,32 31/12/2023
751 487700 DENIA FERREIRA MAIA SILVA OFICIAL DO MP TRÊS CORACOES - COMARCA; TRES CORACOES-PJ-04PJ 8.264,07 1.652,81 0,00 3.688,92 3.305,63 0,00 0,00 2.105,00 19.016,43 1.367,65 2.270,85 0,00 0,00 3.638,50 15.377,93 31/12/2023
752 726300 DENILZA RODRIGUES MORAES ASSESSOR ADMINISTRATIVO I BELO HORIZONTE - COMARCA; CENT DE ATENDIMENTO AS PROMOTORIAS DE JUSTICA 0,00 0,00 4.872,71 2.110,52 1.624,24 0,00 0,00 2.105,00 10.712,47 1.226,16 1.116,73 0,00 0,00 2.342,89 8.369,58 31/12/2023
753 424800 DENIS APARECIDO CAMPOS DELFINO ANALISTA DO MP LUZ - COMARCA; LUZ-PJ-UNPJ 18.130,77 3.626,15 0,00 3.966,87 7.252,31 0,00 0,00 2.105,00 35.081,10 3.262,06 5.986,96 0,00 0,00 9.249,02 25.832,08 31/12/2023
754 381400 DENISE ANGELICA MELLO DE PAULA OFICIAL DO MP BELO HORIZONTE - COMARCA; BH-18PJ DIREITOS HUMANOS-SECRETARIA 12.343,61 3.703,08 4.346,47 3.770,82 6.797,72 0,00 0,00 3.055,00 34.016,70 2.348,42 5.946,72 0,00 0,00 8.295,14 25.721,56 31/12/2023
755 196300 DENISE DE ALMEIDA VILELA FURTADO OFICIAL DO MP BELO HORIZONTE - COMARCA; CENTRAL DE APOIO TECNICO-SECRETARIA 21.346,53 8.538,61 0,00 4.870,25 9.961,71 0,00 0,00 3.530,00 48.247,10 4.562,57 8.818,22 0,00 0,00 13.380,79 34.866,31 31/12/2023
756 271100 DENISE ELOY PEIXOTO OFICIAL DO MP BELO HORIZONTE - COMARCA; DIRETORIA DE INTELIGENCIA 18.130,77 7.252,31 5.538,92 9.104,43 10.307,33 0,00 0,00 2.105,00 52.438,76 3.842,24 9.396,49 0,00 0,00 13.238,73 39.200,03 31/12/2023
757 385400 DENISE FREITAS DE ASSIS OFICIAL DO MP CARATINGA - COMARCA; CARATINGA-PJ-SECRETARIA 12.343,61 3.703,08 3.004,68 4.204,11 6.350,46 0,00 0,00 2.105,00 31.710,94 2.348,42 5.454,73 0,00 0,00 7.803,15 23.907,79 31/12/2023
758 437100 DENISE NOGUEIRA MAGRI MENDES ANALISTA DO MP BELO HORIZONTE - COMARCA; LAB TECNOLOGIA CONTRA LAVAGEM DINHEIRO 18.720,84 7.488,34 0,00 4.417,90 8.736,39 0,00 0,00 2.105,00 41.468,47 3.974,42 7.527,83 0,00 0,00 11.502,25 29.966,22 31/12/2023
759 524700 DENISE RAMOS GUIMARAES OFICIAL DO MP BELO HORIZONTE - COMARCA; BH-07PJ 01 TRIBUNAL JURI-SECRETARIA 7.506,70 1.501,34 0,00 3.264,84 3.002,68 0,00 0,00 2.105,00 17.380,56 1.222,23 2.081,87 0,00 0,00 3.304,10 14.076,46 31/12/2023
760 239100 DENISE RIBEIRO DOS SANTOS CAETANO OFICIAL DO MP ITANHANDU - COMARCA; ITANHANDU-PJ-SECRETARIA 18.130,77 7.252,31 0,00 4.262,90 8.461,03 0,00 1.522,98 2.105,00 41.734,99 4.085,92 7.313,42 0,00 0,00 11.399,34 30.335,65 31/12/2023
761 325500 DENISE ROSA TORRES OFICIAL DO MP BELO HORIZONTE - COMARCA; DIRETORIA DE PESSOAL ADMINISTRATIVO - DPAD 14.960,00 4.488,00 0,00 4.054,77 6.482,67 0,00 0,00 2.105,00 32.090,44 2.892,63 5.450,50 0,00 0,00 8.343,13 23.747,31 31/12/2023
762 437200 DENISE VIVIANE DOS SANTOS ANALISTA DO MP BELO HORIZONTE - COMARCA; CGMP-DIR ESTAGIO PROBATORIO E ORIENT 15.949,86 3.189,97 0,00 3.483,86 6.379,94 0,00 0,00 3.530,00 32.533,63 2.843,32 5.298,93 0,00 0,00 8.142,25 24.391,38 31/12/2023
763 267900 DENISIA ALMEIDA SALES OFICIAL DO MP BELO HORIZONTE - COMARCA; BH-18PJ DIREITOS HUMANOS-SECRETARIA 12.343,61 4.937,44 0,00 3.596,72 5.760,35 0,00 0,00 2.105,00 28.743,12 2.545,92 4.699,16 0,00 0,00 7.245,08 21.498,04 31/12/2023
764 755500 DENNER GUEDES NEIVA ASSESSOR PROMOTOR JUSTICA NOVO CRUZEIRO - COMARCA; NOVO CRUZEIRO-PJ-UNPJ 0,00 0,00 8.810,89 2.202,72 0,00 0,00 0,00 2.105,00 13.118,61 1.055,39 1.709,37 0,00 0,00 2.764,76 10.353,85 31/12/2023
765 355300 DEYSE CRISTINA MORAIS OFICIAL DO MP PASSOS - COMARCA; PASSOS-PJ-02PJ 12.343,61 3.703,08 0,00 2.792,86 5.348,90 0,00 0,00 2.105,00 26.293,45 2.348,42 4.353,01 0,00 0,00 6.701,43 19.592,02 31/12/2023
766 523700 DIANA CAMPOS RESENDE OFICIAL DO MP SÃO JOÃO DEL REI - COMARCA; SAO JOAO DEL REI-PJ-04PJ 10.516,49 7.361,54 0,00 3.738,82 5.959,34 0,00 0,00 2.105,00 29.681,19 2.641,43 4.891,79 0,00 0,00 7.533,22 22.147,97 31/12/2023
767 241900 DIANA CARDOSO MARTINS OFICIAL DO MP BELO HORIZONTE - COMARCA; CAO-DH CONT EXT ATIV POLIC E AP COMUNIT 12.343,61 4.937,44 0,00 2.927,40 5.760,35 0,00 0,00 2.105,00 28.073,80 2.545,92 4.751,30 0,00 0,00 7.297,22 20.776,58 31/12/2023
768 410100 DIANA GORDILHO SILVEIRA SENA ANALISTA DO MP BELO HORIZONTE - COMARCA; BH-14PJ DEFESA CONSUMIDOR-GAB 112PJ 18.720,84 5.616,25 0,00 4.986,60 8.112,36 0,00 0,00 2.105,00 39.541,05 3.674,88 7.028,05 0,00 0,00 10.702,93 28.838,12 31/12/2023
769 553000 DIANA MARIA MARQUES ANALISTA DO MP BETIM - COMARCA; BETIM-PJ-07PJ 12.343,61 2.468,72 0,00 2.710,45 4.937,44 0,00 0,00 2.105,00 24.565,22 2.150,92 3.902,59 0,00 0,00 6.053,51 18.511,71 31/12/2023
770 520000 DIARLE TOSTE DOS SANTOS ANALISTA DO MP RIO POMBA - COMARCA; RIO POMBA-PJ-UNPJ 12.343,61 2.468,72 0,00 2.658,31 4.937,44 0,00 0,00 2.105,00 24.513,08 2.150,92 3.228,72 0,00 0,00 5.379,64 19.133,44 31/12/2023
771 539800 DIEGO CAMARGOS RODRIGUES OFICIAL DO MP CONTAGEM - COMARCA; CONTAGEM-PJ-05PJ 7.506,70 1.501,34 0,00 2.025,65 3.002,68 0,00 0,00 2.105,00 16.141,37 1.222,23 2.081,87 0,00 0,00 3.304,10 12.837,27 31/12/2023
772 607300 DIEGO CERVEIRA DE SOUZA ANALISTA DO MP PATOS DE MINAS - COMARCA; COORD REG BACIAS PARACATU,URUCUIA E ABAETE 12.343,61 1.234,36 0,00 3.353,14 4.525,99 0,00 0,00 2.105,00 23.562,10 982,16 3.698,33 0,00 0,00 4.680,49 18.881,61 31/12/2023
773 446900 DIEGO DE FREITAS OFICIAL DO MP UBERABA - COMARCA; UBERABA-PJ-06PJ 11.577,56 2.315,51 0,00 3.194,75 4.631,02 0,00 0,00 2.105,00 23.823,84 2.003,84 3.658,11 0,00 0,00 5.661,95 18.161,89 31/12/2023
774 288800 DILENE NEPOMUCENO ALVES OFICIAL DO MP BELO HORIZONTE - COMARCA; DIRETORIA DE PESSOAL ADMINISTRATIVO - DPAD 12.343,61 4.937,44 0,00 6.642,46 5.760,35 0,00 1.234,36 2.105,00 33.023,22 2.940,92 4.751,30 0,00 0,00 7.692,22 25.331,00 31/12/2023
775 270101 DILSON DO AMARAL ANALISTA DO MP RIO CASCA - COMARCA; RIO CASCA-PJ-UNPJ 12.343,61 3.703,08 0,00 3.410,04 5.348,90 0,00 0,00 2.105,00 26.910,63 2.348,42 4.353,01 0,00 0,00 6.701,43 20.209,20 31/12/2023
776 466000 DIMITRI GUDE MARCIAL ANALISTA DO MP NANUQUE - COMARCA; NANUQUE-PJ-02PJ 12.343,61 2.468,72 0,00 2.814,72 4.937,44 0,00 0,00 4.005,00 26.569,49 2.150,92 3.798,31 0,00 0,00 5.949,23 20.620,26 31/12/2023
777 516300 DINORA APARECIDA MACEDO BRANDAO ANALISTA DO MP BELO HORIZONTE - COMARCA; BH-19PJ SAUDE-SECRETARIA 150PJ 12.343,61 2.468,72 0,00 2.658,31 4.937,44 0,00 0,00 2.105,00 24.513,08 2.150,92 3.954,72 0,00 0,00 6.105,64 18.407,44 31/12/2023
778 511700 DIOGENES HENRIQUES PEREIRA LOURENCO ANALISTA DO MP BELO HORIZONTE - COMARCA; BH-03PJ EMPRESARIAL-SECRETARIA 12.343,61 2.468,72 0,00 3.656,32 4.937,44 0,00 0,00 3.055,00 26.461,09 982,16 4.125,47 0,00 0,00 5.107,63 21.353,46 31/12/2023
779 604100 DIOGO CESAR DE OLIVEIRA HONORIO ASSESSOR ADMINISTRATIVO III PIUMHI - COMARCA; PIUMHI-PJ-02PJ 0,00 0,00 10.858,90 8.998,82 3.619,63 0,00 651,53 2.105,00 26.233,88 1.753,90 3.267,97 0,00 0,00 5.021,87 21.212,01 31/12/2023
780 259600 DIOGO MESQUITA MAIA ANALISTA DO MP BELO HORIZONTE - COMARCA; DIRET DE APOIO AS PROCURADORIAS DE JUSTICA 23.070,31 20.763,28 0,00 9.394,84 14.461,77 5.795,34 0,00 2.105,00 75.590,54 5.795,34 13.949,46 6.243,63 0,00 25.988,43 49.602,11 31/12/2023
781 386700 DIRCIMAR FERNANDES CARNEIRO OFICIAL DO MP BELO HORIZONTE - COMARCA; BH-16PJ HABITACAO URBANISMO-GAB 117PJ 12.343,61 9.874,89 0,00 4.082,77 7.406,17 0,00 0,00 2.105,00 35.812,44 3.335,91 6.344,45 0,00 0,00 9.680,36 26.132,08 31/12/2023
782 216700 DOMICIO VALDETE PEREIRA OFICIAL DO MP TEÓFILO OTONI - COMARCA; COORD REG PJ DEF EDU DIR CRIAN ADOL JEQUI MUC 21.346,53 8.538,61 0,00 4.974,53 9.961,71 0,00 0,00 2.105,00 46.926,38 4.562,57 8.713,94 0,00 0,00 13.276,51 33.649,87 31/12/2023
783 192701 DONIZETTI APARECIDO AMORIM ANALISTA DO MP PRATÁPOLIS - COMARCA; PRATAPOLIS-PJ-UNPJ 12.343,61 4.937,44 0,00 2.979,54 5.760,35 0,00 0,00 2.105,00 28.125,94 2.545,92 4.699,16 0,00 0,00 7.245,08 20.880,86 31/12/2023
784 558700 DORCILIA FATIMA DE OLIVEIRA OFICIAL DO MP DIVINÓPOLIS - COMARCA; DIVINOPOLIS-PJ-02PJ 7.506,70 1.501,34 0,00 3.339,24 3.410,09 1.222,23 0,00 2.105,00 19.084,60 1.222,23 2.477,89 0,00 0,00 3.700,12 15.384,48 31/12/2023
785 555300 DOUGLAS CUNHA DE SOUZA ANALISTA DO MP VARZEA DA PALMA - COMARCA; VARZEA DA PALMA-PJ-01PJ 12.343,61 2.468,72 0,00 11.062,49 4.937,44 0,00 0,00 3.055,00 33.867,26 982,16 4.125,47 0,00 0,00 5.107,63 28.759,63 31/12/2023
786 265900 DOUGLAS GOMES MOREIRA ANALISTA DO MP BELO HORIZONTE - COMARCA; CENTRAL DE APOIO TECNICO-SETOR DE ENGENHARIA 23.070,31 9.228,12 0,00 5.717,81 10.766,14 0,00 0,00 2.105,00 50.887,38 4.948,70 9.596,90 0,00 0,00 14.545,60 36.341,78 31/12/2023
787 241000 DOUGLAS MEIRELLES DE CASTRO OFICIAL DO MP CONCEIÇÃO DO RIO VERDE - COMARCA; CONCEICAO DO RIO VERDE-PJ-UNPJ 18.130,77 9.065,39 0,00 5.367,06 9.065,39 0,00 1.631,77 2.105,00 45.365,38 4.393,41 7.898,44 0,00 0,00 12.291,85 33.073,53 31/12/2023
788 534900 DOUGLAS SILVA E SOUZA ANALISTA DO MP CAMPOS GERAIS - COMARCA; CAMPOS GERAIS-PJ-02PJ 12.343,61 2.468,72 0,00 3.708,46 4.937,44 0,00 0,00 2.105,00 25.563,23 982,16 4.073,33 0,00 0,00 5.055,49 20.507,74 31/12/2023
789 638900 DOUGLAS WALLAS CONCEICAO NEVES OFICIAL DO MP RIBEIRÃO DAS NEVES - COMARCA; RIBEIRAO DAS NEVES-PJ-03PJ 6.818,83 681,88 0,00 1.979,61 2.500,24 0,00 0,00 2.105,00 14.085,56 981,10 1.595,50 0,00 0,00 2.576,60 11.508,96 31/12/2023
790 146800 DUCINALVA AMARAL LOPES REIS OFICIAL DO MP PARAISÓPOLIS - COMARCA; PARAISOPOLIS-PJ-UNPJ 23.070,31 18.456,25 0,00 9.446,98 14.461,77 6.156,20 2.255,40 2.105,00 75.951,91 6.156,20 13.712,21 3.936,60 0,00 23.805,01 52.146,90 31/12/2023
791 122500 DUILIO CARLOS FERREIRA UTSCH OFICIAL DO MP CONCEIÇÃO DO MATO DENTRO - COMARCA; CONCEICAO DO MATO DENTRO-PJ-UNPJ 21.346,53 19.211,88 0,00 14.068,84 14.461,77 5.795,34 477,24 7.311,24 82.672,84 5.795,34 13.701,37 2.968,45 0,00 22.465,16 60.207,68 31/12/2023
792 201800 DULCINEIA ANDRE DE SOUZA OFICIAL DO MP JEQUITINHONHA - COMARCA; JEQUITINHONHA-PJ-SECRETARIA 21.346,53 8.538,61 0,00 5.026,66 9.961,71 0,00 1.793,11 2.105,00 48.771,62 4.849,47 8.661,81 0,00 0,00 13.511,28 35.260,34 31/12/2023
793 395800 DUVIDIER MEDIRCIO JUNIOR ANALISTA DO MP BELO HORIZONTE - COMARCA; CAO-PATRIMONIO PUBLICO 20.533,67 6.160,10 0,00 4.461,74 8.897,92 0,00 0,00 2.105,00 42.158,43 4.051,95 7.788,47 0,00 0,00 11.840,42 30.318,01 31/12/2023
794 604800 ECIA RAMILIS ISSA DE ABREU ANALISTA DO MP BRASÍLIA DE MINAS - COMARCA; BRASILIA DE MINAS-PJ-01PJ 12.343,61 2.468,72 0,00 3.758,13 4.937,44 0,00 1.234,36 3.055,00 27.797,26 2.545,92 3.954,72 0,00 0,00 6.500,64 21.296,62 31/12/2023
795 273000 EDELFINA APARECIDA GUIMARAES OFICIAL DO MP CACHOEIRA DE MINAS - COMARCA; CACHOEIRA DE MINAS-PJ-UNPJ 14.960,00 11.968,00 0,00 5.264,98 8.976,00 0,00 0,00 2.105,00 43.273,98 4.089,43 7.811,91 0,00 0,00 11.901,34 31.372,64 31/12/2023
796 523300 EDER DOS SANTOS PATRICIO ANALISTA DO MP NOVA SERRANA - COMARCA; NOVA SERRANA-PJ-03PJ 12.343,61 2.468,72 0,00 3.708,46 4.937,44 0,00 0,00 3.055,00 26.513,23 982,16 4.073,33 0,00 0,00 5.055,49 21.457,74 31/12/2023
797 356700 EDER JOSE PACHECO OFICIAL DO MP CAMPO BELO - COMARCA; CAMPO BELO-PJ-04PJ 12.343,61 3.703,08 0,00 6.076,40 5.348,90 0,00 1.122,05 2.105,00 30.699,04 2.348,42 4.609,44 0,00 0,00 6.957,86 23.741,18 31/12/2023
798 507900 EDERSON SILVA LOPES OFICIAL DO MP BELO HORIZONTE - COMARCA; LABORATORIO TECNOLOGIA INTELIGENCIA 10.015,59 2.003,12 0,00 4.569,08 4.006,24 0,00 0,00 2.105,00 22.699,03 1.703,94 2.949,04 0,00 0,00 4.652,98 18.046,05 31/12/2023
799 296200 EDGARD GOULART MATOSINHO DE LAET JR ANALISTA DO MP GOVERNADOR VALADARES - COMARCA; GOVERNADOR VALADARES-PJ-12PJ 23.070,31 6.921,09 0,00 4.988,22 9.997,13 0,00 0,00 2.105,00 47.081,75 4.579,57 8.748,23 0,00 0,00 13.327,80 33.753,95 31/12/2023
800 332300 EDILA MARILAC MIRANDA PRADO OFICIAL DO MP DIAMANTINA - COMARCA; DIAMANTINA-PJ-01PJ 12.343,61 8.640,53 0,00 4.669,68 6.994,71 0,00 230,83 4.623,10 37.502,46 3.138,41 5.841,89 0,00 0,00 8.980,30 28.522,16 31/12/2023
801 376600 EDILANE CONSOLACAO ROSA NAZARETH ANALISTA DO MP BETIM - COMARCA; BETIM-PJ-10PJ 20.533,67 6.160,10 0,00 10.521,87 8.897,92 0,00 0,00 2.105,00 48.218,56 491,08 8.236,94 0,00 0,00 8.728,02 39.490,54 31/12/2023
802 309800 EDILZA DOS REIS OFICIAL DO MP UBERLÂNDIA - COMARCA; UBERLANDIA-PJ-03PJ 12.343,61 3.703,08 0,00 2.844,99 5.348,90 0,00 0,00 2.105,00 26.345,58 2.348,42 4.300,87 0,00 0,00 6.649,29 19.696,29 31/12/2023
803 200500 EDINEIA MARIA DE OLIVEIRA ANTUNES OFICIAL DO MP MONTES CLAROS - COMARCA; MONTES CLAROS-PJ-10PJ 21.346,53 10.673,27 0,00 5.143,57 10.673,27 0,00 0,00 2.105,00 49.941,64 4.904,12 9.507,00 0,00 0,00 14.411,12 35.530,52 31/12/2023
804 427700 EDISANGELA SOARES LOPES OFICIAL DO MP PIRAPORA - COMARCA; PIRAPORA-PJ-02PJ 7.506,70 1.501,34 0,00 3.264,84 3.002,68 0,00 0,00 2.105,00 17.380,56 1.222,23 2.081,87 0,00 0,00 3.304,10 14.076,46 31/12/2023
805 555400 EDISON MONTEIRO SAMPAIO NETO ANALISTA DO MP BELO HORIZONTE - COMARCA; BH-12PJ JUIZO CRIMINAL-GAB 098PJ 12.343,61 2.468,72 0,00 2.658,31 4.937,44 0,00 0,00 2.105,00 24.513,08 2.150,92 3.954,72 0,00 0,00 6.105,64 18.407,44 31/12/2023
806 517700 EDMILSON TADEU FERNANDES OFICIAL DO MP POUSO ALEGRE - COMARCA; GAECO REGIONAL DE POUSO ALEGRE 9.699,77 1.939,95 0,00 2.495,99 3.879,91 0,00 0,00 3.055,00 21.070,62 1.643,30 2.931,03 0,00 0,00 4.574,33 16.496,29 31/12/2023
807 358400 EDNA APARECIDA SILVA FERREIRA OFICIAL DO MP CORONEL FABRICIANO - COMARCA; CORONEL FABRICIANO-PJ-02PJ 14.960,00 4.488,00 0,00 4.159,05 6.482,67 0,00 0,00 2.105,00 32.194,72 2.892,63 5.398,36 0,00 0,00 8.290,99 23.903,73 31/12/2023
808 331800 EDNA MARCIA CAMILO DA SILVA OFICIAL DO MP SETE LAGOAS - COMARCA; SETE LAGOAS-PJ-SEC CRIMINAIS 12.343,61 3.703,08 0,00 2.844,99 5.348,90 0,00 0,00 2.105,00 26.345,58 2.348,42 4.300,87 0,00 0,00 6.649,29 19.696,29 31/12/2023
809 327900 EDRIEL SANTANA PEREIRA OFICIAL DO MP TUPACIGUARA - COMARCA; TUPACIGUARA-PJ-02PJ 12.343,61 3.703,08 0,00 2.792,86 5.348,90 0,00 962,80 3.165,10 28.316,35 2.502,47 4.353,01 0,00 0,00 6.855,48 21.460,87 31/12/2023
810 482400 EDSON GARCIA OFICIAL DO MP MACHADO - COMARCA; MACHADO-PJ-02PJ 7.506,70 1.501,34 0,00 2.129,93 3.002,68 0,00 0,00 2.105,00 16.245,65 1.222,23 1.977,60 0,00 0,00 3.199,83 13.045,82 31/12/2023
811 225601 EDSON LABRE FILHO ANALISTA DO MP VARGINHA - COMARCA; VARGINHA-PJ-01PJ 23.070,31 9.228,12 0,00 5.231,47 10.766,14 0,00 0,00 2.105,00 50.401,04 4.948,70 9.544,77 0,00 0,00 14.493,47 35.907,57 31/12/2023
812 602700 EDSON NOGUEIRA BUENO OFICIAL DO MP PITANGUI - COMARCA; PITANGUI-PJ-02PJ 7.506,70 1.501,34 0,00 2.400,98 3.002,68 0,00 0,00 2.105,00 16.516,70 1.222,23 2.081,87 0,00 0,00 3.304,10 13.212,60 31/12/2023
813 716500 EDUARDA CORREA MOREIRA ASSESSOR ADMINISTRATIVO I BELO HORIZONTE - COMARCA; DIRET DE FORMACAO, APERFEIC. E POS-GRADUACAO 0,00 0,00 4.872,71 2.527,49 1.624,24 0,00 0,00 3.055,00 12.079,44 1.226,16 1.116,73 0,00 0,00 2.342,89 9.736,55 31/12/2023
814 414400 EDUARDO ABRANTES CAMPOS ANALISTA DO MP SÃO JOÃO DEL REI - COMARCA; SAO JOAO DEL REI-PJ-02PJ 18.720,84 5.616,25 0,00 5.718,58 8.112,36 0,00 3.332,31 2.105,00 43.605,34 4.489,60 7.028,05 0,00 0,00 11.517,65 32.087,69 31/12/2023
815 476800 EDUARDO ALVES DE MOURA ANALISTA DO MP UBERLÂNDIA - COMARCA; UBERLANDIA-PJ-01PJ 12.343,61 2.468,72 0,00 3.812,74 4.937,44 0,00 0,00 3.055,00 26.617,51 982,16 3.969,06 0,00 0,00 4.951,22 21.666,29 31/12/2023
816 390800 EDUARDO AMORIM PETTERSEN OFICIAL DO MP CARANGOLA - COMARCA; CARANGOLA-PJ-SECRETARIA 12.343,61 3.703,08 0,00 3.528,06 5.348,90 0,00 0,00 2.105,00 27.028,65 2.348,42 4.353,01 0,00 0,00 6.701,43 20.327,22 31/12/2023
817 461600 EDUARDO ANTONIO DE ASSIS FARIA ASSESSOR ADMINISTRATIVO III BELO HORIZONTE - COMARCA; ASSESS EXECUTIVA DO CONSELHO SUPERIOR DO MP 0,00 0,00 10.858,90 3.621,51 3.619,63 0,00 0,00 2.105,00 20.205,04 1.753,90 3.215,84 0,00 0,00 4.969,74 15.235,30 31/12/2023
818 248800 EDUARDO DE CASTRO AMORIM ANALISTA DO MP BELO HORIZONTE - COMARCA; SUPER DE GESTAO DE PESSOAS-LOTACAO TEMPORARIA 23.070,31 9.228,12 0,00 4.564,29 10.766,14 0,00 0,00 2.105,00 49.733,86 4.948,70 9.596,90 0,00 0,00 14.545,60 35.188,26 31/12/2023
819 209100 EDUARDO DE SOUZA MAIA ANALISTA DO MP BELO HORIZONTE - COMARCA; SUPER DE GESTAO DE PESSOAS-LOTACAO TEMPORARIA 23.070,31 9.228,12 0,00 4.668,57 10.766,14 0,00 0,00 2.105,00 49.838,14 4.948,70 9.492,63 0,00 0,00 14.441,33 35.396,81 31/12/2023
820 633900 EDUARDO GONCALVES PIRES OFICIAL DO MP BELO HORIZONTE - COMARCA; DIRETORIA DE PAGAMENTO DE PESSOAL-DPAG 9.097,81 3.639,12 0,00 3.015,71 4.245,64 0,00 0,00 2.105,00 22.103,28 1.818,86 3.285,06 0,00 0,00 5.103,92 16.999,36 31/12/2023
821 350500 EDUARDO GONCALVES RIBEIRO OFICIAL DO MP VESPASIANO - COMARCA; VESPASIANO-PJ-SECRETARIA 12.343,61 3.703,08 3.004,68 12.994,60 6.350,46 0,00 0,00 2.105,00 40.501,43 2.348,42 5.454,73 0,00 0,00 7.803,15 32.698,28 31/12/2023
822 115800 EDUARDO HENRIQUE DE CAMPOS MAIA OFICIAL DO MP BELO HORIZONTE - COMARCA; DIV FISCAL ADM CONT TERCEIRIZACAO 23.070,31 16.149,22 0,00 5.297,49 12.529,99 0,00 0,00 2.105,00 59.152,01 5.795,34 11.297,27 1.629,57 0,00 18.722,18 40.429,83 31/12/2023
823 392600 EDUARDO HENRIQUE DOS SANTOS COSTA ELIAZAR OFICIAL DO MP MATOZINHOS - COMARCA; MATOZINHOS-PJ-01PJ 11.212,54 3.363,76 0,00 10.025,01 4.858,77 0,00 874,58 2.105,00 32.439,66 2.253,09 3.774,29 0,00 0,00 6.027,38 26.412,28 31/12/2023
824 99101 EDUARDO JOSE DE FREITAS NUNES ASSESSOR ADMINISTRATIVO II BELO HORIZONTE - COMARCA; JUNTA RECURSAL DO PROCON ESTADUAL 0,00 3.753,35 7.506,70 5.083,31 3.753,35 0,00 0,00 2.105,00 22.201,71 1.753,90 3.415,06 0,00 0,00 5.168,96 17.032,75 31/12/2023
825 407500 EDUARDO MASCARENHAS CURI AZEVEDO ANALISTA DO MP BELO HORIZONTE - COMARCA; DIR CONTEUDO JORNALISTICO 12.343,61 3.703,08 0,00 3.629,45 5.348,90 0,00 0,00 3.055,00 28.080,04 2.348,42 4.353,01 0,00 0,00 6.701,43 21.378,61 31/12/2023
826 754700 EDUARDO NOBRE LEITE OFICIAL DO MP MANGA - COMARCA; MANGA-PJ-02PJ 4.570,25 0,00 0,00 1.016,88 0,00 0,00 0,00 3.318,07 8.905,20 572,34 247,80 0,00 0,00 820,14 8.085,06 31/12/2023
827 752000 EDUARDO SOUZA PRADO JUNIOR OFICIAL DO MP ITAMONTE - COMARCA; ITAMONTE-PJ-UNPJ 4.570,25 0,00 0,00 1.016,88 0,00 0,00 0,00 2.105,00 7.692,13 572,34 247,80 0,00 0,00 820,14 6.871,99 31/12/2023
828 257600 EDUARDO VALADARES CABRAL ANALISTA DO MP BELO HORIZONTE - COMARCA; COORD DE INCLUSAO E MOBILIZACAO SOCIAIS 23.070,31 9.228,12 0,00 20.713,51 10.766,14 0,00 0,00 2.105,00 65.883,08 4.948,70 9.596,90 0,00 0,00 14.545,60 51.337,48 31/12/2023
829 746800 EDUARDO XAVIER ARAUJO OFICIAL DO MP RIBEIRÃO DAS NEVES - COMARCA; RIBEIRAO DAS NEVES-PJ-02PJ 4.570,25 0,00 0,00 2.029,38 0,00 0,00 0,00 2.105,00 8.704,63 671,06 225,59 0,00 0,00 896,65 7.807,98 31/12/2023
830 545700 EDVAIR FERREIRA DE CARVALHO OFICIAL DO MP ARAGUARI - COMARCA; ARAGUARI-PJ-06PJ 7.506,70 1.501,34 0,00 2.077,79 3.002,68 0,00 0,00 2.105,00 16.193,51 1.222,23 2.029,74 0,00 0,00 3.251,97 12.941,54 31/12/2023
831 401700 EDWANIA AMORIM DO CARMO OFICIAL DO MP BELO HORIZONTE - COMARCA; BH-12PJ JUIZO CRIMINAL-SECRETARIA 12.343,61 3.703,08 0,00 5.783,97 5.348,90 0,00 0,00 2.105,00 29.284,56 2.348,42 4.353,01 0,00 0,00 6.701,43 22.583,13 31/12/2023
832 303600 EFIGENIO SARAIVA LOPES ANALISTA DO MP BELO HORIZONTE - COMARCA; DIRETORIA DE PAGAMENTO DE PESSOAL-DPAG 23.070,31 6.921,09 5.538,92 5.663,37 11.843,44 0,00 0,00 2.105,00 55.142,13 4.579,57 10.779,17 0,00 0,00 15.358,74 39.783,39 31/12/2023
833 286000 ELAINE APARECIDA SILVA BERZOINI OFICIAL DO MP JUIZ DE FORA - COMARCA; JUIZ DE FORA-PJ-07PJ 12.343,61 4.937,44 0,00 4.027,22 5.760,35 0,00 1.234,36 2.302,50 30.605,48 2.940,92 4.751,30 0,00 0,00 7.692,22 22.913,26 31/12/2023
834 509000 ELAINE CANDIDA PONTES OFICIAL DO MP BELO HORIZONTE - COMARCA; BH-02PJ FAMILIA-SECRETARIA 10.516,49 2.103,30 0,00 2.524,20 4.206,60 0,00 397,17 2.105,00 21.852,76 1.800,11 3.247,27 0,00 0,00 5.047,38 16.805,38 31/12/2023
835 283601 ELAINE CRISTINA MEQUELINO DUARTE ANALISTA DO MP ALFENAS - COMARCA; ALFENAS-PJ-02PJ 20.533,67 7.392,12 0,00 5.986,31 9.308,60 0,00 0,00 2.105,00 45.325,70 4.249,07 8.081,73 0,00 0,00 12.330,80 32.994,90 31/12/2023
836 535500 ELAINE DE OLIVEIRA CAMPOS REIS OFICIAL DO MP SANTA LUZIA - COMARCA; SANTA LUZIA-PJ-07PJ 7.506,70 1.501,34 0,00 2.025,65 3.002,68 0,00 0,00 2.105,00 16.141,37 1.222,23 2.081,87 0,00 0,00 3.304,10 12.837,27 31/12/2023
837 455700 ELAINE DE OLIVEIRA CASTRO ANALISTA DO MP POMPÉU - COMARCA; POMPEU-PJ-UNPJ 12.343,61 2.468,72 0,00 2.762,59 4.937,44 0,00 0,00 3.055,00 25.567,36 2.150,92 3.850,45 0,00 0,00 6.001,37 19.565,99 31/12/2023
838 367200 ELAINE MUNIZ BARBOSA ANALISTA DO MP BELO HORIZONTE - COMARCA; DIRETORIA DE SISTEMAS DE INFORMACAO 21.346,53 6.403,96 0,00 4.649,07 9.250,16 0,00 0,00 3.055,00 44.704,72 4.221,03 8.077,30 0,00 0,00 12.298,33 32.406,39 31/12/2023
839 679200 ELAINE RIBEIRO CHAVES ASSESSOR PROCURADOR JUSTICA BELO HORIZONTE - COMARCA; GABINETE DE PROCURADOR DE JUSTIÇA - SALA 614 0,00 0,00 8.810,89 3.160,70 2.936,96 0,00 0,00 2.105,00 17.013,55 1.753,90 2.464,90 0,00 0,00 4.218,80 12.794,75 31/12/2023
840 176900 ELAINE RIBEIRO TAVEIRA OFICIAL DO MP BELO HORIZONTE - COMARCA; DIVISAO FROTA 18.720,84 7.488,34 0,00 5.101,38 8.736,39 0,00 0,00 2.105,00 42.151,95 3.974,42 7.632,11 0,00 0,00 11.606,53 30.545,42 31/12/2023
841 496200 ELAINE SABRINA MOREIRA SCHUWARTEN ANALISTA DO MP CORONEL FABRICIANO - COMARCA; CORONEL FABRICIANO-PJ-06PJ 14.960,00 2.992,00 0,00 3.823,16 5.984,00 0,00 0,00 2.105,00 29.864,16 2.653,27 4.967,79 0,00 0,00 7.621,06 22.243,10 31/12/2023
842 489200 ELAINE VICENTINO ANALISTA DO MP BELO HORIZONTE - COMARCA; CENTRAL DE APOIO TECNICO-SETOR CONTABIL 12.343,61 4.937,44 0,00 3.031,67 5.760,35 0,00 0,00 2.105,00 28.178,07 2.545,92 4.647,02 0,00 0,00 7.192,94 20.985,13 31/12/2023
843 731400 ELBERT MENDES PINHEIRO ASSESSOR PROMOTOR JUSTICA BELO HORIZONTE - COMARCA; COORD ESTADUAL DAS PJS DE HAB. E URBANISMO 0,00 0,00 8.810,89 3.108,57 0,00 0,00 0,00 2.105,00 14.024,46 1.753,90 1.709,37 0,00 0,00 3.463,27 10.561,19 31/12/2023
844 244500 ELCI ALVES DE SOUZA ASSESSOR ADMINISTRATIVO II BELO HORIZONTE - COMARCA; CAO-CONFLITOS AGRARIOS-SECRETARIA 0,00 3.002,68 7.506,70 4.837,26 3.503,13 0,00 0,00 2.105,00 20.954,77 1.753,90 3.087,68 0,00 0,00 4.841,58 16.113,19 31/12/2023
845 472500 ELCI VAZ DE OLIVEIRA FILHO ANALISTA DO MP PIUMHI - COMARCA; PIUMHI-PJ-02PJ 12.343,61 8.640,53 0,00 5.530,67 6.994,71 0,00 3.579,65 2.105,00 39.194,17 4.106,16 5.958,89 0,00 0,00 10.065,05 29.129,12 31/12/2023
846 385200 ELCI VIANA REIS OFICIAL DO MP RIO PARDO DE MINAS - COMARCA; RIO PARDO DE MINAS-PJ-SECRETARIA 12.343,61 6.171,81 0,00 3.061,95 6.171,81 0,00 1.110,93 2.105,00 30.965,11 2.921,17 5.149,59 0,00 0,00 8.070,76 22.894,35 31/12/2023
847 289801 ELCIO JOSE DOS SANTOS ANALISTA DO MP BELO HORIZONTE - COMARCA; DIVISAO DE TERCEIRIZACAO 12.343,61 3.703,08 5.538,92 4.656,29 7.195,20 0,00 0,00 2.105,00 35.542,10 2.348,42 6.383,95 0,00 0,00 8.732,37 26.809,73 31/12/2023
848 319600 ELEN TULER DE ALBERGARIA ANALISTA DO MP BELO HORIZONTE - COMARCA; BH-19PJ SAUDE-SECRETARIA 130PJ 23.070,31 11.535,16 0,00 4.815,77 11.535,16 0,00 0,00 2.105,00 53.061,40 5.317,82 10.341,31 0,00 0,00 15.659,13 37.402,27 31/12/2023
849 205500 ELIANA ALVES DE SOUSA OFICIAL DO MP GOVERNADOR VALADARES - COMARCA; GOVERNADOR VALADARES-PJ-07PJ 12.343,61 4.937,44 0,00 2.927,40 5.760,35 0,00 0,00 2.105,00 28.073,80 2.545,92 4.751,30 0,00 0,00 7.297,22 20.776,58 31/12/2023
850 628800 ELIANA APARECIDA PEREIRA ANALISTA DO MP EXTREMA - COMARCA; EXTREMA-PJ-01PJ 11.577,56 1.157,76 0,00 3.067,65 8.490,22 0,00 0,00 2.105,00 26.398,19 1.818,60 4.399,81 0,00 0,00 6.218,41 20.179,78 31/12/2023
851 301700 ELIANA DA SILVEIRA ANALISTA DO MP BELO HORIZONTE - COMARCA; BH-11PJ COMB CRIME ORGANIZ-GAB 081PJ 22.191,68 6.657,50 0,00 4.737,67 9.616,39 0,00 0,00 2.105,00 45.308,24 4.396,82 8.483,95 0,00 0,00 12.880,77 32.427,47 31/12/2023
852 251500 ELIANA DE LIMA MILAGRES FONSECA ANALISTA DO MP CONTAGEM - COMARCA; CONTAGEM-PJ-16PJ 23.070,31 9.228,12 0,00 4.616,43 10.766,14 0,00 0,00 2.105,00 49.786,00 4.948,70 9.544,77 0,00 0,00 14.493,47 35.292,53 31/12/2023
853 503900 ELIANA DIAS DUTRA FERREIRA OFICIAL DO MP BELO HORIZONTE - COMARCA; DIRETORIA DE CONTABILIDADE 10.858,90 2.171,78 0,00 2.721,69 4.343,56 0,00 0,00 2.105,00 22.200,93 1.865,86 3.327,71 0,00 0,00 5.193,57 17.007,36 31/12/2023
854 413900 ELIANA PINTO DE OLIVEIRA NEVES ANALISTA DO MP CAMPO BELO - COMARCA; CAMPO BELO-PJ-04PJ 18.130,77 5.439,23 0,00 4.862,49 7.856,67 0,00 0,00 2.105,00 38.394,16 3.552,15 6.780,53 0,00 0,00 10.332,68 28.061,48 31/12/2023
855 228200 ELIANA RODRIGUES DA CUNHA PINHEIRO OFICIAL DO MP BELO HORIZONTE - COMARCA; DIRETORIA DE PROJETOS DE EDIFICACOES 18.130,77 7.252,31 0,00 19.287,69 9.741,77 3.842,24 0,00 2.105,00 60.359,78 3.842,24 8.774,37 0,00 0,00 12.616,61 47.743,17 31/12/2023
856 386600 ELIANA SABINO CHAVES PESSOA ANALISTA DO MP CARATINGA - COMARCA; CARATINGA-PJ-06PJ 18.130,77 12.691,55 0,00 7.872,12 11.844,95 4.712,52 0,00 2.105,00 57.356,91 4.712,52 10.796,40 0,00 0,00 15.508,92 41.847,99 31/12/2023
857 677500 ELIANA SILVA ANDRADE ASSESSOR PROMOTOR JUSTICA TRÊS CORACOES - COMARCA; TRES CORACOES-PJ-06PJ 0,00 0,00 8.810,89 3.108,57 2.936,96 0,00 0,00 2.105,00 16.961,42 1.753,90 2.517,04 0,00 0,00 4.270,94 12.690,48 31/12/2023
858 297400 ELIANE AUGUSTA RIBEIRO COSTA ANALISTA DO MP CONSELHEIRO LAFAIETE - COMARCA; CONSELHEIRO LAFAIETE-PJ-05PJ 23.070,31 6.921,09 0,00 4.417,11 9.997,13 0,00 0,00 2.105,00 46.510,64 4.579,57 8.748,23 0,00 0,00 13.327,80 33.182,84 31/12/2023
859 510600 ELIANE CAROLINA MAIA ANALISTA DO MP IGARAPÉ - COMARCA; IGARAPE-PJ-03PJ 12.343,61 3.703,08 0,00 3.566,45 5.348,90 0,00 0,00 2.105,00 27.067,04 2.348,42 4.248,74 0,00 0,00 6.597,16 20.469,88 31/12/2023
860 262600 ELIANE FERREIRA SOARES ASSESSOR ADMINISTRATIVO II BELO HORIZONTE - COMARCA; BH-18PJ DIREITOS HUMANOS-SECRETARIA 0,00 3.753,35 7.506,70 5.355,43 3.753,35 0,00 0,00 2.105,00 22.473,83 1.753,90 3.415,06 0,00 0,00 5.168,96 17.304,87 31/12/2023
861 204400 ELIANE GLAUCE DE QUEIROS MAIA OFICIAL DO MP GUANHÃES - COMARCA; GUANHAES-PJ-02PJ 21.346,53 8.538,61 0,00 19.243,82 9.961,71 0,00 0,00 2.105,00 61.195,67 4.562,57 8.818,22 0,00 0,00 13.380,79 47.814,88 31/12/2023
862 91800 ELIANE KAPLER ALVES OFICIAL DO MP BELO HORIZONTE - COMARCA; DIVISAO DE CONTROLE IMOBILIARIO 23.070,31 16.149,22 0,00 14.120,98 14.461,77 5.795,34 0,00 2.105,00 75.702,62 5.795,34 13.474,37 1.629,57 0,00 20.899,28 54.803,34 31/12/2023
863 334200 ELIANE MARCIA DE OLIVEIRA BRITO OFICIAL DO MP BELO HORIZONTE - COMARCA; BH-08PJ JUIZADO ESPECIAL-SECRETARIA 7.506,70 2.252,01 0,00 3.493,41 6.505,80 0,00 0,00 2.105,00 21.862,92 1.342,34 3.218,64 0,00 0,00 4.560,98 17.301,94 31/12/2023
864 365900 ELIANE MARIA DE OLIVEIRA FERREIRA OFICIAL DO MP SETE LAGOAS - COMARCA; SETE LAGOAS-PJ-SEC CRIMINAIS 12.343,61 8.640,53 0,00 4.565,40 6.994,71 0,00 0,00 2.105,00 34.649,25 3.138,41 5.946,16 0,00 0,00 9.084,57 25.564,68 31/12/2023
865 320600 ELIANE STADLER DE SOUZA OFICIAL DO MP MONTES CLAROS - COMARCA; MONTES CLAROS-PJ-13PJ 11.954,43 3.586,33 0,00 3.034,81 5.180,25 0,00 0,00 2.105,00 25.860,82 2.267,47 4.137,63 0,00 0,00 6.405,10 19.455,72 31/12/2023
866 448900 ELIAS PEREIRA OTONI ASSESSOR ADMINISTRATIVO II BELO HORIZONTE - COMARCA; BH-18PJ DIREITOS HUMANOS-SECRETARIA 0,00 0,00 7.506,70 6.672,73 5.004,46 0,00 412,87 6.609,02 26.205,78 1.753,49 2.622,75 0,00 0,00 4.376,24 21.829,54 31/12/2023
867 495400 ELICA SOUZA GASPARONI MATTOS OFICIAL DO MP UBÁ - COMARCA; UBA-PJ-06PJ 10.830,98 2.171,78 0,00 4.614,84 4.343,56 0,00 0,00 2.105,00 24.066,16 1.865,86 3.372,17 0,00 0,00 5.238,03 18.828,13 31/12/2023
868 86600 ELIENE FERREIRA DA SILVA OFICIAL DO MP BELO HORIZONTE - COMARCA; BH-22PJ PES COM DEF E IDOSOS-SECRETARIA 25.920,35 20.736,29 0,00 9.499,11 14.461,77 5.795,34 0,00 2.105,00 78.517,86 5.795,34 14.103,96 9.066,68 0,00 28.965,98 49.551,88 31/12/2023
869 183800 ELIENE MARIA CUNHA OFICIAL DO MP BELO HORIZONTE - COMARCA; DIRETORIA DE PESSOAL ADMINISTRATIVO - DPAD 22.191,68 8.876,67 0,00 20.016,54 10.356,12 0,00 0,00 2.105,00 63.546,01 4.751,88 9.147,87 0,00 0,00 13.899,75 49.646,26 31/12/2023
870 172300 ELINA APARECIDA SILVA ASSESSOR ADMINISTRATIVO I BELO HORIZONTE - COMARCA; BH-19PJ SAUDE-SECRETARIA 130PJ 0,00 2.436,36 4.872,71 3.174,04 2.436,36 0,00 487,27 2.105,00 15.511,74 1.657,90 1.914,23 0,00 0,00 3.572,13 11.939,61 31/12/2023
871 492501 ELINE CAMPOS DA FONSECA CUNHA ANALISTA DO MP PONTE NOVA - COMARCA; PONTE NOVA-PJ-05PJ 12.343,61 2.468,72 0,00 5.032,24 4.937,44 0,00 0,00 2.105,00 26.887,01 2.150,92 3.954,72 0,00 0,00 6.105,64 20.781,37 31/12/2023
872 618900 ELISA MOURA VIEIRA MARCATTI OFICIAL DO MP BELO HORIZONTE - COMARCA; GRUPO ESP PROM JUST DEF PROB ADM PAT PUB 7.506,70 750,67 0,00 1.943,82 2.752,46 0,00 0,00 3.055,00 16.008,65 1.102,13 1.839,66 0,00 0,00 2.941,79 13.066,86 31/12/2023
873 256500 ELISABETE NOGUEIRA ANALISTA DO MP RIBEIRÃO DAS NEVES - COMARCA; RIBEIRAO NEVES-SEC PJ EXECUCAO PENAL 18.720,84 9.360,42 0,00 9.176,91 9.360,42 0,00 0,00 2.105,00 48.723,59 4.273,95 8.027,62 0,00 0,00 12.301,57 36.422,02 31/12/2023
874 355000 ELISANGELA DARLANTONI RIBEIRO OFICIAL DO MP ARAXÁ - COMARCA; ARAXA-PJ-05PJ 12.343,61 3.703,08 0,00 3.097,96 5.348,90 0,00 0,00 2.105,00 26.598,55 2.348,42 4.300,87 0,00 0,00 6.649,29 19.949,26 31/12/2023
875 604400 ELISANGELA DEMASI FERREIRA MOREIRA ANALISTA DO MP CABO VERDE - COMARCA; CABO VERDE-PJ-UNPJ 12.343,61 1.234,36 0,00 3.353,14 4.525,99 0,00 0,00 2.105,00 23.562,10 982,16 3.698,33 0,00 0,00 4.680,49 18.881,61 31/12/2023
876 323800 ELISANGELA GONCALVES DE JESUS OFICIAL DO MP BELO HORIZONTE - COMARCA; DIRETORIA DE PESSOAL ADMINISTRATIVO - DPAD 12.343,61 3.703,08 0,00 2.844,99 5.348,90 0,00 0,00 2.105,00 26.345,58 2.348,42 4.300,87 0,00 0,00 6.649,29 19.696,29 31/12/2023
877 507400 ELISANGELA MIGUEL DA ROCHA SILVA ASSESSOR ADMINISTRATIVO II BELO HORIZONTE - COMARCA; CGMP-DIR INSP CORR PROCED PROC DISC 0,00 0,00 7.506,70 2.867,24 2.502,23 0,00 0,00 2.105,00 14.981,17 1.753,79 1.986,70 0,00 0,00 3.740,49 11.240,68 31/12/2023
878 261400 ELISANGELA REZENDE MENDES OFICIAL DO MP POUSO ALEGRE - COMARCA; POUSO ALEGRE-PJ-05PJ 12.343,61 4.937,44 0,00 2.927,40 5.760,35 0,00 0,00 2.105,00 28.073,80 2.545,92 4.751,30 0,00 0,00 7.297,22 20.776,58 31/12/2023
879 534100 ELISANGELA ROSINE SILVA OFICIAL DO MP UBERABA - COMARCA; UBERABA-PJ-06PJ 7.506,70 1.501,34 0,00 2.025,65 3.002,68 0,00 0,00 2.105,00 16.141,37 1.222,23 2.081,87 0,00 0,00 3.304,10 12.837,27 31/12/2023
880 634300 ELIUDE GRACA DAMASIO ROSARIO FRANCELINO OFICIAL DO MP BELO HORIZONTE - COMARCA; BH-18PJ VIOLENCIA DOMESTICA-SECRETARIA 6.818,83 681,88 0,00 1.979,61 2.500,24 0,00 0,00 4.005,00 15.985,56 981,10 1.595,50 0,00 0,00 2.576,60 13.408,96 31/12/2023
881 461700 ELIZABETH ALEIXO DA PAZ ANALISTA DO MP JUIZ DE FORA - COMARCA; JUIZ DE FORA-PJ-18PJ 12.343,61 2.468,72 0,00 2.658,31 4.937,44 0,00 0,00 2.105,00 24.513,08 2.150,92 3.954,72 0,00 0,00 6.105,64 18.407,44 31/12/2023
882 227300 ELIZABETH COIMBRA FELIX OFICIAL DO MP JABOTICATUBAS - COMARCA; JABOTICATUBAS-PJ-UNPJ 18.720,84 9.360,42 0,00 4.651,45 9.360,42 0,00 1.684,88 2.105,00 45.883,01 4.543,53 8.131,89 0,00 0,00 12.675,42 33.207,59 31/12/2023
883 354800 ELIZABETH DOS REIS OFICIAL DO MP BELO HORIZONTE - COMARCA; DIVISAO DE MATERIAIS 12.343,61 3.703,08 0,00 2.844,99 5.348,90 0,00 0,00 2.105,00 26.345,58 2.348,42 4.300,87 0,00 0,00 6.649,29 19.696,29 31/12/2023
884 612000 ELIZABETH MARIA DE QUEIROZ TANIGUCHI OFICIAL DO MP BELO HORIZONTE - COMARCA; SUPERINTENDENCIA GESTÃO DE PESSOAS 7.506,70 750,67 0,00 3.266,67 2.752,46 0,00 0,00 2.105,00 16.381,50 1.102,13 1.839,66 0,00 0,00 2.941,79 13.439,71 31/12/2023
885 452800 ELIZANGELA MARIA DAVI OFICIAL DO MP ARCOS - COMARCA; ARCOS-PJ-01PJ 7.506,70 1.501,34 0,00 3.290,91 3.002,68 0,00 0,00 2.105,00 17.406,63 1.222,23 2.029,74 0,00 0,00 3.251,97 14.154,66 31/12/2023
886 496300 ELIZANGELA MARQUES PINTO COELHO OFICIAL DO MP BELO HORIZONTE - COMARCA; DIRETORIA DE PESSOAL ADMINISTRATIVO - DPAD 10.858,90 2.171,78 0,00 2.669,55 4.343,56 0,00 0,00 2.105,00 22.148,79 1.865,86 3.379,84 0,00 0,00 5.245,70 16.903,09 31/12/2023
887 422500 ELIZETE FORTES DA CUNHA ANALISTA DO MP RIBEIRÃO DAS NEVES - COMARCA; RIBEIRAO DAS NEVES-PJ-07PJ 18.720,84 5.616,25 0,00 5.770,72 8.112,36 0,00 1.872,08 2.105,00 42.197,25 4.273,94 6.975,91 0,00 0,00 11.249,85 30.947,40 31/12/2023
888 506100 ELLEM CRISTINA ROCHA FONSECA BOWEN ANALISTA DO MP GOVERNADOR VALADARES - COMARCA; COORD REG PJ DEF EDU DIR CRIANCA ADOL RIODOCE 12.343,61 2.468,72 0,00 10.064,48 4.937,44 0,00 0,00 3.055,00 32.869,25 2.150,92 3.954,72 0,00 0,00 6.105,64 26.763,61 31/12/2023
889 468200 ELLEN CRISTINA BERNARDES DARE ANALISTA DO MP TRÊS PONTAS - COMARCA; TRES PONTAS-PJ-02PJ 12.343,61 2.468,72 0,00 2.710,45 4.937,44 0,00 0,00 3.055,00 25.515,22 2.150,92 3.902,59 0,00 0,00 6.053,51 19.461,71 31/12/2023
890 418800 ELLEN CRISTINA DE QUEIROZ FERREIRA ANALISTA DO MP BELO HORIZONTE - COMARCA; CENTRAL DE APOIO TECNICO-SETOR CONTABIL 18.130,77 5.439,23 0,00 9.837,94 7.856,67 0,00 1.813,08 3.530,00 46.607,69 1.071,26 7.155,99 0,00 0,00 8.227,25 38.380,44 31/12/2023
891 328401 ELLEN CRISTINA FERREIRA MORAIS MONTEIRO ANALISTA DO MP CAMANDUCAIA - COMARCA; CAMANDUCAIA-PJ-UNPJ 18.130,77 6.527,08 0,00 9.174,59 8.219,28 0,00 0,00 2.105,00 44.156,72 3.726,20 7.027,27 0,00 0,00 10.753,47 33.403,25 31/12/2023
892 556100 ELLEN CRISTINE BIANCHIN DA SILVA OFICIAL DO MP SÃO GONÇALO DO SAPUCAÍ - COMARCA; SAO GONCALO DO SAPUCAI-PJ-02PJ 7.506,70 1.501,34 0,00 6.581,81 3.002,68 0,00 540,48 2.105,00 21.238,01 1.308,71 2.029,74 0,00 0,00 3.338,45 17.899,56 31/12/2023
893 714500 ELLEN PROENCA CARVALHO DE ARAUJO ASSESSOR PROMOTOR JUSTICA MARIANA - COMARCA; MARIANA-PJ-02PJ 0,00 0,00 8.810,89 4.195,49 2.936,96 0,00 0,00 2.105,00 18.048,34 1.753,90 2.517,04 0,00 0,00 4.270,94 13.777,40 31/12/2023
894 447100 ELLEN ROSANA DE MACEDO BORGES OFICIAL DO MP UBERLÂNDIA - COMARCA; UBERLANDIA-PJ-17PJ 11.212,54 2.242,51 0,00 2.722,56 4.485,02 0,00 0,00 2.105,00 22.767,63 1.933,76 3.516,78 0,00 0,00 5.450,54 17.317,09 31/12/2023
895 477700 ELMA JACOB OFICIAL DO MP BELO HORIZONTE - COMARCA; COORD DE GABINETE DO PGJ 10.858,90 8.687,12 0,00 5.590,97 7.484,78 2.908,31 0,00 2.105,00 37.635,08 2.908,31 6.548,51 0,00 0,00 9.456,82 28.178,26 31/12/2023
896 123300 ELMA PAULA DOS SANTOS COELHO OFICIAL DO MP BELO HORIZONTE - COMARCA; BH-19PJ SAUDE-SECRETARIA 130PJ 23.070,31 23.070,31 0,00 9.342,70 14.461,77 5.795,34 0,00 2.105,00 77.845,43 5.795,34 14.213,08 8.550,66 0,00 28.559,08 49.286,35 31/12/2023
897 728200 ELMITA XISTO DO VALLE ASSESSOR ADMINISTRATIVO I BELO HORIZONTE - COMARCA; DIRET DE FORMACAO, APERFEIC. E POS-GRADUACAO 0,00 0,00 4.872,71 2.110,52 1.624,24 0,00 0,00 2.105,00 10.712,47 1.226,16 1.116,73 0,00 0,00 2.342,89 8.369,58 31/12/2023
898 356500 ELOISA CARDOSO SILVA FRANCA OFICIAL DO MP PEÇANHA - COMARCA; PECANHA-PJ-SECRETARIA 7.506,70 2.252,01 0,00 7.038,97 3.252,90 0,00 0,00 2.105,00 22.155,58 1.342,34 2.271,95 0,00 0,00 3.614,29 18.541,29 31/12/2023
899 251901 ELOISA COSTA E SILVA ANALISTA DO MP BELO HORIZONTE - COMARCA; CENT ESTAD COOPERACAO TECNICO-JURIDICA 12.343,61 4.937,44 0,00 2.979,54 5.760,35 0,00 0,00 2.105,00 28.125,94 2.545,92 4.699,16 0,00 0,00 7.245,08 20.880,86 31/12/2023
900 400400 ELOIZA MARIA FERRI PIRES DA SILVA OFICIAL DO MP BELO HORIZONTE - COMARCA; ASSESSORIA DE COMUNICACAO INTEGRADA 11.212,54 3.363,76 4.020,58 4.310,03 6.198,96 0,00 136,38 3.592,75 32.835,00 2.113,16 5.352,78 0,00 0,00 7.465,94 25.369,06 31/12/2023
901 258000 ELSO CECIANO PALMEIRA OFICIAL DO MP BELO HORIZONTE - COMARCA; DIRET DE PESSOAL DO MINISTERIO PUBLICO - DPMP 17.559,01 14.047,21 5.928,90 7.271,09 12.511,71 0,00 0,00 2.105,00 59.422,92 4.837,94 11.547,48 0,00 0,00 16.385,42 43.037,50 31/12/2023
902 206900 ELVIRA RITA DOS SANTOS ANALISTA DO MP BELO HORIZONTE - COMARCA; CENTRAL DE APOIO TECNICO-SETOR CONTABIL 23.070,31 9.228,12 0,00 8.152,10 12.415,71 4.948,70 0,00 2.105,00 59.919,94 4.948,70 11.411,43 0,00 0,00 16.360,13 43.559,81 31/12/2023
903 506800 ELVIS FERREIRA DA SILVA ANALISTA DO MP BELO HORIZONTE - COMARCA; DIRETORIA DE SISTEMAS DE INFORMACAO 12.343,61 2.468,72 0,00 2.814,72 4.937,44 0,00 0,00 3.055,00 25.619,49 2.150,92 3.798,31 0,00 0,00 5.949,23 19.670,26 31/12/2023
904 602400 ELZA MARIA MOREIRA MUNIZ ANALISTA DO MP RIO PARANAÍBA - COMARCA; RIO PARANAIBA-PJ-UNPJ 12.343,61 3.703,08 0,00 4.131,49 5.348,90 0,00 0,00 2.105,00 27.632,08 2.348,42 4.248,74 0,00 0,00 6.597,16 21.034,92 31/12/2023
905 368401 ELZIRA SIMOES DOS SANTOS ASSESSOR DE GABINETE I BELO HORIZONTE - COMARCA; ASSESSORIA DE COMUNICACAO INTEGRADA 0,00 7.252,31 18.130,77 6.837,31 8.461,03 0,00 0,00 2.105,00 42.786,42 1.753,90 8.593,51 0,00 0,00 10.347,41 32.439,01 31/12/2023
906 437400 EMANOELLE DA SILVA RODRIGUES OFICIAL DO MP UNAÍ - COMARCA; UNAI-PJ-03PJ 10.341,72 2.068,34 0,00 2.644,27 4.136,69 0,00 0,00 3.055,00 22.246,02 1.766,56 3.127,46 0,00 0,00 4.894,02 17.352,00 31/12/2023
907 458900 EMANUELLE CONRAD SILVA FREDERICO NAVES ANALISTA DO MP ALFENAS - COMARCA; ALFENAS-PJ-05PJ 18.130,77 3.626,15 0,00 3.810,46 7.252,31 0,00 0,00 3.055,00 35.874,69 3.262,06 6.143,37 0,00 0,00 9.405,43 26.469,26 31/12/2023
908 284100 EMERSON MAGNO ALMEIDA PEDROSA DA FONSECA ANALISTA DO MP BELO HORIZONTE - COMARCA; CENTRAL DE APOIO TECNICO-SETOR CONTABIL 23.070,31 9.228,12 0,00 8.269,26 10.766,14 0,00 2.307,03 3.055,00 56.695,86 5.686,94 7.517,34 0,00 0,00 13.204,28 43.491,58 31/12/2023
909 179900 EMERSON MORAIS DIAS OFICIAL DO MP BELO HORIZONTE - COMARCA; SUPERINTENDÊNCIA DE ENGENHARIA E ARQUITETURA 22.191,68 11.095,84 0,00 6.373,30 11.095,84 0,00 0,00 2.105,00 52.861,66 5.106,95 9.916,05 0,00 0,00 15.023,00 37.838,66 31/12/2023
910 488700 EMERSON SIQUEIRA DE SOUSA TEIXEIRA ANALISTA DO MP ITANHOMI - COMARCA; ITANHOMI-PJ-UNPJ 12.343,61 3.209,34 0,00 10.671,93 5.184,32 0,00 0,00 2.105,00 33.514,20 2.269,42 4.037,29 0,00 0,00 6.306,71 27.207,49 31/12/2023
911 194200 EMILIA ALVES FERREIRA RAMOS OFICIAL DO MP UBERLÂNDIA - COMARCA; UBERLANDIA-PJ-SEC CIVEIS CRIMINAIS 15.447,01 6.178,80 0,00 3.741,89 7.208,60 0,00 0,00 2.105,00 34.681,30 3.241,08 6.153,21 0,00 0,00 9.394,29 25.287,01 31/12/2023
912 679500 EMILY DIAS LEMOS E SILVA ASSESSOR PROCURADOR JUSTICA BELO HORIZONTE - COMARCA; GABINETE DE PROCURADOR DE JUSTIÇA - SALA 307 0,00 0,00 8.810,89 3.212,84 2.936,96 0,00 0,00 3.055,00 18.015,69 1.753,90 2.412,76 0,00 0,00 4.166,66 13.849,03 31/12/2023
913 620700 EMILY FONTANA DE SIQUEIRA ANALISTA DO MP BELO HORIZONTE - COMARCA; BH-18PJ VIOLENCIA DOMESTICA-SECRETARIA 12.343,61 1.234,36 0,00 4.939,04 4.525,99 0,00 0,00 3.055,00 26.098,00 1.953,42 3.504,30 0,00 0,00 5.457,72 20.640,28 31/12/2023
914 755400 EMMANUELLE PINHEIRO PAIVA QUINTAS ASSESSOR PROMOTOR JUSTICA SABARÁ - COMARCA; SABARA-PJ-03PJ 0,00 0,00 8.810,89 2.202,72 0,00 0,00 0,00 2.105,00 13.118,61 1.055,39 1.709,37 0,00 0,00 2.764,76 10.353,85 31/12/2023
915 297000 ENEIDA SOARES COSTA MELO ANALISTA DO MP PIUMHI - COMARCA; PIUMHI-PJ-01PJ 23.070,31 6.921,09 0,00 4.312,84 9.997,13 0,00 0,00 2.105,00 46.406,37 4.579,57 8.852,50 0,00 0,00 13.432,07 32.974,30 31/12/2023
916 276000 ENEZIO RODRIGUES DE SOUZA FILHO OFICIAL DO MP UBERLÂNDIA - COMARCA; UBERLANDIA-PJ-10PJ 12.343,61 4.937,44 0,00 3.544,58 5.760,35 0,00 570,27 8.326,18 35.482,43 2.545,92 4.751,30 0,00 0,00 7.297,22 28.185,21 31/12/2023
917 387700 ENI MARIA DOS REIS OFICIAL DO MP POUSO ALEGRE - COMARCA; POUSO ALEGRE-PJ-07PJ 12.343,61 3.703,08 0,00 5.408,10 5.348,90 0,00 411,86 6.598,07 33.813,62 2.348,42 4.353,01 0,00 0,00 6.701,43 27.112,19 31/12/2023
918 605100 ENIA MAIA ASSESSOR ADMINISTRATIVO IV BELO HORIZONTE - COMARCA; DIRETORIA DE ORCAMENTO-DIOR/SPC 14.488,22 2.897,64 0,00 5.120,57 5.795,29 0,00 1.448,82 2.105,00 31.855,54 1.685,85 5.153,74 0,00 0,00 6.839,59 25.015,95 31/12/2023
919 612200 ENILDO GOMES MEIRA FILHO ANALISTA DO MP BELO HORIZONTE - COMARCA; BH-23PJ INFRACIONAL-ASS JURIDICA 12.343,61 1.234,36 0,00 3.101,51 4.525,99 0,00 2.793,18 3.055,00 27.053,65 2.400,33 3.433,20 0,00 0,00 5.833,53 21.220,12 31/12/2023
920 553700 ENIVALDO NOVATO PUBLIO ANALISTA DO MP DIVINÓPOLIS - COMARCA; DIVINOPOLIS-PJ-09PJ 12.343,61 2.468,72 0,00 2.710,45 4.937,44 0,00 0,00 2.105,00 24.565,22 2.150,92 3.902,59 0,00 0,00 6.053,51 18.511,71 31/12/2023
921 680600 ENZO JOSE FERES SOUZA JABER ASSESSOR PROMOTOR JUSTICA ARAÇUAÍ - COMARCA; ARACUAI-PJ-02PJ 0,00 0,00 8.810,89 3.108,57 2.936,96 0,00 161,53 3.867,18 18.885,13 1.753,90 2.517,04 0,00 0,00 4.270,94 14.614,19 31/12/2023
922 417300 ERIC BARATTI DA SILVA ANALISTA DO MP BELO HORIZONTE - COMARCA; SUPER DE GESTAO DE PESSOAS-LOTACAO TEMPORARIA 13.588,97 2.717,79 0,00 10.974,59 5.435,59 0,00 0,00 3.055,00 35.771,94 2.390,03 4.436,93 0,00 0,00 6.826,96 28.944,98 31/12/2023
923 637600 ERIC DA ROCHA CHEHUEN ANALISTA DO MP LIMA DUARTE - COMARCA; LIMA DUARTE-PJ-UNPJ 11.577,56 1.157,76 0,00 9.406,00 4.245,11 0,00 0,00 2.105,00 28.491,43 982,16 3.514,56 0,00 0,00 4.496,72 23.994,71 31/12/2023
924 398900 ERIC TEIXEIRA SILVA OFICIAL DO MP UBERLÂNDIA - COMARCA; UBERLANDIA-PJ-SEC CIVEIS CRIMINAIS 12.343,61 3.703,08 0,00 3.045,83 5.348,90 0,00 0,00 2.105,00 26.546,42 2.348,42 4.353,01 0,00 0,00 6.701,43 19.844,99 31/12/2023
925 751300 ERIC VINICIUS PONTES ALLGAYER OFICIAL DO MP RIO VERMELHO - COMARCA; RIO VERMELHO-PJ-UNPJ 4.570,25 0,00 0,00 1.016,88 0,00 0,00 0,00 2.105,00 7.692,13 572,34 247,80 0,00 0,00 820,14 6.871,99 31/12/2023
926 754300 ERICA APARECIDA FERREIRA OFICIAL DO MP BARÃO DE COCAIS - COMARCA; BARAO DE COCAIS-PJ-UNPJ 4.570,25 0,00 0,00 1.016,88 0,00 0,00 0,00 2.175,38 7.762,51 572,34 247,80 0,00 0,00 820,14 6.942,37 31/12/2023
927 703600 ERICA CORDEIRO SANTOS ASSESSOR PROMOTOR JUSTICA MINAS NOVAS - COMARCA; MINAS NOVAS-PJ-UNPJ 0,00 0,00 8.810,89 3.108,57 2.936,96 0,00 0,00 2.105,00 16.961,42 1.753,90 2.517,04 0,00 0,00 4.270,94 12.690,48 31/12/2023
928 274200 ERICA DE SOUZA ANDRADE OFICIAL DO MP CURVELO - COMARCA; CURVELO-PJ-03PJ 15.447,01 6.178,80 0,00 4.542,03 7.208,60 0,00 0,00 2.105,00 35.481,44 3.241,08 6.101,07 0,00 0,00 9.342,15 26.139,29 31/12/2023
929 225700 ERICA GOMES DO COUTO OFICIAL DO MP BELO HORIZONTE - COMARCA; BH-21PJ TUTELA FUNDACOES-SECRETARIA 20.533,67 8.213,47 0,00 5.446,19 9.582,38 0,00 0,00 3.055,00 46.830,71 4.380,49 8.451,02 0,00 0,00 12.831,51 33.999,20 31/12/2023
930 632600 ERICA LEONOR MARTINS OFICIAL DO MP RESENDE COSTA - COMARCA; RESENDE COSTA-PJ-UNPJ 7.506,70 750,67 0,00 2.073,97 2.752,46 0,00 0,00 2.105,00 15.188,80 1.102,13 1.839,66 0,00 0,00 2.941,79 12.247,01 31/12/2023
931 524800 ERICA MACHADO DA COSTA E SOUZA ANALISTA DO MP BELO HORIZONTE - COMARCA; ASSESS TECNICO-JUR JUNTO AS PROC. DE JUST 14.960,00 2.992,00 0,00 3.823,16 5.984,00 0,00 1.086,63 2.105,00 30.950,79 2.653,27 4.967,79 0,00 0,00 7.621,06 23.329,73 31/12/2023
932 249500 ERICA RODRIGUES ANDRADE OFICIAL DO MP SÃO FRANCISCO - COMARCA; SAO FRANCISCO-PJ-02PJ 12.343,61 4.937,44 0,00 2.979,54 5.760,35 0,00 0,00 2.105,00 28.125,94 2.545,92 4.699,16 0,00 0,00 7.245,08 20.880,86 31/12/2023
933 260800 ERICA VIANA GIARDINI DE OLIVEIRA OFICIAL DO MP BELO HORIZONTE - COMARCA; DIRETORIA GESTAO COMPRAS LICITACOES 13.588,97 5.435,59 4.940,75 4.528,99 7.988,44 0,00 0,00 2.105,00 38.587,74 2.824,88 7.125,48 0,00 0,00 9.950,36 28.637,38 31/12/2023
934 299800 ERICH DOUGLAS RIBEIRO GARCIA ANALISTA DO MP BELO HORIZONTE - COMARCA; CENTRAL DE APOIO TECNICO-SETOR CONTABIL 23.070,31 6.921,09 0,00 4.883,95 9.997,13 0,00 0,00 2.105,00 46.977,48 4.579,57 8.852,50 0,00 0,00 13.432,07 33.545,41 31/12/2023
935 365000 ERICK EDUARDO JOSE DA SILVA OFICIAL DO MP JUIZ DE FORA - COMARCA; JUIZ DE FORA-PJ-12PJ 7.506,70 2.252,01 0,00 2.107,47 3.252,90 0,00 0,00 2.105,00 17.224,08 1.342,34 2.324,09 0,00 0,00 3.666,43 13.557,65 31/12/2023
936 227400 ERIKA DE LAET GOULART BOECHAT OFICIAL DO MP BELO HORIZONTE - COMARCA; BH-17PJ PATRIMONIO PUBLICO-SECRETARIA 20.533,67 8.213,47 0,00 5.498,33 9.582,38 0,00 0,00 2.105,00 45.932,85 4.380,49 8.398,89 0,00 0,00 12.779,38 33.153,47 31/12/2023
937 681301 ERIKA FERNANDA ELISEU FERREIRA ASSESSOR PROCURADOR JUSTICA BELO HORIZONTE - COMARCA; GABINETE DE PROCURADOR DE JUSTIÇA - SALA 411 0,00 0,00 8.810,89 7.514,02 2.936,96 0,00 0,00 2.105,00 21.366,87 1.753,90 2.517,04 0,00 0,00 4.270,94 17.095,93 31/12/2023
938 285100 ERIKA FERREIRA DA SILVA OFICIAL DO MP JUIZ DE FORA - COMARCA; JUIZ DE FORA-PJ-11PJ 12.343,61 4.937,44 0,00 3.544,58 5.760,35 0,00 0,00 2.105,00 28.690,98 2.545,92 4.751,30 0,00 0,00 7.297,22 21.393,76 31/12/2023
939 420100 ERIKA JEANINE VERSIANI DE CASTRO ANALISTA DO MP BELO HORIZONTE - COMARCA; CAO-EDUCACAO 18.720,84 5.616,25 0,00 5.718,58 8.112,36 0,00 1.872,08 2.105,00 42.145,11 4.273,94 7.028,05 0,00 0,00 11.301,99 30.843,12 31/12/2023
940 677100 ERIKA LAYS CARDOSO FERNANDES ASSESSOR PROMOTOR JUSTICA GRAO MOGOL - COMARCA; GRAO MOGOL-PJ-UNPJ 0,00 0,00 8.810,89 3.108,57 2.936,96 0,00 0,00 2.105,00 16.961,42 1.753,90 2.517,04 0,00 0,00 4.270,94 12.690,48 31/12/2023
941 606900 ERIKA MARIA BARBOSA ANALISTA DO MP BELO HORIZONTE - COMARCA; CAO-SAUDE 11.954,43 1.195,44 0,00 2.736,52 8.766,58 0,00 530,38 7.890,94 33.074,29 1.884,93 4.571,57 0,00 0,00 6.456,50 26.617,79 31/12/2023
942 491000 ERIKA ROCHA PEREIRA E SILVA COORDENADOR II BELO HORIZONTE - COMARCA; DIR GOVERNANCA TECNOLOGIA INFORMACAO 20.533,67 4.106,73 0,00 4.696,28 8.213,47 0,00 0,00 2.105,00 39.655,15 2.390,03 7.492,60 0,00 0,00 9.882,63 29.772,52 31/12/2023
943 283201 ERIKA STEHLING COORDENADOR I BELO HORIZONTE - COMARCA; CENTRAL DE APOIO TECNICO-SETOR DE ENGENHARIA 16.469,17 4.940,75 0,00 7.926,20 7.136,64 0,00 0,00 2.105,00 38.577,76 2.348,42 6.319,53 0,00 0,00 8.667,95 29.909,81 31/12/2023
944 254000 ERLANDIA DA SILVA MENDES OFICIAL DO MP IPATINGA - COMARCA; IPATINGA-PJ-03PJ 18.130,77 9.065,39 0,00 7.589,33 10.442,83 4.132,33 0,00 2.105,00 51.465,65 4.132,33 9.309,35 0,00 0,00 13.441,68 38.023,97 31/12/2023
945 348500 ERNILANDIA DE OLIVEIRA DIAS OFICIAL DO MP MONTES CLAROS - COMARCA; MONTES CLAROS-PJ-16PJ 12.343,61 3.703,08 0,00 2.792,86 5.348,90 0,00 0,00 2.105,00 26.293,45 2.348,42 4.353,01 0,00 0,00 6.701,43 19.592,02 31/12/2023
946 199300 ERTON PORTINARI DE ANDRADE OFICIAL DO MP SETE LAGOAS - COMARCA; SETE LAGOAS-PJ-05PJ 21.346,53 10.673,27 0,00 5.143,57 10.673,27 0,00 2.157,14 2.105,00 52.098,78 4.904,12 9.071,40 0,00 0,00 13.975,52 38.123,26 31/12/2023
947 618800 ESLY DE CARLA AYALLA BARBOSA MENDES OFICIAL DO MP NOVA LIMA - COMARCA; NOVA LIMA-PJ-SECRETARIA 7.506,70 750,67 0,00 2.322,15 2.752,46 0,00 0,00 2.105,00 15.436,98 1.102,13 1.839,66 0,00 0,00 2.941,79 12.495,19 31/12/2023
948 537000 ESTANISLAU CORREIA ALMEIDA JUNIOR OFICIAL DO MP UBERLÂNDIA - COMARCA; UBERLANDIA-PJ-25PJ 7.506,70 1.501,34 0,00 2.025,65 3.002,68 0,00 0,00 2.105,00 16.141,37 1.222,23 2.081,87 0,00 0,00 3.304,10 12.837,27 31/12/2023
949 692100 ESTEFANIA FARIA FERREIRA ASSESSOR PROCURADOR JUSTICA BELO HORIZONTE - COMARCA; GABINETE DE PROCURADOR DE JUSTIÇA - SALA 814 0,00 0,00 8.810,89 7.514,02 2.936,96 0,00 0,00 3.055,00 22.316,87 1.753,90 2.517,04 0,00 0,00 4.270,94 18.045,93 31/12/2023
950 326900 ESTER ALICE PIMENTA OFICIAL DO MP BELO HORIZONTE - COMARCA; COORD DE INCLUSAO E MOBILIZACAO SOCIAIS 12.343,61 3.703,08 0,00 2.792,86 5.348,90 0,00 0,00 2.105,00 26.293,45 2.348,42 4.353,01 0,00 0,00 6.701,43 19.592,02 31/12/2023
951 503700 ESTHER GONCALVES FONSECA ANALISTA DO MP BELO HORIZONTE - COMARCA; DIR CRIACAO E MIDIAS 12.343,61 2.468,72 0,00 2.658,31 4.937,44 0,00 0,00 2.105,00 24.513,08 2.150,92 3.954,72 0,00 0,00 6.105,64 18.407,44 31/12/2023
952 475600 ETIENE DE FATIMA OLIVEIRA PEREIRA ANALISTA DO MP PATROCÍNIO - COMARCA; PATROCINIO-PJ-04PJ 12.343,61 2.468,72 0,00 3.720,42 4.937,44 0,00 0,00 2.105,00 25.575,19 982,16 4.061,37 0,00 0,00 5.043,53 20.531,66 31/12/2023
953 428800 EUGENIA RODRIGUES TRAJANO BORGES ANALISTA DO MP UBERABA - COMARCA; UBERABA-PJ-10PJ 18.130,77 3.626,15 0,00 3.758,32 7.252,31 0,00 558,43 9.146,94 42.472,92 3.262,06 6.195,51 0,00 0,00 9.457,57 33.015,35 31/12/2023
954 272700 EUGENIO DE BARCELOS FILHO OFICIAL DO MP FRUTAL - COMARCA; FRUTAL-PJ-SECRETARIA 12.343,61 4.937,44 0,00 6.159,82 5.760,35 0,00 0,00 2.105,00 31.306,22 2.545,92 4.751,30 0,00 0,00 7.297,22 24.009,00 31/12/2023
955 254100 EULALIA ALVES MIRANDA LUCAS OFICIAL DO MP ALMENARA - COMARCA; ALMENARA-PJ-02PJ 17.559,01 8.779,51 0,00 5.225,81 8.779,51 0,00 1.580,31 2.105,00 44.029,15 4.247,96 7.569,57 0,00 0,00 11.817,53 32.211,62 31/12/2023
956 641200 EUNICE ELVIRA DA SILVA MATOS OFICIAL DO MP BELO HORIZONTE - COMARCA; BH-14PJ DEFESA CONSUMIDOR-SECRETARIA 6.818,83 681,88 0,00 1.979,61 2.500,24 0,00 0,00 2.105,00 14.085,56 981,10 1.595,50 0,00 0,00 2.576,60 11.508,96 31/12/2023
957 557900 EURIPEDES JOSUE PERES OFICIAL DO MP IBIÁ - COMARCA; IBIA-PJ-UNPJ 7.506,70 1.501,34 0,00 6.529,67 3.002,68 0,00 540,48 2.105,00 21.185,87 1.308,71 2.081,87 0,00 0,00 3.390,58 17.795,29 31/12/2023
958 225800 EURO CESAR VIEIRA BARBOSA ANALISTA DO MP BELO HORIZONTE - COMARCA; BH-17PJ PATRIMONIO PUBLICO-SECRETARIA 23.070,31 9.228,12 0,00 4.668,57 10.766,14 0,00 0,00 2.105,00 49.838,14 4.948,70 9.492,63 0,00 0,00 14.441,33 35.396,81 31/12/2023
959 199400 EUSTAQUIO ADAILTON LIMA E SILVA OFICIAL DO MP MONTES CLAROS - COMARCA; MONTES CLAROS-PJ-15PJ 21.346,53 14.942,57 0,00 12.070,90 12.096,37 0,00 2.686,66 2.105,00 65.248,03 5.587,20 10.728,15 0,00 0,00 16.315,35 48.932,68 31/12/2023
960 548000 EVA VILMA LEAO REIS JULIO OFICIAL DO MP BELO HORIZONTE - COMARCA; BH-07PJ 01 TRIBUNAL JURI-SECRETARIA 7.506,70 3.002,68 0,00 2.189,29 3.503,13 0,00 0,00 2.105,00 18.306,80 1.462,45 2.566,31 0,00 0,00 4.028,76 14.278,04 31/12/2023
961 517000 EVALDO SENA COSTA FILHO ANALISTA DO MP BELO HORIZONTE - COMARCA; BH-08PJ JUIZADO ESPECIAL-GAB 067PJ 12.343,61 4.937,44 0,00 3.031,67 5.760,35 0,00 0,00 2.105,00 28.178,07 2.545,92 4.647,02 0,00 0,00 7.192,94 20.985,13 31/12/2023
962 217500 EVELANGE LEAO RABELO ASSESSOR ADMINISTRATIVO II BELO HORIZONTE - COMARCA; CAO-PESSOAS IDOSAS E PESSOAS COM DEFICIENCIA 0,00 3.002,68 7.506,70 3.490,73 3.503,13 0,00 0,00 2.105,00 19.608,24 1.753,90 3.139,82 0,00 0,00 4.893,72 14.714,52 31/12/2023
963 679600 EVERTON BARBOSA DA SILVA ASSESSOR PROCURADOR JUSTICA BELO HORIZONTE - COMARCA; GABINETE DE PROCURADOR DE JUSTIÇA - SALA 510 0,00 0,00 8.810,89 3.108,57 2.936,96 0,00 0,00 2.105,00 16.961,42 1.753,90 2.517,04 0,00 0,00 4.270,94 12.690,48 31/12/2023
964 540400 EVIE SARAMELLA DE RESENDE OFICIAL DO MP BARBACENA - COMARCA; BARBACENA-PJ-08PJ 7.506,70 1.501,34 0,00 2.025,65 3.002,68 0,00 0,00 2.105,00 16.141,37 1.222,23 2.081,87 0,00 0,00 3.304,10 12.837,27 31/12/2023
965 469000 EWERTON CARDOSO DE SA RODRIGUES ANALISTA DO MP CAMPO BELO - COMARCA; CAMPO BELO-PJ-02PJ 12.343,61 2.468,72 0,00 2.762,59 4.937,44 0,00 0,00 2.105,00 24.617,36 2.150,92 3.850,45 0,00 0,00 6.001,37 18.615,99 31/12/2023
966 368900 FABIANA BARBOSA SIQUEIRA OFICIAL DO MP BELO HORIZONTE - COMARCA; CAO-ORDEM ECONOMICA E TRIBUTARIA-SECRETARIA 14.960,00 4.488,00 0,00 4.106,91 6.482,67 0,00 0,00 2.105,00 32.142,58 2.892,63 5.398,36 0,00 0,00 8.290,99 23.851,59 31/12/2023
967 273800 FABIANA CARNEIRO AMORIM OFICIAL DO MP BELO HORIZONTE - COMARCA; BH-23PJ CIVEL-COORD ADM CIVEL 15.949,86 6.379,94 4.346,47 5.632,16 8.892,09 0,00 1.600,58 2.105,00 44.906,10 3.577,80 7.921,93 0,00 0,00 11.499,73 33.406,37 31/12/2023
968 519300 FABIANA DE OLIVEIRA LOUREIRO ANALISTA DO MP BELO HORIZONTE - COMARCA; BH-09PJ AUDITORIA MILITAR-GAB 002PJ 12.343,61 2.468,72 0,00 2.658,31 4.937,44 0,00 0,00 2.105,00 24.513,08 2.150,92 3.954,72 0,00 0,00 6.105,64 18.407,44 31/12/2023
969 363400 FABIANA DOURADO DUPIN VIEGAS ANALISTA DO MP BELO HORIZONTE - COMARCA; GABINETE DE PROCURADOR DE JUSTIÇA - SALA 705 22.191,68 6.657,50 0,00 9.667,08 9.616,39 0,00 0,00 2.105,00 50.237,65 4.396,82 8.431,81 0,00 0,00 12.828,63 37.409,02 31/12/2023
970 410800 FABIANA DUARTE QUITITE ANALISTA DO MP BELO HORIZONTE - COMARCA; BH-15PJ M AMB PAT HIST CULT-GAB 116PJ 18.720,84 5.616,25 0,00 4.986,60 8.112,36 0,00 0,00 2.105,00 39.541,05 3.674,88 7.028,05 0,00 0,00 10.702,93 28.838,12 31/12/2023
971 419500 FABIANA EULALIA DOS SANTOS ANALISTA DO MP SÃO JOÃO DEL REI - COMARCA; SAO JOAO DEL REI-PJ-01PJ 18.720,84 5.616,25 0,00 9.450,18 8.112,36 0,00 1.872,08 2.105,00 45.876,71 4.273,94 7.028,05 0,00 0,00 11.301,99 34.574,72 31/12/2023
972 725200 FABIANA LOPES DE JESUS ASSESSOR PROMOTOR JUSTICA CONTAGEM - COMARCA; CONTAGEM-PJ-01PJ 0,00 0,00 8.810,89 3.108,57 2.936,96 0,00 0,00 2.105,00 16.961,42 1.753,90 2.517,04 0,00 0,00 4.270,94 12.690,48 31/12/2023
973 700300 FABIANA MARCIA DE SOUZA ASSESSOR ADMINISTRATIVO II BELO HORIZONTE - COMARCA; DIRET DE CONTROLE E DE MANUTENCAO DE IMOVEIS 0,00 0,00 7.506,70 6.568,45 2.502,23 0,00 0,00 2.105,00 18.682,38 1.753,79 2.038,83 0,00 0,00 3.792,62 14.889,76 31/12/2023
974 331500 FABIANA PACHECO OFICIAL DO MP GUAXUPÉ - COMARCA; GUAXUPE-PJ-01PJ 12.343,61 3.703,08 0,00 2.897,13 5.348,90 0,00 0,00 3.055,00 27.347,72 2.348,42 4.248,74 0,00 0,00 6.597,16 20.750,56 31/12/2023
975 510700 FABIANA PEREIRA SANTOS BORGES ANALISTA DO MP BELO HORIZONTE - COMARCA; DIRETORIA DE SISTEMAS DE INFORMACAO 12.343,61 2.468,72 5.538,92 3.956,71 6.783,75 0,00 0,00 2.105,00 33.196,71 2.150,92 5.933,52 0,00 0,00 8.084,44 25.112,27 31/12/2023
976 749400 FABIANA SANTOS DE OLIVEIRA CARVALHO ASSESSOR ADMINISTRATIVO I BELO HORIZONTE - COMARCA; CAO-CRIANCAS E ADOLESCENTES-ASS TECNICA 0,00 0,00 4.872,71 1.624,24 0,00 0,00 0,00 2.105,00 8.601,95 844,46 670,06 0,00 0,00 1.514,52 7.087,43 31/12/2023
977 181700 FABIANA SOUZA FERREIRA OFICIAL DO MP BELO HORIZONTE - COMARCA; BH-19PJ SAUDE-SECRETARIA 150PJ 7.506,70 3.002,68 0,00 2.293,57 3.503,13 0,00 0,00 2.105,00 18.411,08 1.462,45 2.462,03 0,00 0,00 3.924,48 14.486,60 31/12/2023
978 272900 FABIANA STOCKLER LEITE OFICIAL DO MP LAJINHA - COMARCA; LAJINHA-PJ-SECRETARIA 12.343,61 6.171,81 0,00 3.114,09 6.171,81 0,00 1.110,93 2.105,00 31.017,25 2.921,17 5.097,45 0,00 0,00 8.018,62 22.998,63 31/12/2023
979 225500 FABIANE DE FATIMA PORTELLA ANALISTA DO MP BELO HORIZONTE - COMARCA; BH-18PJ DIREITOS HUMANOS-SECRETARIA 23.070,31 9.228,12 0,00 4.564,29 10.766,14 0,00 0,00 2.105,00 49.733,86 4.948,70 9.596,90 0,00 0,00 14.545,60 35.188,26 31/12/2023
980 433800 FABIANE DINIZ MATTOS ANALISTA DO MP BELO HORIZONTE - COMARCA; BH-23PJ INFRACIONAL-ASS JURIDICA 18.720,84 3.744,17 0,00 3.846,50 7.488,34 0,00 3.960,26 9.396,60 47.156,71 3.929,91 6.505,91 0,00 0,00 10.435,82 36.720,89 31/12/2023
981 455000 FABIANO CARVALHO DA SILVA ANALISTA DO MP LAVRAS - COMARCA; LAVRAS-PJ-05PJ 12.343,61 2.468,72 0,00 2.658,31 4.937,44 0,00 0,00 2.105,00 24.513,08 2.150,92 3.954,72 0,00 0,00 6.105,64 18.407,44 31/12/2023
982 498800 FABIANO FURTADO PESSOA COELHO ANALISTA DO MP BELO HORIZONTE - COMARCA; DIRETORIA DE REDES E BANCOS DE DADOS 12.343,61 2.468,72 0,00 3.491,32 4.937,44 0,00 0,00 2.105,00 25.346,09 2.150,92 3.850,45 0,00 0,00 6.001,37 19.344,72 31/12/2023
983 663000 FABIANO MARQUES CORREA ASSESSOR ADMINISTRATIVO II BELO HORIZONTE - COMARCA; DIRETORIA DE SUPORTE E MANUTENCAO 0,00 0,00 7.506,70 2.815,10 2.502,23 0,00 0,00 2.105,00 14.929,03 1.753,79 2.038,83 0,00 0,00 3.792,62 11.136,41 31/12/2023
984 394600 FABIANO PALHARES SILVA ANALISTA DO MP BELO HORIZONTE - COMARCA; CENTRAL DE APOIO TECN-SETOR DE MEIO AMBIENTE 20.533,67 6.160,10 0,00 5.183,87 8.897,92 0,00 0,00 2.105,00 42.880,56 4.051,95 7.736,33 0,00 0,00 11.788,28 31.092,28 31/12/2023
985 676600 FABIANO RESENDE VELOSO ASSESSOR PROCURADOR JUSTICA BELO HORIZONTE - COMARCA; GABINETE DE PROCURADOR DE JUSTIÇA - SALA 1002 0,00 0,00 8.810,89 3.108,57 2.936,96 0,00 0,00 2.105,00 16.961,42 1.753,90 2.517,04 0,00 0,00 4.270,94 12.690,48 31/12/2023
986 444400 FABIANO SARAIVA MEDEIROS ANALISTA DO MP BETIM - COMARCA; BETIM-PJ-11PJ 18.130,77 3.626,15 0,00 3.862,60 7.252,31 0,00 0,00 2.105,00 34.976,83 3.262,06 6.091,24 0,00 0,00 9.353,30 25.623,53 31/12/2023
987 408700 FABIANO SOARES PORTILHO ANALISTA DO MP JUIZ DE FORA - COMARCA; GAECO REGIONAL DA ZONA DA MATA-JUIZ DE FORA 18.720,84 5.616,25 0,00 4.986,60 8.112,36 0,00 0,00 2.105,00 39.541,05 3.674,88 7.028,05 0,00 0,00 10.702,93 28.838,12 31/12/2023
988 442600 FABIO CARVALHO VIEIRA ANALISTA DO MP MONTES CLAROS - COMARCA; MONTES CLAROS-PJ-06PJ 12.343,61 2.468,72 0,00 2.658,31 4.937,44 0,00 0,00 2.105,00 24.513,08 2.150,92 3.954,72 0,00 0,00 6.105,64 18.407,44 31/12/2023
989 716601 FABIO DAMASCENA MONTEIRO DE CARVALHO OFICIAL DO MP JACINTO - COMARCA; JACINTO-PJ-UNPJ 4.570,25 0,00 0,00 1.016,88 1.523,42 0,00 274,22 2.105,00 9.489,77 616,22 633,41 0,00 0,00 1.249,63 8.240,14 31/12/2023
990 702700 FABIO JUNIOR COSTA BARREIROS ASSESSOR ADMINISTRATIVO II BELO HORIZONTE - COMARCA; DIVISAO DE MANUTENCAO PREDIAL 0,00 0,00 7.506,70 3.262,12 2.502,23 0,00 0,00 2.738,33 16.009,38 1.753,79 1.467,09 0,00 0,00 3.220,88 12.788,50 31/12/2023
991 240101 FABIO JUNQUEIRA DE ASSIS FONSECA OFICIAL DO MP BELO HORIZONTE - COMARCA; BH-17PJ PATRIMONIO PUBLICO-SECRETARIA 10.341,72 3.102,52 0,00 2.509,19 4.481,41 0,00 0,00 2.105,00 22.539,84 1.932,03 3.513,29 0,00 0,00 5.445,32 17.094,52 31/12/2023
992 271500 FABIO LUIZ VIEIRA OFICIAL DO MP SANTA VITÓRIA - COMARCA; SANTA VITORIA-PJ-UNPJ 12.343,61 4.937,44 0,00 3.596,72 5.760,35 0,00 1.036,86 2.157,56 29.832,54 2.711,82 4.699,16 0,00 0,00 7.410,98 22.421,56 31/12/2023
993 213100 FABIO PRATES GONCALVES ASSESSOR ADMINISTRATIVO IV BELO HORIZONTE - COMARCA; DIR RELACOES INSTITUCIONAIS 0,00 5.795,29 14.488,22 5.846,32 6.761,17 0,00 0,00 2.105,00 34.996,00 1.753,90 6.567,25 0,00 0,00 8.321,15 26.674,85 31/12/2023
994 436700 FABIO SANTIAGO DE CARVALHO OFICIAL DO MP POÇO FUNDO - COMARCA; POCO FUNDO-PJ-UNPJ 12.343,61 2.468,72 0,00 3.336,95 4.937,44 0,00 888,74 2.105,00 26.080,46 2.293,12 3.954,72 0,00 0,00 6.247,84 19.832,62 31/12/2023
995 208400 FABIOLA DE SOUSA CARDOSO ANALISTA DO MP BELO HORIZONTE - COMARCA; CGMP-DIR ESTAGIO PROBATORIO E ORIENT 23.070,31 9.228,12 6.160,10 5.754,89 12.529,99 0,00 0,00 2.105,00 58.848,41 4.948,70 11.616,75 868,57 0,00 17.434,02 41.414,39 31/12/2023
996 392200 FABIOLA LEROY COSTA ANALISTA DO MP ESMERALDAS - COMARCA; ESMERALDAS-PJ-01PJ 12.343,61 3.703,08 0,00 10.816,21 5.348,90 0,00 0,00 4.005,00 36.216,80 2.348,42 4.353,01 0,00 0,00 6.701,43 29.515,37 31/12/2023
997 409000 FABIOLA MONTEIRO DE CARVALHO CASTRO ANALISTA DO MP BOM SUCESSO - COMARCA; BOM SUCESSO-PJ-UNPJ 15.949,86 4.784,96 0,00 4.403,07 6.911,61 0,00 0,00 2.105,00 34.154,50 3.098,52 5.865,72 0,00 0,00 8.964,24 25.190,26 31/12/2023
998 525800 FABRICIA ALVES DANTAS OFICIAL DO MP MONTES CLAROS - COMARCA; MONTES CLAROS-PJ-01PJ 10.516,49 2.103,30 0,00 2.961,51 4.206,60 0,00 0,00 2.105,00 21.892,90 1.800,11 3.195,13 0,00 0,00 4.995,24 16.897,66 31/12/2023
999 263400 FABRICIA PINTO TEIXEIRA SANTIAGO OFICIAL DO MP BELO HORIZONTE - COMARCA; CAO-FUNDACOES-SECRETARIA 18.130,77 7.252,31 0,00 4.315,03 8.461,03 0,00 0,00 2.105,00 40.264,14 3.842,24 7.261,28 0,00 0,00 11.103,52 29.160,62 31/12/2023
1000 420800 FABRICIO BERNARDES DE OLIVEIRA OFICIAL DO MP ITURAMA - COMARCA; ITURAMA-PJ-02PJ 12.343,61 3.703,08 0,00 4.623,45 5.348,90 0,00 1.234,36 3.055,00 30.308,40 2.743,42 4.300,87 0,00 0,00 7.044,29 23.264,11 31/12/2023
1001 474000 FABRICIO DE FREITAS SALES ANALISTA DO MP MONTES CLAROS - COMARCA; COORD REG DEF ORDEM ECON TRIB MONTES CLAROS 12.343,61 2.468,72 0,00 2.658,31 4.937,44 0,00 0,00 2.105,00 24.513,08 2.150,92 3.954,72 0,00 0,00 6.105,64 18.407,44 31/12/2023
1002 510100 FABRICIO FURTADO ASSIS DO CARMO ANALISTA DO MP BELO HORIZONTE - COMARCA; SERVICO MEDICO-DEPTO PERIC MEDICA SAUDE OCUP 12.343,61 2.468,72 0,00 2.924,06 5.331,14 0,00 1.181,10 4.005,00 28.253,63 2.150,92 4.387,79 0,00 0,00 6.538,71 21.714,92 31/12/2023
1003 519600 FABRICIO GONTIJO SALVATI ANALISTA DO MP BELO HORIZONTE - COMARCA; CENTRAL DE APOIO TECNICO-SETOR CONTABIL 12.343,61 2.468,72 0,00 5.032,24 4.937,44 0,00 0,00 2.105,00 26.887,01 2.150,92 3.954,72 0,00 0,00 6.105,64 20.781,37 31/12/2023
1004 637400 FABRICIO HENRIQUE DA SILVA PASSOS ANALISTA DO MP BELO HORIZONTE - COMARCA; DIR CRIACAO E MIDIAS 12.343,61 1.234,36 4.020,58 6.113,84 5.866,18 0,00 831,40 2.105,00 32.514,97 1.953,42 5.030,65 0,00 0,00 6.984,07 25.530,90 31/12/2023
1005 428200 FABRICIO ORZIL VIANA ANALISTA DO MP SANTA LUZIA - COMARCA; SANTA LUZIA-PJ-04PJ 12.343,61 2.468,72 0,00 5.032,24 4.937,44 0,00 0,00 3.055,00 27.837,01 2.150,92 3.954,72 0,00 0,00 6.105,64 21.731,37 31/12/2023
1006 455600 FABRICIO PAIVA DA ROCHA ANALISTA DO MP SÃO JOÃO DEL REI - COMARCA; SAO JOAO DEL REI-PJ-06PJ 12.343,61 2.468,72 0,00 2.710,45 4.937,44 0,00 0,00 3.055,00 25.515,22 2.150,92 3.902,59 0,00 0,00 6.053,51 19.461,71 31/12/2023
1007 511500 FABRICIO RENE CARDOSO DE PADUA ANALISTA DO MP SÃO SEBASTIÃO DO PARAÍSO - COMARCA; SAO SEBASTIAO DO PARAISO-PJ-03PJ 12.343,61 2.468,72 0,00 2.658,31 4.937,44 0,00 0,00 2.105,00 24.513,08 2.150,92 3.954,72 0,00 0,00 6.105,64 18.407,44 31/12/2023
1008 496100 FABRICIO RESENDE GONCALVES OFICIAL DO MP ENTRE-RIOS DE MINAS - COMARCA; ENTRE RIOS DE MINAS-PJ-UNPJ 10.516,49 2.103,30 0,00 8.729,23 4.206,60 0,00 0,00 2.105,00 27.660,62 1.800,11 3.247,27 0,00 0,00 5.047,38 22.613,24 31/12/2023
1009 650300 FABRICIO ROBERTO AZEVEDO OFICIAL DO MP NOVA SERRANA - COMARCA; NOVA SERRANA-PJ-04PJ 7.270,07 727,01 0,00 2.560,20 2.665,69 0,00 0,00 2.105,00 15.327,97 1.060,48 1.749,73 0,00 21,61 2.831,82 12.496,15 31/12/2023
1010 514900 FADUA MARIA DRUMOND CHEQUER ANALISTA DO MP BETIM - COMARCA; BETIM-PJ-12PJ 12.343,61 2.468,72 0,00 5.084,38 4.937,44 0,00 0,00 2.105,00 26.939,15 2.150,92 3.850,45 0,00 0,00 6.001,37 20.937,78 31/12/2023
1011 282500 FANNY FERREIRA MELO OFICIAL DO MP ARAXÁ - COMARCA; ARAXA-PJ-03PJ 13.588,97 5.435,59 0,00 4.606,69 6.341,52 0,00 1.358,90 2.105,00 33.436,67 3.259,72 5.313,87 0,00 0,00 8.573,59 24.863,08 31/12/2023
1012 692500 FARID JUNIOR NUNES DA SILVA ASSESSOR PROCURADOR JUSTICA BELO HORIZONTE - COMARCA; GABINETE DE PROCURADOR DE JUSTIÇA - SALA 912 0,00 0,00 8.810,89 3.212,84 2.936,96 0,00 0,00 2.105,00 17.065,69 1.753,90 2.412,76 0,00 0,00 4.166,66 12.899,03 31/12/2023
1013 744000 FARLEY LOPES DE ALCANTARA OFICIAL DO MP RIBEIRÃO DAS NEVES - COMARCA; RIBEIRAO DAS NEVES-PJ-SEC CIVEL 4.570,25 0,00 0,00 2.029,38 0,00 0,00 0,00 3.055,00 9.654,63 671,06 225,59 0,00 0,00 896,65 8.757,98 31/12/2023
1014 382800 FATIMA DE OLIVEIRA COELHO E SILVA OFICIAL DO MP BELO HORIZONTE - COMARCA; DIRETORIA DE ADMINISTRACAO FINANCEIRA 12.343,61 4.937,44 4.020,58 4.675,92 7.100,54 0,00 0,00 2.105,00 35.183,09 2.545,92 6.173,37 0,00 0,00 8.719,29 26.463,80 31/12/2023
1015 398601 FELIPE ANTONIO HORTA DE PAULA ANALISTA DO MP BELO HORIZONTE - COMARCA; PROC. JUSTICA DIR. DIFUSOS E COLETIVOS-SEC 12.343,61 3.209,34 0,00 3.109,35 5.184,32 0,00 0,00 2.105,00 25.951,62 2.269,42 4.193,70 0,00 0,00 6.463,12 19.488,50 31/12/2023
1016 430900 FELIPE BOY VIEIRA ANALISTA DO MP BELO HORIZONTE - COMARCA; DIRETORIA DE SEGURANCA 17.559,01 3.511,80 6.160,10 7.672,13 9.076,97 0,00 0,00 2.105,00 46.085,01 982,16 8.422,82 0,00 0,00 9.404,98 36.680,03 31/12/2023
1017 631700 FELIPE DE MORAIS SIMOES COELHO ANALISTA DO MP BELO HORIZONTE - COMARCA; BH-18PJ VIOLENCIA DOMESTICA-SECRETARIA 11.577,56 1.157,76 0,00 3.015,51 4.245,11 0,00 0,00 2.105,00 22.100,94 1.818,60 3.284,54 0,00 0,00 5.103,14 16.997,80 31/12/2023
1018 549100 FELIPE FERNANDES ALVIM ANALISTA DO MP LAJINHA - COMARCA; LAJINHA-PJ-UNPJ 12.343,61 2.468,72 0,00 2.658,31 4.937,44 0,00 888,74 3.055,00 26.351,82 2.293,12 3.954,72 0,00 0,00 6.247,84 20.103,98 31/12/2023
1019 693100 FELIPE FROIS DO AMARAL ASSESSOR PROMOTOR JUSTICA RIBEIRÃO DAS NEVES - COMARCA; RIBEIRAO NEVES-SEC PJ EXECUCAO PENAL 0,00 0,00 8.810,89 3.160,70 2.936,96 0,00 0,00 2.105,00 17.013,55 1.753,90 2.464,90 0,00 0,00 4.218,80 12.794,75 31/12/2023
1020 620100 FELIPE GOMES DE AZEVEDO OFICIAL DO MP BELO HORIZONTE - COMARCA; DIVISAO DE SERVICOS 7.506,70 750,67 4.020,58 3.226,78 4.092,65 0,00 0,00 2.105,00 21.702,38 1.102,13 3.313,87 0,00 0,00 4.416,00 17.286,38 31/12/2023
1021 601600 FELIPE RODRIGUES DE SIQUEIRA ANALISTA DO MP BELO HORIZONTE - COMARCA; BH-02PJ FAMILIA-SECRETARIA 12.343,61 2.468,72 0,00 4.273,50 4.937,44 0,00 543,12 8.029,93 32.596,32 982,16 3.689,87 0,00 0,00 4.672,03 27.924,29 31/12/2023
1022 628900 FELIX FERNANDO JUNIO VIEIRA ANALISTA DO MP BELO HORIZONTE - COMARCA; BH-21PJ TUTELA DAS FUNDACOES-ASS CURADORES 12.343,61 1.974,98 0,00 5.416,14 4.772,86 0,00 0,00 3.055,00 27.562,59 2.071,92 3.691,14 0,00 0,00 5.763,06 21.799,53 31/12/2023
1023 544500 FELLIPE LEMOS MARCONDES BUENO ANALISTA DO MP SÃO SEBASTIÃO DO PARAÍSO - COMARCA; SAO SEBASTIAO DO PARAISO-PJ-04PJ 12.343,61 2.468,72 0,00 2.658,31 4.937,44 0,00 0,00 2.105,00 24.513,08 2.150,92 3.954,72 0,00 0,00 6.105,64 18.407,44 31/12/2023
1024 688500 FELLIPE TADEU DE ANDRADE RAMOS ASSESSOR PROCURADOR JUSTICA BELO HORIZONTE - COMARCA; GABINETE DE PROCURADOR DE JUSTIÇA - SALA 907 0,00 0,00 8.810,89 3.108,57 2.936,96 0,00 0,00 2.105,00 16.961,42 1.753,90 2.517,04 0,00 0,00 4.270,94 12.690,48 31/12/2023
1025 612600 FERNANDA ADRIANA DE PAULA GUIDO ANALISTA DO MP BELO HORIZONTE - COMARCA; CENT ESTAD COOPERACAO TECNICO-JURIDICA 12.343,61 1.234,36 0,00 2.945,10 4.525,99 0,00 0,00 3.055,00 24.104,06 1.953,42 3.556,44 0,00 0,00 5.509,86 18.594,20 31/12/2023
1026 508400 FERNANDA AGANETTI MATTOS DE OLIVEIRA ANALISTA DO MP BELO HORIZONTE - COMARCA; CENT ESTAD COOPERACAO TECNICO-JURIDICA 12.343,61 2.468,72 0,00 3.505,66 4.937,44 0,00 0,00 4.005,00 27.260,43 982,16 4.276,13 0,00 0,00 5.258,29 22.002,14 31/12/2023
1027 453600 FERNANDA ALBERNAZ RABELO ANALISTA DO MP BELO HORIZONTE - COMARCA; GABINETE DE PROCURADOR DE JUSTIÇA - SALA 616 12.343,61 2.468,72 0,00 2.658,31 4.937,44 0,00 0,00 3.055,00 25.463,08 2.150,92 3.954,72 0,00 0,00 6.105,64 19.357,44 31/12/2023
1028 255600 FERNANDA ALINA DE ALMEIDA ANDRADE OFICIAL DO MP BELO HORIZONTE - COMARCA; DIRETORIA DE CONTABILIDADE 12.343,61 4.937,44 0,00 2.927,40 5.760,35 0,00 0,00 2.105,00 28.073,80 2.545,92 4.751,30 0,00 0,00 7.297,22 20.776,58 31/12/2023
1029 443200 FERNANDA ALMEIDA LOPES ANALISTA DO MP CONTAGEM - COMARCA; CONTAGEM-PJ-10PJ 18.130,77 3.626,15 0,00 3.862,60 7.252,31 0,00 0,00 3.055,00 35.926,83 3.262,06 6.091,24 0,00 0,00 9.353,30 26.573,53 31/12/2023
1030 281100 FERNANDA ANANIAS MEIRA ANALISTA DO MP BELO HORIZONTE - COMARCA; BH-23PJ INFRACIONAL-ASS JURIDICA 23.070,31 9.228,12 0,00 6.288,92 10.766,14 0,00 4.983,19 2.105,00 56.441,68 5.746,01 9.902,60 0,00 0,00 15.648,61 40.793,07 31/12/2023
1031 539000 FERNANDA BARBOSA ALVES ANALISTA DO MP UBERLÂNDIA - COMARCA; GAECO REGIONAL DE UBERLANDIA 12.343,61 2.468,72 0,00 2.658,31 4.937,44 0,00 0,00 3.055,00 25.463,08 2.150,92 3.954,72 0,00 0,00 6.105,64 19.357,44 31/12/2023
1032 451200 FERNANDA BLOISE PRADO OFICIAL DO MP BELO HORIZONTE - COMARCA; GAECO - SECRETARIA 11.577,56 2.315,51 0,00 3.194,75 4.631,02 0,00 0,00 2.105,00 23.823,84 2.003,84 3.658,11 0,00 0,00 5.661,95 18.161,89 31/12/2023
1033 427900 FERNANDA BRAGA CARNEIRO BICALHO ANALISTA DO MP PEÇANHA - COMARCA; PECANHA-PJ-02PJ 12.343,61 2.468,72 0,00 2.710,45 4.937,44 0,00 0,00 2.105,00 24.565,22 2.150,92 3.902,59 0,00 0,00 6.053,51 18.511,71 31/12/2023
1034 507100 FERNANDA CABRINI VAZ MOTA ANALISTA DO MP BELO HORIZONTE - COMARCA; DIVISAO DE MATERIAIS 12.343,61 2.468,72 4.020,58 4.643,88 6.277,64 0,00 0,00 4.005,00 33.759,43 982,16 5.516,76 0,00 0,00 6.498,92 27.260,51 31/12/2023
1035 259800 FERNANDA CALZAVARA DE SOUSA OFICIAL DO MP BELO HORIZONTE - COMARCA; DIRET DE INFORMACAO E CONHECIMENTO-DINC/CEAF 18.130,77 7.252,31 6.160,10 5.648,92 10.514,39 0,00